[[[{"header":{"parameterUnit":"kt","parameterCategory":2,"dx":1,"dy":1,"la1":29.285339999999998,"la2":30.599998999999997,"lo1":-89.70041500000002,"lo2":-87.6738589999976,"nx":112,"ny":82,"refTime":"2022-10-02T00:00:00:Z","depth":0,"parameterNumber":1,"parameterNumberName":"U-component_of_WINDS"},"data":[-2.9186,-2.8599,0.0,-2.6504,-2.6649,0.0,-2.5635,0.0,0.0,0.0,0.0,0.0,0.0,0.0,0.0,0.0,0.0,0.0,0.0,0.0,0.0,0.0,0.0,0.0,0.0,0.0,0.0,0.0,0.0,0.0,0.0,0.0,-3.3323,-3.45,-3.5293,-3.5874,-3.6454,-3.557,-3.4449,-3.3299,-3.247,-3.1258,-2.9683,-2.9585,-2.8547,-2.6649,-2.6649,-2.5888,-2.4645,-2.4645,-2.4645,-2.4645,-2.4645,-2.4645,-2.5021,-2.756,-2.8595,-2.8595,-2.8595,-2.7758,-2.6929,-2.813,-2.7385,-2.6064,-2.6345,-2.6439,-2.6439,-2.6439,-2.2671,-1.8619,-1.8619,-1.8619,-1.8619,-1.8619,-1.8619,-1.8619,-1.8619,-1.8619,-1.8619,-1.8619,-1.8619,-1.8619,-1.8619,-1.8619,-1.8619,-1.8619,-1.8619,-1.8619,-1.8619,-1.8619,-1.8619,-1.8619,-1.8619,-1.8619,-1.8619,-1.8619,-1.8619,-1.8619,-1.8619,-1.8619,-1.8619,-1.8619,-1.8619,-1.8619,-1.8619,-1.8619,-1.8619,-1.8619,-1.8619,-1.8619,-1.8619,-1.8235,0.0,0.0,-2.7164,-2.6652,0.0,0.0,0.0,0.0,0.0,0.0,0.0,0.0,0.0,0.0,0.0,0.0,0.0,0.0,0.0,0.0,0.0,0.0,0.0,0.0,0.0,0.0,0.0,0.0,0.0,0.0,0.0,-3.3028,-3.419,-3.5712,-3.6213,-3.679,-3.7272,-3.6213,-3.5403,-3.5081,-3.4113,-3.3351,-3.2505,-3.2104,-3.0929,-2.9073,-2.8891,-2.7956,-2.672,-2.672,-2.672,-2.672,-2.672,-2.672,-2.7093,-2.9733,-3.0682,-3.0682,-3.0682,-2.9838,-2.9003,-3.03,-2.9547,-2.8421,-3.0208,-3.0682,-3.0682,-3.0682,-2.6907,-2.2111,-1.9371,-1.8619,-1.8619,-1.8619,-1.8619,-1.8619,-1.8619,-1.8619,-1.8619,-1.8619,-1.8619,-1.8619,-1.8619,-1.8619,-1.8619,-1.8619,-1.8619,-1.8619,-1.8619,-1.8619,-1.8619,-1.8619,-1.8619,-1.8619,-1.8619,-1.8619,-1.8619,-1.8619,-1.8619,-1.8619,-1.8619,-1.8619,-1.8619,-1.8619,-1.8619,-1.8619,-1.8619,-1.8619,-1.8619,-1.8619,-1.8619,-1.8619,0.0,0.0,0.0,-2.615,0.0,0.0,0.0,0.0,-2.3516,0.0,0.0,0.0,0.0,0.0,0.0,0.0,0.0,0.0,0.0,0.0,0.0,0.0,0.0,0.0,0.0,0.0,0.0,0.0,0.0,0.0,-3.263,-3.452,-3.6041,-3.6694,-3.7385,-3.7986,-3.8463,-3.6253,-3.5666,-3.6694,-3.5033,-3.4283,-3.4144,-3.3042,-3.226,-3.17,-3.1021,-3.0774,-3.0761,-3.0774,-3.0774,-3.0774,-3.0682,-3.0774,-3.0774,-3.0682,-3.0682,-3.0682,-3.0682,-3.0682,-3.0682,-3.0682,-3.0682,-3.0682,-3.0682,-3.0682,-3.0682,-3.0682,-3.0682,-2.8886,-2.1074,-1.9091,-1.8996,-1.8715,-1.8619,-1.8619,-1.8619,-1.8619,-1.8619,-1.8619,-1.8619,-1.8619,-1.8619,-1.8908,-1.9004,-1.8715,-1.8619,-1.8619,-1.8619,-1.8619,-1.8619,-1.8619,-1.8619,-1.8619,-1.8619,-1.8619,-1.8619,-1.8619,-1.8619,-1.8619,-1.8619,-1.8619,-1.8619,-1.8619,-1.8619,-1.8619,-1.8619,-1.8619,-1.8619,-1.8619,-1.8619,-1.8619,-2.6785,0.0,0.0,0.0,0.0,0.0,0.0,0.0,0.0,0.0,0.0,0.0,0.0,0.0,0.0,0.0,0.0,0.0,0.0,0.0,0.0,0.0,0.0,0.0,0.0,0.0,0.0,0.0,0.0,-3.4105,-3.3618,-3.4162,-3.5398,-3.7215,-3.7422,-3.7914,-3.8523,-3.743,-3.6822,-3.6708,-3.5742,-3.5147,-3.4727,-3.391,-3.3318,-3.2739,-3.2134,-3.1865,-3.1787,-3.1432,-3.1248,-3.1248,-3.0867,-3.0959,-3.1248,-3.0867,-3.0682,-3.0682,-3.0682,-3.0682,-3.0682,-3.0682,-3.0682,-3.0682,-3.0682,-3.0682,-3.0682,-3.0682,-3.0682,-3.0208,-2.8037,-2.7373,-2.596,-2.0033,-1.8619,-1.8619,-1.8619,-1.8619,-1.8619,-1.8619,-1.8619,-1.8619,-1.8619,-2.3523,-2.5397,-1.9562,-1.8619,-1.8619,-1.8619,-1.8619,-1.8619,-1.8619,-1.8619,-1.8619,-1.8619,-1.8619,-1.8619,-1.8619,-1.8619,-1.8619,-1.8619,-1.8619,-1.8619,-1.8619,-1.8619,-1.8619,-1.8619,-1.8619,-1.8619,-1.8619,-1.8619,-1.8619,0.0,0.0,0.0,0.0,0.0,0.0,-2.2215,0.0,-2.1789,0.0,0.0,0.0,0.0,0.0,0.0,0.0,0.0,0.0,0.0,0.0,0.0,0.0,0.0,0.0,0.0,0.0,0.0,0.0,-3.4676,-3.4867,-3.4359,-3.5105,-3.608,-3.7474,-3.7755,-3.8063,-3.8442,-3.7811,-3.7399,-3.7063,-3.6512,-3.6065,-3.5708,-3.4779,-3.4082,-3.3579,-3.2965,-3.2569,-3.2245,-3.197,-3.18,-3.18,-3.1511,-3.1511,-3.18,-3.1511,-3.1406,-3.1406,-3.1406,-3.1406,-3.1314,-3.1143,-3.0867,-3.0682,-3.0682,-3.0682,-3.0682,-3.0682,-3.0682,-3.0682,-3.0682,-3.0682,-2.9547,-2.4843,-2.3702,-2.3702,-2.3702,-2.3702,-2.3702,-2.3702,-2.3702,-2.3702,-2.3702,-2.756,-2.9072,-2.4467,-2.3702,-2.3702,-2.3702,-2.3702,-2.2396,-1.8996,-1.8619,-1.8619,-1.8619,-1.8619,-1.8619,-1.8619,-1.8619,-1.8619,-1.8619,-1.8619,-1.8619,-1.8619,-1.8619,-1.8619,-1.8619,-1.8619,-2.0415,-2.3702,-2.3702,-2.3702,0.0,0.0,0.0,0.0,-2.1594,0.0,0.0,0.0,0.0,0.0,0.0,0.0,0.0,0.0,0.0,0.0,0.0,0.0,0.0,0.0,0.0,0.0,0.0,0.0,0.0,-3.7586,-3.7222,-3.5759,-3.64,-3.6396,-3.5256,-3.6749,-3.7621,-3.7562,-3.8118,-3.8404,-3.8404,-3.7862,-3.7475,-3.7475,-3.7084,-3.678,-3.6766,-3.5725,-3.4796,-3.418,-3.3592,-3.299,-3.2429,-3.2323,-3.2337,-3.2337,-3.2337,-3.2337,-3.2337,-3.2337,-3.2245,-3.2245,-3.2245,-3.2245,-3.2154,-3.1708,-3.1248,-3.0867,-3.0854,-3.0774,-3.0682,-3.0682,-3.0682,-3.0682,-3.0682,-3.0682,-3.0682,-3.0682,-3.0682,-3.0682,-3.0682,-3.0682,-3.0682,-3.0682,-3.0682,-3.0682,-3.0682,-3.0682,-3.0682,-3.0682,-3.0682,-3.0682,-3.0682,-3.0682,-2.7944,-2.0788,-2.0041,-2.0041,-2.0041,-2.0041,-2.0041,-2.0041,-1.9187,-1.8619,-1.8619,-1.8619,-1.8619,-1.8619,-1.9562,-2.0041,-2.0041,-2.0041,-2.3712,-3.0682,-3.0682,-3.054,0.0,0.0,0.0,0.0,0.0,-2.0933,0.0,0.0,0.0,0.0,0.0,0.0,0.0,0.0,0.0,0.0,0.0,0.0,0.0,0.0,0.0,0.0,0.0,0.0,0.0,-3.8421,-3.8795,-3.8478,-3.8607,-3.8492,-3.7786,-3.8074,-3.8044,-3.7534,-3.7589,-3.7748,-3.7748,-3.7532,-3.7475,-3.7475,-3.7374,-3.7374,-3.7346,-3.6608,-3.5874,-3.5253,-3.4632,-3.3998,-3.3328,-3.2991,-3.2914,-3.2914,-3.2914,-3.2914,-3.2822,-3.2429,-3.2245,-3.2245,-3.2245,-3.2245,-3.2232,-3.2154,-3.2062,-3.1879,-3.159,-3.113,-3.0682,-3.0682,-3.0682,-3.0682,-3.0682,-3.0682,-3.0682,-3.0682,-3.0682,-3.0682,-3.0682,-3.0682,-3.0682,-3.0682,-3.0682,-3.0682,-3.0682,-3.0682,-3.0682,-3.0682,-3.0682,-3.0682,-3.0682,-3.0682,-3.0115,-2.8595,-2.8409,-2.8409,-2.8409,-2.8409,-2.8409,-2.8409,-2.2301,-1.8619,-1.8619,-1.8619,-1.8619,-1.8619,-2.5115,-2.8409,-2.8409,-2.8409,-2.9164,-3.0682,-3.0682,-2.9788,0.0,0.0,0.0,-2.0486,0.0,0.0,0.0,0.0,0.0,0.0,0.0,0.0,0.0,0.0,0.0,0.0,0.0,0.0,0.0,0.0,0.0,0.0,0.0,0.0,-4.1163,-4.1793,-4.172,-4.0833,-4.012,-3.9669,-3.9394,-4.0115,-4.0277,-3.9578,-3.9284,-3.9029,-3.9029,-3.8067,-3.7475,-3.7475,-3.7475,-3.7475,-3.7461,-3.7134,-3.648,-3.5555,-3.5243,-3.4574,-3.3601,-3.3433,-3.4404,-3.5998,-3.4056,-3.3979,-3.4632,-3.3157,-3.2608,-3.2552,-3.2156,-3.2045,-3.2045,-3.1792,-3.1703,-3.1642,-3.1579,-3.108,-3.0767,-3.1819,-3.214,-3.214,-3.214,-3.214,-3.1957,-3.0946,-3.0682,-3.0682,-3.0682,-3.0682,-3.0682,-3.0682,-3.0468,-3.0063,-2.9174,-2.9073,-2.9073,-2.9073,-2.9073,-2.9073,-2.9073,-3.006,-3.0682,-3.0682,-3.0682,-3.0682,-3.0682,-3.0682,-3.0682,-3.0682,-2.6907,-2.4749,-2.4749,-2.4749,-2.4749,-2.4749,-2.87,-3.0682,-3.0682,-2.9632,-2.9073,-2.9073,-2.9073,-2.8463,0.0,0.0,0.0,0.0,0.0,0.0,-2.5264,-2.7696,0.0,0.0,0.0,0.0,0.0,0.0,0.0,0.0,0.0,0.0,0.0,0.0,0.0,0.0,0.0,0.0,-4.4753,-4.4885,-4.4289,-4.2794,-4.1756,-4.1153,-4.1005,-4.2392,-4.2819,-4.2068,-4.1459,-4.1276,-4.1276,-3.9615,-3.8743,-3.8743,-3.8743,-3.8542,-3.8154,-3.8556,-3.7542,-3.557,-3.6035,-3.5408,-3.4223,-3.3769,-3.5893,-3.8959,-3.5741,-3.5367,-3.6322,-3.4412,-3.3606,-3.3548,-3.2675,-3.2401,-3.2244,-3.1485,-3.1241,-3.1283,-3.1433,-3.0846,-3.0655,-3.2407,-3.2878,-3.2878,-3.2878,-3.2878,-3.2521,-3.091,-3.0563,-3.0563,-3.0563,-3.0563,-3.0563,-3.0563,-3.0222,-2.9377,-2.774,-2.7385,-2.7385,-2.7385,-2.7385,-2.7385,-2.7385,-2.8983,-3.0202,-3.055,-3.0563,-3.0563,-3.0563,-3.0293,-3.0203,-3.0643,-3.0682,-3.0682,-3.0682,-3.0346,-3.0112,-3.0112,-3.0112,-3.0112,-3.0112,-2.8268,-2.7385,-2.7385,-2.7385,-2.7385,0.0,0.0,0.0,0.0,0.0,0.0,-3.1801,-3.3965,-3.5789,0.0,0.0,0.0,0.0,0.0,0.0,0.0,0.0,0.0,0.0,0.0,0.0,0.0,0.0,0.0,-4.481,-4.4885,-4.48,-4.463,-4.4449,-4.4253,-4.3928,-4.483,-4.4815,-4.3552,-4.3426,-4.3428,-4.3428,-4.3134,-4.3035,-4.3035,-4.3035,-4.2068,-4.0298,-4.2166,-4.0328,-3.5666,-3.7532,-3.7509,-3.6088,-3.4299,-3.5893,-3.9173,-3.8023,-3.7315,-3.6843,-3.6593,-3.6477,-3.6209,-3.4697,-3.409,-3.3835,-3.233,-3.1815,-3.1758,-3.1431,-3.0679,-3.0002,-3.0268,-3.0325,-3.0325,-3.0325,-3.0325,-3.0311,-3.0078,-2.9996,-2.9996,-2.9996,-2.9996,-2.9996,-2.9996,-2.9949,-2.9373,-2.7713,-2.7385,-2.7385,-2.7385,-2.7385,-2.7385,-2.7385,-2.7606,-2.8344,-2.9831,-2.9996,-2.9996,-2.9996,-2.8662,-2.8619,-3.0553,-3.0682,-3.0682,-3.0682,-2.8827,-2.7762,-2.7762,-2.7762,-2.7762,-2.7762,-2.7502,-2.7385,-2.7385,-2.7385,-2.7385,0.0,0.0,0.0,0.0,0.0,0.0,-3.1792,-3.4135,0.0,0.0,0.0,0.0,0.0,0.0,0.0,0.0,0.0,0.0,0.0,0.0,0.0,0.0,0.0,0.0,0.0,-4.4184,-4.4393,-4.4866,-4.4885,-4.4846,-4.463,-4.5975,-4.6677,-4.6713,-4.5921,-4.5552,-4.5552,-4.429,-4.3705,-4.3705,-4.3705,-4.333,-4.2446,-4.333,-4.2268,-3.98,-4.0642,-4.0532,-3.9419,-3.7213,-3.8452,-4.1574,-3.8607,-3.7865,-3.8388,-3.6879,-3.6385,-3.6253,-3.5078,-3.4771,-3.4609,-3.3879,-3.3716,-3.3766,-3.4304,-3.4223,-3.4153,-3.5452,-3.5842,-3.4905,-3.0934,-2.9914,-2.9914,-2.9914,-2.9914,-2.9914,-2.9914,-2.9914,-2.9914,-2.9914,-2.9914,-2.9656,-2.9006,-2.8857,-2.8857,-2.8857,-2.8857,-2.8857,-2.8857,-2.8857,-2.8762,-2.8531,-2.8436,-2.8844,-2.9833,-2.8368,-2.8855,-3.216,-3.0133,-2.8801,-2.8801,-2.7879,-2.7385,-2.7385,-2.7385,-2.7385,-2.7385,-2.7385,-2.7385,-2.7385,-2.7385,-2.7385,-2.4132,0.0,0.0,0.0,0.0,0.0,0.0,0.0,0.0,0.0,0.0,0.0,0.0,0.0,0.0,0.0,0.0,0.0,0.0,0.0,0.0,0.0,0.0,0.0,0.0,0.0,0.0,0.0,-4.4851,-4.4996,-4.514,-4.6512,-4.7699,-4.8783,-4.8268,-4.7913,-4.7722,-4.636,-4.557,-4.549,-4.549,-4.5182,-4.4582,-4.4959,-4.4156,-4.2496,-4.2748,-4.3221,-4.3398,-4.1355,-4.1829,-4.3413,-3.9827,-3.8999,-3.9524,-3.7742,-3.7057,-3.6971,-3.6046,-3.5686,-3.5608,-3.514,-3.4984,-3.514,-3.6014,-3.6497,-3.7039,-3.8669,-3.96,-3.8879,-3.3963,-3.1321,-2.9914,-2.9914,-2.9914,-3.0085,-3.072,-3.0835,-3.093,-3.1292,-3.0591,-2.9914,-2.9914,-2.9914,-2.9914,-2.9914,-2.9914,-2.9914,-2.9914,-2.9914,-2.9508,-2.8286,-2.8123,-2.8599,-2.9833,-2.8762,-2.9415,-3.2467,-2.9296,-2.7385,-2.7385,-2.7385,-2.7385,-2.7385,-2.7385,-2.7536,-2.77,-2.7536,-2.8654,-3.0846,-2.8735,-2.77,0.0,0.0,0.0,-3.213,0.0,0.0,-3.7863,0.0,0.0,0.0,0.0,0.0,0.0,0.0,0.0,0.0,0.0,0.0,0.0,0.0,0.0,0.0,0.0,0.0,0.0,0.0,0.0,0.0,-4.456,-4.5234,-4.5648,-4.641,-4.7464,-4.8764,-4.9993,-5.0359,-4.9831,-5.0265,-5.0265,-4.9736,-4.9736,-4.8731,-4.6805,-4.8066,-4.6032,-4.171,-4.2822,-4.5082,-4.7956,-4.6947,-4.5454,-4.3679,-4.2782,-4.1437,-4.0054,-3.994,-3.9921,-3.9713,-3.798,-3.7442,-3.7193,-3.553,-3.4984,-3.4984,-3.5062,-3.5859,-3.6747,-3.6825,-3.8363,-3.9978,-3.9808,-3.4905,-2.9914,-2.9914,-2.9914,-3.0489,-3.2668,-3.3174,-3.345,-3.4592,-3.2152,-2.9914,-2.9914,-2.9914,-2.9914,-2.9914,-2.9914,-2.9914,-2.9914,-2.9914,-2.9914,-2.9833,-2.9833,-2.9914,-2.9914,-2.9914,-2.9942,-3.0013,-2.8408,-2.7385,-2.7385,-2.7385,-2.7385,-2.7385,-2.7385,-2.7769,-2.8559,-2.7769,-3.1632,-3.9505,-3.203,-2.8559,-2.8227,-2.7799,-2.7897,-3.3877,-3.473,-3.4787,-3.7339,0.0,-3.8324,0.0,-3.8524,-3.8654,-3.8668,0.0,0.0,0.0,0.0,0.0,0.0,0.0,0.0,0.0,0.0,0.0,0.0,0.0,0.0,0.0,0.0,0.0,-4.4378,-4.5112,-4.6018,-4.7074,-4.8014,-4.8731,-4.915,-4.9312,-4.9312,-4.915,-4.8896,-4.8585,-4.8163,-4.8279,-4.7633,-4.6393,-4.6778,-4.6916,-4.6887,-4.6031,-4.4773,-4.3248,-4.2484,-4.1274,-4.0053,-4.0053,-4.0053,-3.9978,-3.9429,-3.9201,-3.9125,-3.8498,-3.8345,-3.8345,-3.8345,-3.865,-3.8973,-3.8973,-3.9429,-4.0053,-4.0053,-3.8327,-3.6617,-3.6617,-3.5543,-3.4209,-3.3426,-3.3856,-3.4507,-3.4894,-3.223,-2.9914,-2.9914,-2.9914,-2.9914,-2.9914,-2.9914,-2.9914,-2.9914,-2.9914,-2.9914,-2.9914,-2.9914,-2.9914,-2.9914,-2.9914,-2.9914,-2.9914,-2.9427,-2.9102,-2.9102,-2.9102,-2.9102,-2.9102,-3.3553,-3.4229,-3.1182,-3.1422,-3.3458,-3.7158,-3.4183,-3.2841,-2.8439,-2.9121,-3.0201,-3.4275,-3.507,-3.5355,-3.7283,-3.8005,-3.8275,-3.837,-3.9015,-3.9551,-3.9566,-4.2272,-4.4532,0.0,0.0,0.0,0.0,0.0,0.0,0.0,0.0,0.0,0.0,0.0,0.0,0.0,0.0,-4.3626,-4.3469,-4.4273,-4.5212,-4.6219,-4.6785,-4.7711,-4.9081,-4.9081,-4.8993,-4.8815,-4.8548,-4.8548,-4.8796,-4.8238,-4.8102,-4.8347,-4.8384,-4.7722,-4.6471,-4.6024,-4.5032,-4.377,-4.2958,-4.1949,-4.0948,-4.0565,-4.043,-4.043,-4.043,-4.043,-4.0449,-4.0299,-4.0223,-4.0223,-4.0053,-4.0053,-4.0053,-4.0053,-4.0053,-4.0053,-4.0053,-4.0053,-4.0053,-4.0053,-3.8959,-3.7529,-3.5972,-3.5755,-3.6118,-3.6695,-3.5071,-3.3585,-3.3585,-3.3585,-3.3585,-3.3585,-3.3585,-3.3585,-3.3585,-3.3585,-3.3585,-3.3585,-3.3585,-3.3585,-3.3585,-3.1321,-2.9914,-2.9914,-2.9914,-3.1,-3.3427,-3.3585,-3.241,-2.9995,-3.3632,-3.5419,-3.5201,-3.4889,-3.5608,-3.7253,-3.5686,-3.5218,-2.7658,-3.0145,-3.2888,-3.3981,-3.5524,-3.7086,0.0,0.0,0.0,0.0,-4.0258,-4.0626,-4.1361,-4.4192,-4.644,-4.644,-4.6792,0.0,0.0,0.0,0.0,0.0,0.0,0.0,0.0,0.0,0.0,0.0,-4.3401,-4.3637,-4.3083,-4.3878,-4.4909,-4.6147,-4.6205,-4.7217,-4.9493,-4.9513,-4.9229,-4.8767,-4.8678,-4.8678,-4.8747,-4.7946,-4.7574,-4.7621,-4.7643,-4.7368,-4.7053,-4.7053,-4.6269,-4.5013,-4.4133,-4.3292,-4.249,-4.161,-4.1298,-4.1298,-4.1298,-4.1258,-4.1144,-4.0789,-4.0638,-4.0563,-4.0223,-4.0129,-4.0129,-4.0053,-4.0053,-4.0053,-4.0053,-4.0053,-4.0053,-4.0053,-4.0053,-4.0053,-4.0053,-3.8828,-3.8152,-3.9751,-4.0053,-4.0053,-4.0053,-4.0053,-4.0053,-4.0053,-4.0053,-4.0053,-4.0053,-4.0053,-4.0053,-4.0053,-4.0053,-4.0053,-4.0053,-3.412,-3.0451,-3.0451,-3.0451,-3.3347,-3.9732,-4.0053,-3.7021,-3.0612,-2.8911,-3.203,-4.0053,-3.7962,-3.7962,-3.9978,-3.6772,-3.5842,-3.0847,-3.3326,-3.5596,-3.8951,-3.8998,-3.881,-4.1071,0.0,-4.2507,0.0,-4.4059,-4.4829,-4.5352,-4.7118,-4.8466,-4.8466,-4.9521,-4.9863,-4.8605,-4.8466,0.0,0.0,0.0,0.0,0.0,0.0,0.0,0.0,-4.592,-4.5495,-4.4319,-4.4475,-4.485,-4.535,-4.541,-4.6249,-4.8112,-4.8112,-4.8027,-4.7943,-4.7603,-4.7623,-4.7943,-4.7385,-4.7371,-4.7603,-4.7635,-4.7535,-4.7451,-4.7451,-4.6683,-4.5482,-4.4613,-4.4,-4.3468,-4.2607,-4.2197,-4.2197,-4.2197,-4.1767,-4.1144,-4.107,-4.107,-4.107,-4.092,-4.092,-4.0845,-4.0544,-4.0469,-4.0393,-4.0129,-4.0053,-4.0053,-4.0053,-4.0053,-4.0053,-4.0053,-4.0128,-4.0315,-4.0581,-4.028,-4.0053,-4.0053,-4.0053,-4.0053,-4.0053,-4.0053,-4.0053,-4.0053,-4.0053,-4.0053,-4.0053,-4.0053,-4.0053,-4.0053,-3.8498,-3.7483,-3.7483,-3.7483,-3.825,-3.9978,-4.0053,-3.9201,-3.756,-3.7063,-3.7926,-4.0053,-3.9505,-3.9505,-4.0053,-3.9201,-3.8546,-3.2535,-3.5896,-3.8428,-4.0013,-4.0213,-4.0515,-4.2114,-4.3101,-4.3964,-4.4803,-4.6884,-4.865,-4.8857,-4.959,-5.025,-5.025,-5.0949,-5.1218,-5.0318,-5.025,-4.9886,-4.9018,-4.8926,-4.865,-4.7958,-4.7888,-4.7609,-4.6885,-4.6863,-4.6462,-4.5724,-4.5653,-4.6105,-4.71,-4.7163,-4.8049,-4.9824,-4.9108,-4.8717,-4.8717,-4.7765,-4.7368,-4.7618,-4.7368,-4.8263,-4.9845,-4.9845,-4.9845,-4.9845,-4.9845,-4.896,-4.7529,-4.681,-4.5868,-4.4891,-4.3524,-4.3306,-4.3661,-4.3187,-4.2732,-4.2316,-4.2089,-4.1758,-4.1444,-4.1294,-4.1219,-4.1164,-4.0939,-4.0864,-4.0769,-4.0374,-4.0449,-4.0525,-4.0299,-4.0449,-4.0428,-4.0044,-4.0648,-4.1144,-4.0995,-4.0675,-4.043,-4.0525,-4.028,-4.0053,-4.0053,-4.0053,-4.0053,-4.0053,-4.0053,-4.0053,-4.0053,-4.0053,-4.0053,-4.0053,-4.0053,-4.0053,-4.0053,-4.0053,-4.0053,-4.0053,-4.0053,-4.0053,-4.0053,-4.0053,-4.0053,-4.0053,-3.9673,-3.9427,-3.9408,-3.9121,-3.863,-3.3756,-3.7834,-4.0763,-3.9673,-4.0858,-4.231,-4.2721,-4.3701,-4.4825,0.0,-4.8919,-5.1448,-5.1619,-5.1644,-5.1644,-5.1644,-5.1644,-5.1644,-5.1644,-5.1644,-5.1644,-5.1644,-5.1644,-5.1084,-4.975,-4.9613,-4.9041,-4.7726,-4.7586,-4.7494,-4.7284,-4.7284,-4.8068,-4.9637,-4.9816,-5.0777,-5.2531,-5.1253,-5.0593,-5.0431,-4.9047,-4.8345,-4.8345,-4.8325,-5.0008,-5.2697,-5.2776,-5.2776,-5.2697,-5.2697,-5.1799,-5.0427,-4.9587,-4.846,-4.708,-4.5384,-4.5106,-4.5519,-4.4728,-4.423,-4.3802,-4.3396,-4.2686,-4.1955,-4.1483,-4.1369,-4.1369,-4.1294,-4.1294,-4.1219,-4.0789,-4.0939,-4.1125,-4.0634,-4.0917,-4.1173,-4.0334,-4.0765,-4.1294,-4.1219,-4.107,-4.0975,-4.1219,-4.0675,-4.0204,-4.0204,-4.0129,-4.0129,-4.0355,-4.0204,-4.0053,-4.0053,-4.0053,-4.0053,-4.0053,-4.0053,-4.0053,-4.0053,-4.0053,-4.0053,-4.0053,-4.0053,-4.0053,-4.0053,-4.028,-4.0222,-3.9882,-3.9067,-3.8649,-3.8535,-3.7814,-3.7434,-3.6333,-3.8648,-4.0452,-4.2781,-4.3859,-4.4608,-4.5664,-4.6697,-4.7794,-4.8804,-5.0035,-5.1191,-5.2134,-5.2307,-5.2307,-5.2307,-5.2307,-5.2307,-5.2307,-5.2307,-5.2307,-5.2307,-5.2307,-5.2175,-5.1952,-5.191,-5.1819,-5.1528,-5.1528,-5.0944,-4.9632,-4.9564,-4.9554,-4.9479,-5.0321,-5.1097,-5.1868,-5.2566,-5.2675,-5.222,-5.1981,-5.1821,-5.1821,-5.222,-5.2538,-5.2697,-5.3149,-5.3093,-5.2697,-5.2697,-5.2538,-5.2189,-5.1394,-5.1293,-5.1528,-5.0486,-4.9405,-4.8281,-4.8112,-4.6669,-4.4724,-4.3903,-4.3541,-4.3224,-4.2388,-4.2168,-4.2094,-4.1797,-4.1722,-4.1593,-4.1219,-4.1144,-4.0969,-4.0173,-4.1134,-4.2054,-4.1544,-4.1846,-4.202,-4.1294,-4.1444,-4.1573,-4.1553,-4.1275,-4.0995,-4.0995,-4.043,-4.0505,-4.1777,-4.0806,-4.0053,-4.0053,-4.0053,-4.0053,-4.0053,-4.0053,-4.0053,-4.0053,-4.0053,-4.0053,-4.0053,-4.0053,-4.0053,-4.0053,-4.1271,-4.0937,-3.8934,-3.8782,-3.8364,-3.77,-3.7548,-3.7111,-3.8097,-4.0723,-4.2637,-4.3559,-4.3966,-4.4586,-4.6425,-4.7209,-4.8104,-5.0004,-5.0556,-5.1096,-5.224,-5.2464,-5.2464,-5.2464,-5.2464,-5.2464,-5.2464,-5.2464,-5.2464,-5.2464,-5.2464,-5.2464,-5.2464,-5.2464,-5.2464,-5.2464,-5.2464,-5.215,-5.1437,-5.195,-5.2389,-5.2729,-5.3711,-5.4666,-5.5567,-5.5046,-5.4605,-5.4372,-5.3251,-5.2697,-5.2776,-5.5279,-5.6277,-5.6048,-5.6301,-5.6148,-5.5688,-5.5688,-5.5071,-5.4069,-5.3688,-5.3158,-5.2586,-5.1783,-5.1272,-5.0839,-5.0416,-4.8765,-4.6727,-4.6846,-4.5846,-4.4604,-4.4698,-4.4698,-4.452,-4.3839,-4.3619,-4.3355,-4.2081,-4.1956,-4.1904,-4.1088,-4.2811,-4.4498,-4.396,-4.4286,-4.4553,-4.4192,-4.4264,-4.4337,-4.4098,-4.3901,-4.3974,-4.4481,-4.4026,-4.3735,-4.4047,-4.2128,-4.0675,-4.0675,-4.0675,-4.118,-4.2363,-4.2457,-4.2457,-4.2457,-4.0917,-4.0053,-4.0053,-4.1271,-4.1868,-4.1698,-4.2401,-4.195,-4.0227,-3.9745,-3.9304,-3.8902,-3.8507,-3.8065,-3.9776,-4.2613,-4.443,-4.3935,-4.365,-4.4122,-4.6577,-4.7041,-4.7557,-4.9953,-5.0528,-5.0864,-5.1763,-5.2378,-5.2628,-5.2378,-5.2553,-5.2703,-5.2703,-5.2703,-5.2703,-5.2703,-5.2703,-5.2703,-5.2703,-5.2703,-5.2703,-5.2703,-5.2703,-5.2803,-5.3053,-5.3945,-5.4921,-5.6023,-5.7053,-5.8028,-5.8805,-5.7465,-5.6754,-5.6654,-5.4893,-5.4092,-5.417,-5.7538,-5.9105,-5.9179,-5.9179,-5.8957,-5.861,-5.8536,-5.7587,-5.6172,-5.6042,-5.5172,-5.3867,-5.3114,-5.2873,-5.28,-5.2211,-5.0466,-4.8635,-4.9266,-4.7862,-4.601,-4.6636,-4.6863,-4.6636,-4.5879,-4.5587,-4.5243,-4.3733,-4.3543,-4.3663,-4.3049,-4.4914,-4.6662,-4.6063,-4.6419,-4.6863,-4.6863,-4.6863,-4.6722,-4.644,-4.6369,-4.6581,-4.7214,-4.7144,-4.6792,-4.6298,-4.3974,-4.2424,-4.2424,-4.2866,-4.3922,-4.5774,-4.5916,-4.5631,-4.4964,-4.2564,-4.1141,-4.0842,-4.3112,-4.3932,-4.2997,-4.3343,-4.2803,-4.1413,-4.0717,-4.0272,-3.9995,-3.9339,-3.9063,-4.1908,-4.3253,-4.3788,-4.4982,-4.4604,-4.4545,-4.6992,-4.7036,-4.6917,-4.848,0.0,-5.0254,-5.0355,-5.2028,-5.3067,-5.2116,-5.2737,-5.3396,-5.3396,-5.3396,-5.3396,-5.3396,-5.3396,-5.3396,-5.3396,-5.3396,-5.3396,-5.3396,-5.3396,-5.3827,-5.4882,-5.506,-5.5643,-5.6811,-5.7857,-5.8251,-5.804,-5.8925,-5.9204,-5.8784,-5.8635,-5.8486,-5.8561,-5.8932,-5.9253,-5.9598,-5.9598,-5.9426,-5.9031,-5.8685,-5.861,-5.871,-5.7937,-5.7811,-5.7912,-5.7463,-5.5758,-5.3552,-5.3459,-5.1722,-4.9362,-4.8613,-4.8168,-4.779,-4.7038,-4.6863,-4.6863,-4.6703,-4.6751,-4.6659,-4.6448,-4.6448,-4.6492,-4.6418,-4.6581,-4.6841,-4.6751,-4.6818,-4.6863,-4.6863,-4.6863,-4.6792,-4.6815,-4.6792,-4.6722,-4.644,-4.7074,-4.7726,-4.8119,-4.7118,-4.632,-4.632,-4.8281,-4.9568,-4.9797,-4.9865,-4.8628,-4.5801,-4.5373,-4.4634,-4.3423,-4.5182,-4.5078,-4.2672,-4.4029,-4.3496,-4.0898,-4.0791,-4.0191,-3.9191,-3.9106,-3.9063,-4.0708,-4.2883,-4.405,-4.4665,-4.5434,-4.598,-4.5706,-4.7211,-4.8826,-4.9436,-4.9893,-5.0137,-5.0137,-5.0848,0.0,-5.1887,-5.2294,-5.2739,-5.3334,-5.3436,-5.3436,-5.3436,-5.3436,-5.3436,-5.3436,-5.3436,-5.3436,-5.3436,-5.4136,-5.4695,-5.5219,-5.6473,-5.7438,-5.7896,-5.8988,-5.95,-5.933,-5.9592,-5.9598,-5.9426,-5.9179,-5.9327,-5.9768,-5.9768,-5.9867,-6.0014,-6.0014,-5.994,-5.9768,-5.9352,-5.9204,-5.8957,-5.7967,-5.7646,-5.7693,-5.6855,-5.5664,-5.4577,-5.4577,-5.2875,-5.0792,-5.1051,-5.0204,-4.9192,-4.9564,-4.9658,-4.9516,-4.8788,-4.86,-4.8399,-4.7544,-4.7272,-4.7774,-4.9469,-4.9883,-4.9883,-4.9883,-4.9883,-4.9839,-4.9703,-4.9658,-4.9658,-4.9658,-4.9658,-4.9634,-4.943,-4.9703,-4.9726,-4.8973,-4.7679,-4.7096,-4.7818,-4.8766,-4.9545,-5.0298,-4.95,-4.8397,-4.7166,-4.6227,-4.5839,-4.6044,-4.678,-4.6298,-4.4485,-4.5079,-4.4504,-4.2781,-4.2781,-4.2598,-4.2147,-4.2147,-4.2147,-3.903,-4.1854,-4.3873,-4.4333,-4.5571,-4.6312,-4.5284,-4.7505,-4.9598,-4.9267,-4.9675,-5.0042,-4.9708,-5.0494,0.0,-5.233,-5.2746,-5.337,-5.4423,-5.4312,-5.4056,-5.4056,-5.3695,-5.3436,-5.3436,-5.3824,-5.4056,-5.4056,-5.4801,-5.5457,-5.5791,-5.7213,-5.8155,-5.8485,-5.9674,-6.0233,-6.0233,-5.994,-5.9892,-5.9892,-5.9573,-5.9695,-6.0233,-6.0233,-6.0233,-6.0233,-6.0233,-6.0233,-6.0233,-5.9966,-5.9445,-5.8799,-5.7409,-5.6914,-5.6911,-5.5922,-5.531,-5.4878,-5.4763,-5.3393,-5.1742,-5.239,-5.1583,-5.0459,-5.1266,-5.151,-5.1339,-5.0533,-5.0247,-5.0051,-4.9062,-4.8863,-4.9452,-5.1556,-5.2084,-5.2084,-5.2084,-5.2084,-5.1952,-5.1686,-5.1619,-5.1619,-5.151,-5.151,-5.151,-5.151,-5.151,-5.1151,-5.0046,-4.888,-4.8512,-4.9385,-4.9453,-4.9818,-5.0636,-4.9398,-4.8552,-4.8552,-4.7205,-4.6694,-4.7308,-4.7361,-4.6753,-4.5448,-4.5484,-4.5063,-4.426,-4.426,-4.42,-4.4165,-4.4472,-4.4472,-3.7373,-4.0016,-4.2782,-4.4313,-4.4729,-4.5086,-4.6503,-4.7746,-4.8272,-4.7123,-4.8626,-4.9811,-4.8788,-5.1354,0.0,-5.3828,-5.4696,-5.5809,-5.7127,-5.6183,-5.5364,-5.5364,-5.4248,-5.3436,-5.3436,-5.4631,-5.5364,-5.5364,-5.5364,-5.5864,-5.7086,-5.7016,-5.7438,-5.846,-5.9674,-6.0233,-6.0233,-6.0233,-6.0233,-6.0233,-6.0233,-6.0233,-6.0233,-6.0233,-6.0233,-6.0233,-6.0233,-6.0233,-6.0233,-6.0233,-5.9572,-5.8338,-5.6378,-5.5908,-5.6332,-5.5788,-5.4927,-5.4032,-5.3765,-5.2913,-5.1885,-5.1644,-5.151,-5.1486,-5.151,-5.151,-5.151,-5.1486,-5.1486,-5.1486,-5.1486,-5.1661,-5.1927,-5.2374,-5.2464,-5.2464,-5.2464,-5.2464,-5.2374,-5.1952,-5.1861,-5.1819,-5.1552,-5.151,-5.151,-5.151,-5.151,-5.151,-5.151,-5.1486,-5.1486,-5.151,-5.151,-5.151,-5.151,-5.0418,-4.9759,-4.9759,-4.8769,-4.7721,-4.6709,-4.666,-4.6088,-4.4967,-4.4918,-4.4766,-4.4531,-4.4531,-4.4378,-4.4141,-4.5277,-4.5243,-3.9296,-4.2031,-4.4298,-4.5681,-4.6627,-4.7156,-4.6804,-4.8853,-5.0549,-4.9345,-4.9678,-5.0043,-4.9746,-4.9931,0.0,0.0,-5.3526,-5.4726,-5.5841,-5.6439,-5.671,-5.671,-5.6403,-5.6094,-5.6094,-5.6464,-5.7095,-5.7968,-5.8834,-5.9834,-6.109,-6.1745,-6.2277,-6.2609,-6.2074,-6.169,-6.169,-6.0763,-6.0233,-6.0306,-6.2258,-6.3239,-6.3239,-6.3239,-6.3239,-6.3116,-6.2247,-6.135,-6.0465,-5.9666,-5.8552,-5.7311,-5.587,-5.5415,-5.5432,-5.4489,-5.381,-5.3376,-5.3269,-5.2871,-5.2307,-5.2175,-5.2175,-5.2175,-5.2175,-5.2175,-5.2175,-5.2175,-5.1952,-5.1819,-5.2109,-5.2241,-5.2374,-5.2768,-5.29,-5.29,-5.29,-5.29,-5.2768,-5.2374,-5.2307,-5.2241,-5.2175,-5.2175,-5.2175,-5.2175,-5.2175,-5.2175,-5.2175,-5.2175,-5.1878,-5.1021,-5.0112,-4.9439,-4.9247,-4.893,-4.871,-4.871,-4.858,-4.8321,-4.7986,-4.796,-4.778,-4.7393,-4.7393,-4.7419,-4.7307,-4.7307,-4.7307,-4.7195,-4.7561,-4.7561,-3.9081,-4.2224,-4.4969,-4.6312,-4.746,-4.8008,-4.6846,-4.8654,-5.035,-4.9637,-4.9529,-4.9971,-5.1274,0.0,-5.2295,-5.3135,-5.4387,-5.5451,-5.615,-5.6835,-5.7349,-5.7349,-5.7318,-5.7351,-5.7351,-5.7773,-5.8403,-5.9211,-6.0429,-6.1259,-6.1563,-6.2584,-6.3223,-6.3223,-6.2283,-6.2235,-6.3186,-6.1837,-6.137,-6.1859,-6.3698,-6.4275,-6.3771,-6.3771,-6.3593,-6.3129,-6.2299,-6.1445,-6.0687,-5.99,-5.8932,-5.7663,-5.6932,-5.6423,-5.5926,-5.5221,-5.4478,-5.3953,-5.3824,-5.3331,-5.2703,-5.253,-5.2464,-5.2464,-5.2464,-5.2464,-5.2464,-5.2464,-5.2307,-5.2456,-5.3966,-5.3863,-5.3501,-5.3888,-5.3566,-5.3201,-5.3201,-5.3201,-5.3071,-5.2768,-5.2703,-5.2637,-5.253,-5.2875,-5.3216,-5.3216,-5.3248,-5.3223,-5.3223,-5.2814,-5.2026,-5.0878,-4.995,-4.9328,-4.9069,-4.8978,-4.897,-4.897,-4.8879,-4.8828,-4.8719,-4.8719,-4.8664,-4.861,-4.861,-4.861,-4.861,-4.861,-4.861,-4.8636,-4.9072,-4.9018,-3.7431,-4.1051,-4.47,-4.6246,-4.75,-4.8041,-4.6776,-4.7562,-4.8528,-4.8446,-4.8671,-4.9845,-5.3046,-5.5687,-5.7026,-5.5782,-5.6706,-5.7574,-5.7434,0.0,-5.7811,-5.7556,-5.7729,-5.7823,-5.7653,-5.8751,-5.9537,-5.9563,-6.0697,-6.0895,-5.979,-6.0802,-6.1414,-6.1331,-6.1221,-6.2213,-6.456,-6.3293,-6.3305,-6.4653,-6.4653,-6.401,-6.2781,-6.2781,-6.2179,-6.1139,-6.1057,-6.0938,-6.0874,-6.0792,-6.0019,-5.8975,-5.8975,-5.8328,-5.7351,-5.7351,-5.6587,-5.5463,-5.5301,-5.435,-5.3331,-5.294,-5.2809,-5.2809,-5.2809,-5.2809,-5.2809,-5.2809,-5.2809,-5.3566,-5.6587,-5.6307,-5.5238,-5.5463,-5.4631,-5.3759,-5.3759,-5.3759,-5.3695,-5.3436,-5.3371,-5.3216,-5.2774,-5.3709,-5.4435,-5.4357,-5.4346,-5.4378,-5.4378,-5.3328,-5.2115,-5.0946,-5.0801,-5.0648,-5.0324,-5.0166,-5.0166,-5.0335,-4.9932,-4.9531,-4.9262,-4.9262,-4.9153,-4.8882,-4.8882,-4.8882,-4.8882,-4.8882,-4.8882,-4.8937,-4.9986,-4.9933,-3.8887,-4.1302,-4.3465,-4.5808,-4.82,-4.9434,-4.7224,-4.8446,-4.9757,-4.887,-5.0248,-5.157,-5.1486,-5.4115,0.0,-5.5687,-5.7016,-5.772,-5.6489,-5.9947,-6.1821,-5.978,-6.1364,-6.2182,-6.1139,-6.1362,-6.1826,-6.253,-6.2821,-6.3256,-6.3716,-6.4943,-6.5194,-6.4186,-6.3989,-6.4268,-6.4828,-6.3346,-6.3603,-6.5603,-6.5389,-6.5123,-6.4835,-6.462,-6.4355,-6.41,-6.3065,-6.207,-6.1021,-6.0037,-5.8911,-5.7727,-5.7727,-5.7564,-5.7351,-5.7351,-5.7109,-5.6893,-5.6832,-5.6587,-5.6341,-5.6218,-5.6218,-5.6218,-5.6218,-5.6218,-5.6218,-5.6218,-5.6218,-5.6376,-5.7109,-5.7048,-5.6832,-5.6893,-5.6648,-5.6464,-5.6464,-5.6464,-5.6403,-5.6341,-5.6341,-5.5985,-5.492,-5.4974,-5.4858,-5.3965,-5.3822,-5.3806,-5.3806,-5.3562,-5.2907,-5.171,-5.1461,-5.0918,-4.998,-4.966,-5.0312,-5.2107,-5.2111,-5.2021,-5.197,-5.197,-5.197,-5.1919,-5.184,-5.184,-5.184,-5.184,-5.184,-5.1868,-5.1924,-5.185,-3.9714,-4.2416,-4.4704,-4.6104,-4.7696,-4.8565,-4.7115,-4.7868,-4.8876,-4.8744,-4.9817,-5.11,-5.2234,-5.3465,-5.5135,-5.736,0.0,-5.7601,-5.5537,-5.8316,-6.0485,0.0,0.0,-6.2521,-6.3022,-6.2521,-6.2436,-6.2917,-6.3477,-6.3802,-6.3748,-6.5035,-6.5416,-6.4655,-6.4008,-6.4227,-6.535,-6.2723,-6.2636,-6.4973,-6.4886,-6.4829,-6.4916,-6.4742,-6.4304,-6.3718,0.0,-6.2324,-6.1607,-6.0916,-6.0171,-5.9392,-5.9392,-5.9276,-5.9131,-5.9131,-5.9131,-5.9072,-5.8456,-5.786,-5.7351,-5.7351,-5.7351,-5.7351,-5.7351,-5.7351,-5.7351,-5.7351,-5.8218,-5.9131,-5.9131,-5.872,-5.8218,-5.8218,-5.7773,-5.7351,-5.7351,-5.6882,-5.6472,-5.6624,-5.6095,-5.549,-5.4866,-5.5159,-5.5251,-5.4642,-5.4531,-5.4578,-5.4578,-5.4044,-5.3186,-5.2039,-5.1796,-5.1361,-5.0622,-5.0462,-5.109,-5.2786,-5.3136,-5.3185,-5.3036,-5.3036,-5.2986,-5.2886,-5.2886,-5.2886,-5.2886,-5.2886,-5.2786,-5.2714,-5.2541,-5.244,-4.0339,-4.3715,-4.6386,-4.6179,-4.6311,-4.648,-4.6427,-4.6459,-4.6837,-4.8114,-4.8495,-4.9576,-5.2966,-5.3185,-5.4248,0.0,0.0,-5.718,0.0,0.0,-5.7725,-5.9557,0.0,-6.1503,-6.3485,-6.2864,-6.2276,-6.2276,-6.3311,-6.3403,-6.2255,-6.3435,-6.3993,-6.3553,-6.2639,-6.3078,-6.482,-6.1542,-6.1129,-6.3494,-6.3438,-6.3612,-6.3932,-6.3875,-6.3229,-6.2196,0.0,-6.2196,-6.2196,-6.2196,-6.2086,-6.1839,-6.1868,-6.1617,-6.1308,-6.1252,-6.1252,-6.1054,-5.9942,-5.8837,-5.798,-5.798,-5.798,-5.798,-5.798,-5.798,-5.798,-5.8071,-5.9682,-6.142,-6.142,-6.0399,-5.9456,-5.9456,-5.8448,-5.7459,-5.7459,-5.66,-5.5912,-5.6171,-5.5196,-5.4365,-5.4422,-5.511,-5.5624,-5.5372,-5.536,-5.5338,-5.5287,-5.4348,-5.3276,-5.2275,-5.2174,-5.2044,-5.184,-5.184,-5.2174,-5.3036,-5.3482,-5.3601,-5.3363,-5.3285,-5.3235,-5.2957,-5.3107,-5.3206,-5.3206,-5.3206,-5.3156,-5.3086,-5.2915,-5.2764,-4.1317,-4.4021,-4.5247,-4.4142,-4.3881,-4.418,-4.5247,-4.465,-4.4599,-4.698,-4.7487,-4.7995,-4.9685,-5.2412,-5.4415,0.0,0.0,0.0,-5.4902,-5.794,-5.9673,-5.7831,-6.0569,0.0,-6.1584,-6.2331,-6.2761,-6.252,-6.2698,-6.2648,-6.2196,-6.3435,-6.3111,-6.0898,-6.1724,-6.1557,-6.0137,-5.9511,-6.001,-6.1495,-6.126,-6.1748,-6.2816,-6.2572,-6.2373,-6.2196,0.0,0.0,-6.2196,-6.2196,-6.2196,-6.2141,-6.1895,-6.1784,-6.1672,-6.1364,-6.1252,-6.1252,-6.0997,-6.0799,-6.0628,-6.0628,-6.0628,-6.0628,-6.0628,-6.0628,-6.0713,-6.1306,-6.178,-6.2086,-6.2086,-6.1098,-6.0084,-6.0084,-5.9128,-5.8151,-5.8151,-5.8005,-5.7889,-5.7912,-5.7766,-5.7247,-5.6219,-5.6146,-5.5816,-5.4456,-5.4283,-5.4216,-5.399,-5.3766,-5.3572,-5.3375,-5.3375,-5.3375,-5.3326,-5.3326,-5.3502,-5.3826,-5.3923,-5.3874,-5.3601,-5.3601,-5.3552,-5.3552,-5.4289,-5.4688,-5.4688,-5.4688,-5.5112,-5.5927,-5.4812,-5.4718,-4.0613,-4.3506,-4.5735,-4.4497,-4.3729,-4.3574,-4.439,-4.4488,-4.4517,-4.5026,-4.6252,-4.7379,-4.8006,-5.0102,-5.2325,-5.4014,-5.5081,0.0,0.0,0.0,-5.798,-5.8169,-5.9176,-6.0433,0.0,-6.1959,-6.2145,-6.2785,-6.2158,-6.1717,-6.1587,-6.1445,-6.088,-5.9662,-6.0197,-5.9349,-5.7004,-5.7022,-5.7651,-5.8937,-5.9502,-6.0495,-6.18,-6.2355,-6.2628,-6.2628,-6.2628,-6.2628,-6.2628,-6.2628,-6.252,-6.2386,-6.2276,-6.2141,-6.2005,-6.181,-6.1754,-6.1754,-6.1754,-6.1754,-6.1754,-6.1754,-6.1754,-6.1754,-6.1754,-6.1754,-6.1663,-6.1286,-6.1134,-6.0986,-6.0278,-5.9659,-5.9216,-5.9216,-5.8744,-5.8331,-5.8331,-5.777,-5.7319,-5.7441,-5.6808,-5.6079,-5.5635,-5.5419,-5.5066,-5.4332,-5.4244,-5.4244,-5.4069,-5.4069,-5.4069,-5.4069,-5.4069,-5.4069,-5.4069,-5.4539,-5.5048,-5.5698,-5.5744,-5.5622,-5.5331,-5.5361,-5.5298,-5.5235,-5.5652,-5.5851,-5.5851,-5.5851,-5.6019,-5.6366,-5.5744,-5.5652,-4.1658,0.0,-4.6725,-4.5519,-4.4554,-4.3987,0.0,-4.4882,-4.5103,-4.4216,-4.5624,-4.6999,-4.6831,-4.823,-5.0414,-5.3313,-5.4468,-5.5432,-5.6514,0.0,0.0,-5.9028,-5.8229,-5.8775,-6.2138,-6.1307,-6.1001,-6.1989,-6.1121,-6.0553,-6.0553,-5.9604,-5.8947,-5.8648,-5.8783,-5.7782,-5.5572,-5.5495,-5.6093,-5.7153,-5.8468,-5.9805,-6.1113,-6.2378,-6.2976,-6.2976,-6.2976,-6.2976,-6.2976,-6.2976,-6.2868,-6.2682,-6.2628,-6.2495,-6.2276,-6.2251,-6.2196,-6.2196,-6.2196,-6.2196,-6.2196,-6.2196,-6.2196,-6.2196,-6.2196,-6.2069,-6.1675,-6.0372,-6.0017,-5.9728,-5.8752,-5.8249,-5.8063,-5.8063,-5.7775,-5.7568,-5.7568,-5.677,-5.6158,-5.6324,-5.5454,-5.4676,-5.4837,-5.4724,-5.458,-5.4532,-5.4532,-5.4514,-5.4436,-5.4418,-5.4418,-5.4418,-5.4418,-5.4532,-5.4742,-5.5698,-5.6574,-5.7205,-5.7248,-5.7161,-5.6836,-5.6836,-5.6779,-5.6694,-5.6694,-5.6783,-5.696,-5.6916,-5.6916,-5.7004,-5.6725,-5.6605,0.0,-4.7924,-4.7761,-4.649,-4.5913,-4.5652,-4.5586,-4.5581,0.0,-4.5968,-4.6293,-4.6304,-4.5569,-4.8089,-5.0122,-4.9657,-5.2351,-5.4665,0.0,-5.6034,0.0,0.0,0.0,0.0,-6.0675,-5.9867,-5.9275,-5.9365,-5.9275,-5.9216,-5.9216,-5.9156,-5.8528,-5.7303,-5.777,-5.7529,-5.6501,-5.6456,-5.6703,-5.7153,-5.8468,-5.9805,-6.1113,-6.2378,-6.2976,0.0,-6.2976,-6.2976,-6.2976,-6.2976,-6.2976,-6.2922,-6.2682,-6.2574,-6.252,-6.2306,-6.2196,-6.2196,-6.2196,-6.2196,-6.2196,-6.2196,-6.2196,-6.2196,-6.2196,-6.1688,-6.083,-5.9523,-5.9165,-5.9135,-5.9075,-5.815,-5.7224,-5.7224,-5.6346,-5.5402,-5.5402,-5.539,-5.53,-5.53,-5.524,-5.515,-5.515,-5.518,-5.5056,-5.4837,-5.4789,-5.4694,-5.4466,-5.4418,-5.4418,-5.4418,-5.4418,-5.4789,-5.5606,-5.6973,-5.7669,-5.7508,-5.7508,-5.7422,-5.7117,-5.7117,-5.7117,-5.7117,-5.7117,-5.7453,-5.8168,-5.7956,-5.8368,-5.9387,-5.8326,-5.821,-4.9333,-4.9172,-4.8718,-4.7446,-4.6588,-4.614,0.0,0.0,-4.6785,-4.6025,-4.7339,-4.7992,-4.5922,-4.8112,-5.0068,-4.9492,-5.2807,-5.5722,0.0,0.0,0.0,0.0,0.0,0.0,0.0,-5.9838,-5.9915,-6.0699,-6.0038,-5.9544,-5.9544,-5.8789,-5.826,-5.7983,-5.8017,-5.7893,-5.752,-5.7453,-5.7194,-5.6794,-5.8085,-5.9112,-5.9894,-6.1514,-6.2755,-6.3569,-6.3938,-6.4065,0.0,-6.4065,-6.3886,-6.3652,-6.4169,-6.416,-6.3891,-6.4409,-6.4614,-6.4614,-6.4614,-6.4203,-6.3659,-6.3659,-6.3213,-6.2682,-6.2682,-6.2773,-6.2417,-6.0208,-5.92,-5.8541,-5.7721,-5.6751,-5.5993,-5.6217,-5.595,-5.5651,-5.6003,-5.6049,-5.6049,-5.6049,-5.6049,-5.6049,-5.6049,-5.6049,-5.6155,-5.647,-5.6529,-5.6574,-5.6721,-5.669,-5.6677,-5.6636,-5.6636,-5.7048,-5.7989,-5.8565,-5.9048,-5.9443,-5.9475,-5.9363,-5.908,-5.908,-5.9039,-5.8957,-5.8957,-5.9112,-5.9387,-5.9306,-5.9467,-5.993,-5.9467,-5.9427,-5.2512,-5.163,-5.0707,-5.0301,-4.9253,-4.8198,-4.7838,0.0,-4.8808,-4.7132,-4.8694,-4.9585,-4.6958,-4.8694,-5.0361,-4.9863,-5.3156,-5.6151,0.0,0.0,0.0,0.0,0.0,0.0,0.0,0.0,-5.9808,-6.071,-5.9966,-5.9429,-5.9429,-5.86,-5.8482,-5.9338,-5.9218,-5.8975,-5.8698,-5.8596,-5.8094,-5.7192,-5.8951,-5.9946,-6.0293,-6.2431,-6.3935,-6.491,-6.5264,-6.5384,-6.5384,-6.5384,-6.5183,-6.4961,-6.5683,-6.567,-6.5359,-6.5951,-6.6226,-6.6226,-6.608,-6.5688,-6.5159,-6.5059,-6.4583,-6.4007,-6.3456,-6.3071,-6.2458,-6.0596,-5.9305,-5.8298,-5.7441,-5.6738,-5.6321,-5.6605,-5.6663,-5.6752,-5.7092,-5.7211,-5.7211,-5.7211,-5.7211,-5.7211,-5.7211,-5.7211,-5.7323,-5.7777,-5.7819,-5.7947,-5.821,-5.8252,-5.82,-5.8137,-5.8094,-5.8638,-5.9918,-6.0035,-6.0262,-6.0781,-6.0819,-6.0743,-6.0558,-6.0591,-6.0553,-6.0437,-6.0437,-6.036,-6.0244,-6.0558,-6.0563,-6.0372,-6.0449,-6.0327,-5.7119,-5.5956,-5.3883,-5.5434,-5.4224,-5.2347,0.0,0.0,0.0,-4.9659,-5.0344,-5.0696,-4.8604,-4.9942,-5.1083,-5.0294,-5.3136,-5.5641,-5.6342,0.0,0.0,0.0,0.0,0.0,0.0,0.0,-5.8574,-5.8542,-5.8542,0.0,-5.8542,-5.8574,-5.9378,-6.119,-6.1227,-6.0786,-5.9886,-5.9879,-5.9418,-5.8533,-6.1273,-6.2535,-6.2662,-6.5511,-6.6817,-6.6849,-6.6849,-6.6849,0.0,-6.6881,-6.6881,-6.6881,-6.6881,-6.6881,-6.6834,-6.6596,-6.65,-6.6452,-6.6226,-6.6291,-6.6452,-6.6226,-6.6291,-6.6167,-6.4477,-6.2341,-6.0443,-6.0486,-5.9542,-5.8542,-5.8501,-5.8501,-5.8501,-5.8501,-5.8501,-5.8501,-5.8501,-5.8501,-5.8501,-5.8501,-5.8501,-5.8501,-5.8501,-5.8501,-5.8501,-5.8542,-5.8542,-5.8542,-5.8574,-5.8574,-5.8574,-5.8542,-5.8542,-5.9298,-6.1082,-6.1227,-6.1227,-6.1227,-6.1227,-6.1227,-6.1227,-6.1227,-6.1227,-6.1227,-6.1264,-6.1045,-6.0667,-6.1603,-6.168,-6.1069,-6.1322,-6.0983,-5.804,-5.7771,-5.6861,-5.6209,-5.5461,-5.4448,0.0,0.0,0.0,-5.1647,-5.191,-5.1809,-5.0166,-5.1344,-5.2433,-5.2013,-5.4588,-5.7361,-5.9502,0.0,0.0,0.0,0.0,0.0,0.0,0.0,-6.0536,-6.0416,-6.0449,-6.0449,-6.0449,-6.072,-6.1057,-6.1634,-6.1455,-6.1238,-6.0983,-6.0866,-6.0378,-5.949,-6.0291,-6.0833,-6.1154,-6.2331,-6.3391,-6.4341,-6.5835,-6.6453,0.0,-6.7565,-6.7737,-6.7474,-6.8225,-6.827,-6.8025,-6.8717,-6.897,-6.8926,-6.8838,-6.8405,-6.7842,-6.7783,-6.6537,-6.4905,-6.3853,-6.3077,-6.2313,-6.1296,-6.0705,-6.0262,-5.9649,-5.8983,-5.8615,-5.8975,-5.9048,-5.9129,-5.9378,-5.9458,-5.9458,-5.9458,-5.9458,-5.9458,-5.9458,-5.9458,-5.9617,-6.008,-6.0158,-6.0235,-6.0541,-6.0541,-6.0536,-6.0416,-6.0912,-6.1282,-6.1382,-6.1382,-6.1342,-6.1227,-6.1227,-6.1227,-6.1227,-6.1675,-6.1893,-6.1893,-6.2381,-6.2517,-6.2312,-6.2551,-6.2551,-6.2278,-6.2347,-6.2244,-5.9397,-5.9203,-5.8426,-5.75,-5.6606,-5.5488,-5.3726,0.0,0.0,-5.2783,-5.2781,-5.2542,-5.1704,-5.2836,-5.3872,-5.371,-5.6186,0.0,0.0,0.0,0.0,0.0,0.0,0.0,0.0,0.0,0.0,-6.1452,-6.1452,-6.1452,-6.1452,-6.167,-6.1814,-6.1814,-6.1673,-6.16,-6.16,-6.1525,-6.1198,-6.0645,-6.1205,-6.1624,-6.1888,-6.2833,-6.3666,-6.4476,-6.575,-6.6631,0.0,-6.8047,-6.8576,-6.8861,-6.9481,-6.9567,-6.9329,-6.9898,-7.0133,-7.0099,-7.0015,-6.9609,-6.909,-6.8401,-6.6547,-6.4443,-6.3975,-6.3335,-6.2585,-6.1718,-6.1452,-6.1342,-6.0758,-6.0235,-5.9892,-6.0229,-6.0268,-6.0345,-6.0607,-6.0645,-6.0645,-6.0645,-6.0645,-6.0687,-6.0838,-6.0725,-6.0838,-6.15,-6.1533,-6.1567,-6.1783,-6.1925,-6.1854,-6.1488,-6.2135,-6.238,-6.1997,-6.1962,-6.1997,-6.2138,-6.2101,-6.2171,-6.2312,-6.2652,-6.2818,-6.2818,-6.3211,-6.3339,-6.3213,-6.3469,-6.3532,-6.3405,-6.3405,-6.3405,-6.0923,-6.0607,-5.9397,-5.9091,-5.7718,-5.5983,-5.4134,0.0,0.0,-5.3585,-5.3591,-5.3591,-5.3591,0.0,0.0,0.0,0.0,-5.9771,0.0,0.0,0.0,0.0,0.0,0.0,0.0,0.0,0.0,0.0,-6.1814,-6.1814,-6.1814,-6.1814,-6.1814,-6.1814,-6.1814,-6.1814,-6.1814,-6.1814,-6.1814,-6.1814,-6.3121,-6.3758,-6.3829,-6.5275,-6.5913,-6.5951,-6.6253,-6.7126,0.0,-6.8637,-6.951,-7.0685,-7.0685,-7.0685,-7.0685,-7.0548,-7.0507,-7.0466,-7.0091,-7.0066,-7.0031,-6.8317,-6.6311,-6.4509,-6.4374,-6.3144,-6.1814,-6.1814,-6.1814,-6.1814,-6.1814,-6.1814,-6.1814,-6.1814,-6.1814,-6.185,-6.1888,-6.1885,-6.1885,-6.1888,-6.1921,-6.1994,-6.2379,-6.2135,-6.21,-6.2687,-6.2585,-6.2448,-6.2448,-6.2653,-6.2585,-6.2066,-6.2449,-6.2715,-6.2716,-6.2682,-6.2879,-6.3325,-6.3403,-6.3598,-6.3928,-6.3871,-6.384,-6.384,-6.3902,-6.3875,-6.3755,-6.4333,-6.4574,-6.4422,-6.4422,-6.4422,-6.1719,-6.3074,-6.3284,-6.0528,-5.9279,-5.8281,-5.6344,-5.5773,0.0,0.0,-5.7344,-5.7344,-5.7344,0.0,-5.8066,0.0,0.0,0.0,0.0,0.0,0.0,0.0,0.0,0.0,0.0,0.0,0.0,0.0,-6.1814,-6.1814,-6.1814,-6.1814,-6.1814,-6.1814,-6.1814,-6.1814,-6.1814,-6.1814,-6.1814,-6.1814,-6.2116,-6.2429,-6.2747,-6.3051,-6.3327,-6.3672,-6.6121,-6.7381,-6.782,-7.0204,-7.1361,-7.1633,-7.1633,-7.1633,-7.1633,-7.1594,-7.1589,-7.1385,-7.0119,-6.9712,-6.9475,-6.7873,-6.6071,-6.4306,-6.3191,-6.2369,-6.1814,-6.1814,-6.1814,-6.1814,-6.1814,-6.1814,-6.1814,-6.1814,-6.1814,-6.1959,-6.2483,-6.2414,-6.2344,-6.2551,-6.2551,-6.2619,-6.2687,-6.2619,-6.2619,-6.2754,-6.272,-6.2721,-6.2721,-6.2754,-6.2985,-6.3585,-6.2914,-6.237,-6.2064,-6.2034,-6.2034,-6.2004,-6.3181,-6.381,-6.381,-6.4269,-6.4504,-6.4504,-6.5016,-6.5217,-6.5087,-6.5225,-6.5233,-6.5095,-6.5095,-6.5095,-6.2063,-6.3363,-6.3506,-6.0952,-6.0025,-5.9076,-5.6437,0.0,0.0,0.0,0.0,-5.7412,-5.8348,0.0,0.0,0.0,0.0,0.0,0.0,0.0,0.0,0.0,0.0,0.0,0.0,0.0,0.0,0.0,-6.2451,-6.3001,-6.3393,-6.4105,-6.4511,-6.4511,-6.4511,-6.4173,-6.3393,-6.3638,-6.3299,-6.2276,-6.2517,-6.2619,-6.2585,-6.2821,-6.3053,-6.3253,-6.5062,-6.6712,-6.8197,-6.9503,-7.0977,-7.2282,-7.2016,-7.1936,-7.1936,-7.1936,-7.1458,-7.0669,-6.9847,-6.9097,-6.8178,-6.6273,-6.4903,-6.3811,-6.3094,-6.2585,-6.2276,-6.2276,-6.2276,-6.2276,-6.2276,-6.2276,-6.2276,-6.2276,-6.2276,-6.238,-6.272,-6.2687,-6.2619,-6.2754,-6.2787,-6.2854,-6.302,-6.2921,-6.2987,-6.3535,-6.3538,-6.3504,-6.3724,-6.4049,-6.417,-6.3912,-6.3329,-6.2497,-6.1463,-6.1366,-6.1683,-6.2513,-6.3234,-6.4065,-6.491,-6.5236,-6.5352,-6.5298,-6.5706,-6.5819,-6.561,-6.5663,-6.5339,-6.4629,-6.4629,-6.4361,-6.1643,-6.2627,-6.2608,-6.0781,-6.0305,-5.9428,-5.6283,-5.5349,0.0,0.0,0.0,-5.7331,-5.921,-6.0223,0.0,-6.2511,0.0,0.0,0.0,0.0,-6.35,0.0,0.0,0.0,0.0,0.0,0.0,0.0,0.0,-6.537,-6.5759,-6.7268,-6.7955,-6.7714,-6.7749,-6.7097,-6.5793,-6.6194,-6.5573,-6.3873,-6.4019,-6.3881,-6.3527,-6.3702,-6.3817,-6.3879,-6.4478,0.0,-6.9005,-6.8771,-7.0304,-7.2867,-7.2353,-7.2129,-7.2091,-7.1818,-7.0928,-6.9727,-6.9214,-6.8186,-6.6751,-6.4633,-6.3668,-6.3381,-6.3381,-6.3086,-6.2787,-6.2787,-6.2787,-6.2787,-6.2787,-6.2854,-6.2921,-6.2921,-6.3019,-6.3084,-6.3052,-6.3117,-6.3249,-6.3249,-6.3249,-6.3312,-6.3633,-6.3472,-6.3595,-6.4568,-6.4568,-6.4597,-6.4905,-6.564,-6.5539,-6.3908,-6.3513,-6.2628,-6.0804,-6.0674,-6.14,-6.3107,-6.3403,-6.43,-6.6162,-6.6161,-6.6037,-6.5936,-6.6037,-6.6037,-6.5886,-6.57,-6.5119,-6.4095,-6.3805,-6.3146,-5.9696,-6.1671,-6.3199,-5.9932,-6.0102,-6.0518,-5.8373,-5.7836,-5.8174,-5.9603,0.0,-6.1812,-6.3441,0.0,-6.5087,-7.0126,0.0,-6.9569,-7.058,-6.9617,-6.7805,-6.5073,-6.3504,-6.2653,-6.2653,-6.2653,-6.2653,-6.2653,-6.7333,-6.9665,-6.857,-6.9865,-7.0077,-6.885,-6.878,-6.8675,-6.85,-6.8564,-6.8459,-6.8186,-6.6754,-6.6212,-6.6458,-6.5159,-6.4777,-6.5165,-6.6466,-6.8086,-6.989,-7.0709,-7.2125,-7.3666,-7.3149,-7.2936,-7.2798,-7.1412,-7.0789,-7.0235,-6.7606,-6.6602,-6.615,-6.4511,-6.3668,-6.3381,-6.3381,-6.3086,-6.2787,-6.2787,-6.2787,-6.2787,-6.2787,-6.3117,-6.3472,-6.3472,-6.3967,-6.4387,-6.4014,-6.4504,-6.4982,-6.4982,-6.4982,-6.5011,-6.5039,-6.5127,-6.5183,-6.5353,-6.5563,-6.5681,-6.5732,-6.6541,-6.644,-6.4759,-6.336,-6.1823,-5.9982,-5.9816,-6.0399,-6.1796,-6.3117,-6.4568,-6.604,-6.6087,-6.6087,-6.6062,-6.6087,-6.6271,-6.6538,-6.5189,-6.4611,-6.4752,-6.3307,-6.2522,-6.0478,-6.1021,-6.1144,-5.9622,-5.9589,-5.9457,-5.7713,-5.7171,-5.7431,-5.894,-6.0657,0.0,0.0,0.0,0.0,0.0,0.0,0.0,-6.7704,-6.6854,-6.5656,0.0,-6.3629,0.0,-6.4449,-6.4709,-6.5248,0.0,-6.9734,-7.1544,-7.0905,-7.232,-7.2818,-7.2179,-7.2175,-7.2175,-7.2175,-7.1501,-7.0616,-6.9563,-6.9093,-6.8797,-6.8645,-6.7321,-6.6776,-6.6982,0.0,-6.9258,-7.0807,-7.1863,-7.3283,-7.4601,-7.311,-7.2532,-7.2356,-7.078,-6.9657,-6.8678,-6.7169,-6.6247,-6.5616,-6.4942,-6.4609,-6.4457,-6.4457,-6.4338,-6.4184,-6.4184,-6.4184,-6.4184,-6.4184,-6.4411,-6.4664,-6.4664,-6.5028,-6.5353,-6.5148,-6.5406,-6.5634,-6.5634,-6.5634,-6.5634,-6.5634,-6.5666,-6.5818,-6.6102,-6.6259,-6.6482,-6.6914,-6.7336,-6.6965,-6.5332,-6.37,-6.2013,-6.0163,-5.9177,-5.961,-6.1801,-6.2576,-6.3969,-6.6223,-6.6591,-6.6705,-6.6637,-6.6937,-6.6634,-6.567,-6.5054,-6.4008,-6.2536,-6.1746,-6.1053,-6.1144,-6.0731,-5.9971,-5.9139,-5.9024,-5.8772,-5.7557,-5.7073,-5.7321,-5.8878,-6.0766,-6.2821,0.0,0.0,0.0,-6.8999,-6.7734,0.0,-6.701,-6.6207,0.0,-6.4476,0.0,-6.5073,-6.6218,-6.6978,0.0,0.0,-7.2308,-7.3256,-7.3256,-7.4331,-7.5008,-7.5008,-7.5008,-7.5008,-7.5008,-7.4117,-7.2964,-7.1502,-7.1488,-7.1309,-7.086,-6.9625,-6.904,-6.9066,-6.9444,-7.0507,-7.1973,-7.2601,-7.3652,-7.4589,-7.2841,-7.1886,-7.1324,-6.9766,-6.8456,-6.7393,-6.6982,-6.6292,-6.5663,-6.5495,-6.5468,-6.5468,-6.5468,-6.5468,-6.5468,-6.5468,-6.5468,-6.5468,-6.5468,-6.5634,-6.5793,-6.5793,-6.6017,-6.6235,-6.6235,-6.6235,-6.6235,-6.6235,-6.6235,-6.6235,-6.6235,-6.6318,-6.6459,-6.6863,-6.6951,-6.7172,-6.7744,-6.7855,-6.7247,-6.5718,-6.4427,-6.2922,-6.1128,-5.9562,-5.97,-6.2202,-6.2406,-6.3571,-6.6129,-6.7015,-6.7413,-6.7332,-6.7283,-6.6584,-6.5223,-6.4466,-6.2976,-6.0883,-6.0512,-5.9834,-6.0514,-6.0902,-6.1338,-5.8236,-5.8543,-5.9588,-5.9366,-5.9303,-5.9773,-6.1303,-6.2605,-6.3961,0.0,0.0,-6.7294,-7.3144,-7.2759,-7.2233,-7.3717,-7.2626,-7.0542,0.0,0.0,0.0,0.0,0.0,0.0,-7.5366,0.0,-7.5808,-7.5808,-7.588,-7.5952,-7.5952,-7.5952,-7.5952,-7.5952,-7.5871,-7.5772,-7.5663,-7.4211,-7.3525,-7.3426,-7.1901,-7.1179,-7.1204,-7.1204,-7.2132,-7.3525,-7.3067,-7.2972,-7.2987,-7.2349,-7.1183,-6.9701,-6.8137,-6.7535,-6.7357,-6.687,-6.6663,-6.6508,-6.6053,-6.5858,-6.5858,-6.5858,-6.5858,-6.5858,-6.5858,-6.5858,-6.5858,-6.5858,-6.6259,-6.6614,-6.6614,-6.6907,-6.7181,-6.7181,-6.7181,-6.7181,-6.7181,-6.7181,-6.7181,-6.7181,-6.7385,-6.7583,-6.7583,-6.7723,-6.7818,-6.7855,-6.7855,-6.7302,-6.5842,-6.5601,-6.4828,-6.299,-6.1512,-6.1306,-6.2664,-6.2982,-6.3839,-6.547,-6.711,-6.7978,-6.7978,-6.6445,-6.576,-6.6028,-6.2799,-6.1357,-6.1544,-6.003,-5.9339,-5.9955,-5.9398,-5.8781,-5.7619,-5.7896,-5.8351,-5.8054,-5.8834,-5.9728,-6.0198,-6.2831,-6.5328,-6.6138,-6.677,-6.8017,-7.0521,-6.9356,-6.8309,-6.8852,-6.8237,-6.7677,-6.7592,-6.7835,-6.8846,0.0,0.0,0.0,-7.6381,-7.6516,-7.6516,-7.6516,-7.6516,-7.6516,-7.6516,-7.6516,-7.6516,-7.6516,-7.6516,-7.6516,-7.6479,-7.5934,-7.5679,-7.5606,-7.4067,-7.3339,-7.3339,-7.3339,-7.3667,-7.4152,-7.3944,-7.3894,-7.3687,-7.1376,-7.0145,-6.9459,-6.7894,-6.7339,-6.7314,-6.7125,-6.7053,-6.7031,-6.6827,-6.6782,-6.6782,-6.6782,-6.6782,-6.6782,-6.6782,-6.6782,-6.6782,-6.6782,-6.7038,-6.7302,-6.7302,-6.747,-6.7647,-6.7647,-6.7647,-6.7647,-6.7647,-6.7647,-6.7647,-6.7647,-6.7705,-6.7762,-6.7762,-6.6385,-6.5255,-6.513,-6.6051,-6.6114,-6.449,-6.4305,-6.371,-6.2102,-6.0599,-6.0276,-6.1581,-6.277,-6.4111,-6.5575,-6.7507,-6.8015,-6.6919,-6.6577,-6.5355,-6.3339,-6.2049,-6.0975,-6.011,-5.9557,-5.9295,-5.981,0.0,-5.8133,-5.7587,-5.7626,-5.7862,-5.8091,-5.8998,-5.9946,-6.0323,-6.271,-6.4926,-6.5663,-6.6499,-6.7377,-6.8276,-6.7172,-6.6439,-6.704,-6.6912,-6.7307,-6.8952,-6.9858,0.0,0.0,0.0,0.0,-7.6736,-7.6809,-7.6809,-7.6809,-7.6809,-7.6809,-7.6809,-7.6809,-7.6809,-7.6809,-7.6809,-7.6809,-7.6809,-7.6809,-7.6809,-7.6736,-7.5714,-7.5203,-7.5203,-7.4692,-7.4728,-7.513,-7.4085,-7.3624,-7.3391,-7.0668,-6.9246,-6.8683,-6.7625,-6.7328,-6.745,-6.745,-6.745,-6.745,-6.745,-6.745,-6.745,-6.745,-6.745,-6.745,-6.745,-6.745,-6.745,-6.745,-6.7586,-6.7704,-6.7704,-6.7799,-6.7855,-6.7855,-6.7855,-6.7855,-6.7855,-6.7855,-6.7855,-6.7855,-6.7946,-6.783,-6.7295,-6.5759,-6.4458,-6.3766,-6.4687,-6.4928,-6.381,-6.3698,-6.3337,-6.2408,-6.0924,-6.0398,-6.124,-6.2975,-6.4353,-6.5267,-6.7163,-6.77,-6.6562,-6.5702,-6.4196,-6.1937,-6.13,-6.0445,-5.9411,-5.9411,-5.9438,0.0,0.0,-5.9614,-5.81,-5.7841,-5.8276,-5.9651,-5.9996,-6.0469,-6.1835,-6.2264,-6.2818,-6.4218,-6.4562,-6.5232,-6.6895,-6.698,-6.7424,-6.9267,-6.9405,-6.9979,-7.183,-7.3364,-7.435,0.0,-7.4473,-7.513,-7.6663,-7.6773,-7.6773,-7.6773,-7.6773,-7.6773,-7.6773,-7.6773,-7.6773,-7.6773,-7.6773,-7.6773,-7.6773,-7.6773,-7.6773,-7.6773,-7.6773,-7.6773,-7.67,-7.5203,-7.5385,-7.6554,-7.3355,-7.2041,-7.1976,-7.0275,-6.8668,-6.7302,-6.7412,-6.762,-6.7929,-6.7929,-6.7892,-6.7855,-6.7855,-6.7855,-6.7855,-6.7855,-6.7855,-6.7855,-6.7855,-6.7819,-6.7874,-6.7855,-6.7819,-6.7874,-6.7874,-6.7874,-6.7837,-6.7855,-6.7892,-6.7855,-6.7855,-6.7855,-6.7855,-6.7855,-6.811,-6.7807,-6.6126,-6.6057,-6.5618,-6.404,-6.3826,-6.38,-6.3828,-6.3876,-6.3935,-6.3996,-6.275,-6.1909,-6.1837,-6.3643,-6.4674,-6.4611,-6.6189,-6.705,-6.7012,-6.3841,-6.2187,-6.2111,-6.0457,-5.9671,-5.9671,-5.9671,-5.969,-5.8373,0.0,0.0,-5.7568,-5.7608,-5.7808,-5.7943,-5.8906,-5.9893,-6.0305,-6.1399,-6.2405,-6.2887,-6.302,-6.3571,-6.5159,-6.5374,-6.59,-6.7662,-6.7874,-6.8458,-7.0107,-7.0654,-7.2014,-7.4741,-7.502,-7.566,-7.724,-7.7328,-7.7328,-7.7328,-7.7328,-7.7328,-7.7328,-7.7328,-7.7328,-7.7328,-7.7328,-7.7328,-7.7328,-7.7328,-7.7328,-7.7328,-7.7328,-7.7328,-7.7328,-7.6909,-7.6924,-7.7203,-7.5145,-7.3623,-7.241,-7.0793,-6.9119,-6.7943,-7.0315,-7.0541,-6.966,-6.966,-6.885,-6.7855,-6.7855,-6.7855,-6.7855,-6.7855,-6.7855,-6.7855,-6.7855,-6.7964,-6.8069,-6.791,-6.7964,-6.812,-6.812,-6.8184,-6.8293,-6.8477,-6.8533,-6.8528,-6.8528,-6.8528,-6.8528,-6.8528,-6.7623,-6.6727,-6.6241,-6.4553,-6.2769,-6.1202,-6.0815,-6.0744,-6.0844,-6.1863,-6.2139,-6.1115,-6.0682,-6.0947,-6.218,-6.3899,-6.5376,-6.6462,-6.6948,-6.6683,-6.551,-6.3344,-6.1617,-6.0389,-5.9899,-5.9687,-5.9664,-5.9664,-5.9688,-5.5495,0.0,0.0,0.0,-5.5549,-5.5802,-5.6221,-5.7095,-5.7969,-5.8582,-5.9566,-6.0537,-6.1273,-6.1459,-6.2066,0.0,-6.4499,-6.5523,-6.727,-6.8016,-6.902,-7.0714,-7.0311,-7.1022,-7.3897,-7.4801,-7.5849,-7.7449,-7.7559,-7.7559,-7.7559,-7.7559,-7.7559,-7.7559,-7.7669,-7.7669,-7.7559,-7.7773,-7.7832,-7.7693,-7.7832,-7.791,-7.7891,-7.7753,-7.7693,-7.7693,-7.6943,-7.6933,-7.7375,-7.5112,-7.3991,-7.3585,-7.2001,-7.0729,-7.0029,-7.1264,-7.1153,-7.0269,-6.955,-6.8666,-6.7855,-6.7855,-6.7855,-6.7855,-6.7855,-6.7413,-6.6952,-6.6952,-6.7138,-6.7275,-6.713,-6.7789,-6.8484,-6.8484,-6.8556,-6.8616,-6.8786,-6.8798,-6.8809,-6.8809,-6.8247,-6.7748,-6.7748,-6.6488,-6.5748,-6.662,-6.4807,-6.2761,-6.1132,-6.1411,-6.152,-6.0881,-6.1638,-6.1549,-6.0014,-6.0499,-6.1023,-6.1326,-6.3592,-6.5023,-6.5213,-6.5199,-6.4791,-6.3911,-6.2135,-6.0749,-5.9742,-5.9762,-5.9736,-5.9768,-5.9768,-6.0095,-5.2157,0.0,0.0,-5.2117,-5.231,-5.2901,0.0,0.0,-5.5239,-5.6531,-5.7133,-5.7862,-5.925,-5.9779,-6.0616,-6.2372,-6.3938,-6.5517,-6.7321,-6.8845,-7.0275,-7.176,-7.1025,-7.0988,-7.2573,-7.4252,-7.589,-7.7491,-7.7602,-7.7623,-7.7627,-7.7627,-7.7669,-7.771,-7.7911,-7.7911,-7.7669,-7.8131,-7.8236,-7.8005,-7.8236,-7.8354,-7.8338,-7.8115,-7.7987,-7.7856,-7.6236,-7.6296,-7.7338,-7.4449,-7.4027,-7.5059,-7.3585,-7.3128,-7.3207,-7.1803,-7.1065,-7.0529,-6.9016,-6.8223,-6.791,-6.791,-6.7892,-6.7892,-6.7892,-6.6875,-6.578,-6.5981,-6.608,-6.6196,-6.6356,-6.765,-6.8844,-6.8844,-6.8856,-6.8905,-6.889,-6.8939,-6.8913,-6.8913,-6.77,-6.6686,-6.6686,-6.5561,-6.5265,-6.6935,-6.5898,-6.4381,-6.2902,-6.4005,-6.4347,-6.2826,-6.2675,-6.2072,-6.0555,-6.1803,-6.2034,-6.0526,-6.3257,-6.4243,-6.2729,-6.2485,-6.2385,-6.2384,-6.071,-5.9963,-6.0135,-6.0135,-6.0213,-6.0401,-6.0249,-6.0769,0.0,0.0,0.0,0.0,0.0,0.0,0.0,0.0,-5.3009,-5.3498,-5.4711,-5.5782,-5.611,-5.7465,-5.9027,-6.0542,-6.2265,-6.3972,-6.5719,-6.7266,-6.7947,-6.7153,-6.9107,-7.1193,-7.2857,-7.4465,-7.6092,-7.7753,-7.7864,-7.7984,-7.8167,-7.8184,-7.8284,-7.8479,-7.8539,-7.8479,-7.8329,-7.8424,-7.843,-7.827,-7.8321,-7.8354,-7.8354,-7.8287,-7.8149,-7.7949,-7.7596,-7.7495,-7.7486,-7.686,-7.607,-7.517,-7.4875,-7.5909,-7.7537,-7.72,-7.5442,-7.3118,-7.2567,-7.0671,-6.8415,-6.8211,-6.8162,-6.8162,-6.8162,-6.7163,-6.6289,-6.7658,-6.7337,-6.6847,-6.7986,-6.8703,-6.9133,-6.9133,-6.9204,-6.9326,-6.9558,-6.9594,-6.9598,-6.9598,-6.9352,-6.9106,-6.9106,-6.7826,-6.6505,-6.5553,-6.5139,-6.4805,-6.4477,-6.4746,-6.4825,-6.4492,-6.4454,-6.4302,-6.3961,-6.4256,-6.4307,-6.3958,-6.4561,-6.472,-6.4314,-6.2947,-6.2226,-6.2226,-6.0555,-6.0396,-6.177,-6.177,-6.247,-6.3747,-6.2501,-6.1234,0.0,0.0,0.0,0.0,0.0,0.0,0.0,0.0,0.0,0.0,0.0,-5.4594,0.0,0.0,-5.7944,-6.1261,-6.1814,-6.2403,-6.413,-6.5753,-6.6489,-6.578,-6.9326,-7.2173,-7.3023,-7.528,-7.7019,-7.7887,-7.7961,-7.8021,-7.8153,-7.8134,-7.8273,-7.8517,-7.8672,-7.8677,-7.8634,-7.889,-7.8902,-7.8729,-7.8875,-7.8927,-7.8927,-7.8784,-7.8657,-7.8539,-7.8377,-7.8246,-7.8147,-7.8147,-7.7681,-7.6954,-7.6954,-7.7176,-7.7345,-7.6571,-7.4734,-7.2459,-7.1504,-7.0067,-6.8694,-6.8542,-6.8536,-6.8536,-6.8536,-6.7469,-6.6441,-6.7314,-6.7218,-6.7026,-6.7745,-6.872,-6.9505,-6.9505,-6.955,-6.9642,-6.9773,-6.9854,-6.9878,-6.9878,-6.9205,-6.8607,-6.8607,-6.8612,-6.8337,-6.7464,-6.735,-6.7045,-6.6281,-6.6926,-6.6813,-6.5107,-6.564,-6.5756,-6.4921,-6.4845,-6.5186,-6.6017,-6.6094,-6.5674,-6.4787,-6.3916,-6.3455,-6.3478,-6.1813,-6.1335,-6.221,-6.1348,-6.135,-6.2216,-6.2217,-6.1622,0.0,0.0,0.0,0.0,0.0,0.0,0.0,0.0,0.0,0.0,0.0,0.0,0.0,0.0,0.0,-6.1219,-6.1503,-6.1549,-6.259,-6.4211,-6.537,-6.5678,-6.982,-7.2689,-7.2671,-7.5355,-7.7245,-7.7578,-7.7653,-7.7837,-7.8224,-7.8261,-7.8358,-7.8628,-7.8848,-7.8953,-7.8915,-7.9309,-7.9433,-7.9203,0.0,0.0,-7.9518,-7.9305,-7.9144,-7.9098,-7.8915,-7.8749,-7.8709,-7.8709,-7.8709,-7.8685,-7.8515,-7.7624,-7.6233,-7.4651,-7.2985,-7.1335,-6.9885,-6.9198,-6.8935,-6.8917,-6.8868,-6.8879,-6.8879,-6.7829,0.0,-6.6981,-6.7107,-6.722,-6.756,-6.8733,-6.9816,-6.9816,-6.9831,-6.9807,-6.9807,-6.99,-6.9988,-6.9988,-6.8866,-6.7894,-6.7894,-6.8945,-6.9654,-6.9326,-6.9546,-6.9169,-6.7602,-6.8859,-6.8858,-6.612,-6.695,-6.7166,-6.577,-6.5325,-6.5708,-6.7147,-6.6898,-6.6143,-6.5047,-6.5019,-6.4849,-6.4564,-6.3185,-6.2412,-6.2166,-6.0779,-6.0283,-6.0603,-6.098,-6.0788,0.0,0.0,0.0,0.0,0.0,0.0,0.0,0.0,0.0,0.0,0.0,0.0,0.0,0.0,0.0,0.0,-6.0264,-6.2597,-6.1287,-6.2663,-6.4312,-6.5717,-6.9036,-7.1164,-7.1194,-7.3014,-7.4787,-7.6258,-7.6616,-7.7499,-7.923,0.0,0.0,0.0,0.0,-7.9697,-7.9596,-7.962,-7.9588,-7.9452,-7.9471,-7.9518,-7.9518,-7.9461,-7.9336,-7.911,-7.9086,-7.8953,-7.8709,-7.8709,-7.8709,-7.8663,-7.7816,-7.7407,-7.7016,-7.5341,-7.3652,-7.212,-7.1727,0.0,0.0,-6.9261,-6.9146,-6.9148,-6.9148,-6.8142,-6.7326,-6.8801,-6.8328,-6.7769,-6.9247,-6.982,-6.9942,-6.9942,-6.9942,-6.9947,-6.9947,-6.9947,-6.9988,-6.9988,-6.9708,-6.9509,-6.9509,-6.9573,-6.9149,-6.7757,-6.8711,-6.9048,-6.747,-6.8642,-6.9511,-6.909,0.0,0.0,-6.9082,-6.7462,-6.6705,-6.7217,-6.5531,-6.491,-6.591,-6.5936,-6.5288,-6.3893,-6.368,-6.3082,-6.2029,-6.184,-6.2457,-6.3706,-5.983,-5.6607,0.0,0.0,0.0,0.0,0.0,0.0,0.0,0.0,0.0,0.0,0.0,0.0,0.0,0.0,0.0,0.0,-5.8996,-5.8862,-5.8313,-6.2214,-6.508,-6.4892,-6.8603,-7.1249,-7.1384,-7.2909,-7.4197,-7.4909,-7.4128,-7.3991,-7.4848,-7.581,-7.647,-7.6739,-7.8645,-7.9719,-7.9829,-7.9829,-7.9778,-7.9742,-7.9742,-7.9742,-7.9742,-7.9742,-7.9674,-7.955,-7.955,-7.9516,-7.9386,-7.9386,-7.9386,0.0,0.0,0.0,0.0,0.0,-7.236,-7.0939,-7.0833,-7.0363,-6.9789,-6.9699,-6.9648,-6.9661,-6.9635,-6.9221,-6.8916,-6.9589,-6.939,-6.9075,-6.9711,-6.9862,-6.9862,-6.9947,-6.9996,-6.9966,-6.9966,-6.9973,-6.9983,-6.9983,-6.9883,0.0,-6.7074,-6.6695,-6.6414,-6.5797,-6.6206,-6.6754,-6.7111,-6.7723,-6.8127,-6.811,-6.8936,-6.8721,-6.6821,-6.7662,0.0,0.0,0.0,-6.7443,-6.8017,-6.8007,0.0,0.0,0.0,0.0,0.0,0.0,0.0,0.0,-5.5397,-5.4623,0.0,0.0,0.0,0.0,0.0,0.0,0.0,0.0,0.0,0.0,0.0,0.0,0.0,0.0,0.0,0.0,0.0,-5.6855,-5.7077,-6.1258,-6.4283,-6.4164,-6.722,-6.9419,-6.9647,-7.0749,-7.1635,-7.2078,-7.1482,-7.1311,-7.1735,-7.3367,-7.4332,-7.4545,-7.6943,-7.8309,-7.8491,-7.8951,-7.9178,-7.9216,-7.9671,-7.9898,-7.9898,-7.9886,-7.9886,-7.9886,-7.942,-7.9187,-7.9155,-7.8706,-7.8517,-7.822,-7.5274,-7.4155,-7.3969,-7.2297,-7.094,-6.9966,-6.9996,-6.9958,-6.9966,-6.9966,-6.9966,-6.9966,-6.9977,-6.998,-6.9977,-6.997,-6.9966,-6.9962,-6.9879,-6.9386,-6.8984,-6.9196,-6.925,-6.9226,-6.9234,-6.924,-6.9243,-6.9243,-6.9473,-6.8886,-6.6381,-6.5842,-6.5654,-6.5255,-6.5541,0.0,-6.6834,-6.6964,-6.7144,-6.7601,-6.7856,-6.7367,-6.5946,-6.7078,-6.7577,-6.6973,-6.7967,-6.8559,-6.8619,-6.85,-6.8109,-6.7432,-6.1353,-5.7702,0.0,0.0,0.0,0.0,0.0,0.0,0.0,0.0,0.0,0.0,0.0,0.0,0.0,0.0,0.0,0.0,0.0,0.0,0.0,0.0,0.0,0.0,0.0,0.0,-5.9017,-5.9186,-6.0492,-6.3771,-6.4291,-6.4372,-6.4391,-6.4648,-6.5518,-6.7151,-6.8972,-7.0696,-7.2213,-7.3876,-7.4824,-7.4828,-7.4942,-7.498,-7.4984,-7.6619,-7.7453,-7.7453,-7.9121,-7.9875,-7.9875,-7.9893,-7.9882,-7.9806,-7.8144,-7.7451,-7.7337,-7.566,-7.4989,-7.4799,-7.3084,-7.2461,-7.2359,-7.0675,-7.0011,-6.9996,-6.9977,-6.9983,-6.996,-6.996,-6.996,-6.996,-6.9963,-6.9963,-6.9963,-6.996,-6.996,-6.996,-6.996,-6.8382,-6.6883,-6.7275,-6.7348,-6.7337,-6.7331,-6.7318,-6.7318,-6.7318,-6.8464,-6.9408,-6.9442,-6.9215,-6.8538,-6.7006,-6.8107,0.0,-6.6897,-6.6695,-6.7306,-6.8945,-6.6245,-6.5607,-6.8795,-6.5917,-6.4732,-6.6578,-6.6503,-6.6502,-6.6739,-6.6284,-6.675,-6.8365,-6.4716,-5.8956,-5.1198,0.0,0.0,0.0,0.0,0.0,0.0,0.0,0.0,0.0,0.0,0.0,0.0,0.0,0.0,0.0,0.0,0.0,0.0,0.0,0.0,0.0,0.0,0.0,0.0,0.0,-5.9617,-6.1022,-6.3084,-6.4467,-6.4665,-6.4753,-6.5022,-6.5601,-6.5201,-6.5169,-6.5738,-6.8393,-6.9942,-6.9924,-7.3113,-7.485,-7.4833,-7.5401,-7.5709,-7.5709,-7.6273,-7.6539,-7.6539,-7.6534,-7.6567,-7.6491,-7.5951,-7.5681,-7.5643,-7.5084,-7.2899,-6.9886,-6.9335,-6.8927,-6.8589,-6.7979,-6.8703,-6.9963,-6.9993,-6.9996,-6.9963,-6.9963,-6.9963,-6.9963,-6.9963,-6.9963,-6.9963,-6.9963,-6.9963,-6.9963,-6.9963,-6.9399,-6.8888,-6.8943,-6.888,-6.8804,-6.8821,-6.8817,-6.8817,-6.8817,-6.5313,-6.2633,-6.3619,-6.3994,-6.425,-6.4533,-6.5278,-6.559,-6.4845,-6.5652,-6.601,-6.5312,-6.5106,-6.5092,-6.5203,-6.504,-6.5196,-6.5843,-6.6866,-6.6511,-6.4442,-6.5196,-6.3398,-5.8597,-5.9314,-5.5618,-4.7209,0.0,0.0,0.0,0.0,0.0,0.0,0.0,0.0,0.0,0.0,0.0,0.0,0.0,0.0,0.0,0.0,0.0,0.0,0.0,0.0,0.0,0.0,0.0,0.0,0.0,0.0,-5.9631,-6.1112,0.0,-6.2252,-6.1717,-6.1373,-6.1376,-6.0954,-6.1178,-6.2352,-6.4474,-6.621,-6.7413,-6.9952,-7.1573,-7.2203,-7.281,-7.3493,-7.4289,-7.471,-7.5127,-7.5465,-7.5452,-7.5225,-7.4808,-7.4193,-7.3961,-7.3814,-7.2044,-6.9386,-6.6421,-6.5817,-6.5481,-6.5257,-6.4458,-6.5888,-6.799,-6.6776,-6.6397,-6.6397,-6.6397,-6.6397,-6.6397,-6.6397,-6.6397,-6.6397,-6.6397,-6.6397,-6.6928,-6.9356,-6.9049,-6.8184,-6.8446,-6.8152,-6.7923,-6.8438,-6.8014,-6.7539,-6.7611,-6.3378,-6.0176,-6.1572,-6.1964,-6.2336,-6.3079,-6.3829,-6.431,-6.42,-6.4562,-6.4802,-6.4732,-6.4533,-6.4462,-6.4683,-6.5052,-6.5586,-6.6213,-6.6728,-6.6061,-6.3969,-6.2692,-5.983,-5.508,-5.4034,-5.1311,0.0,0.0,0.0,0.0,0.0,0.0,0.0,0.0,0.0,0.0,0.0,0.0,0.0,0.0,0.0,0.0,0.0,0.0,0.0,0.0,0.0,0.0,0.0,0.0,0.0,0.0,0.0,-5.9218,-5.8058,0.0,0.0,0.0,0.0,-5.4858,-5.6375,-5.8651,-6.1837,-6.2018,-6.3571,-6.695,-6.5534,-6.5527,-6.7313,-6.8942,-7.0763,-7.289,-7.4067,-7.5129,-7.611,-7.62,-7.5662,-7.4494,-7.2764,-7.2036,-7.1657,-6.6806,-6.461,-6.4195,-6.2564,-6.2098,-6.1993,-5.9728,-6.1125,-6.3743,-6.09,-5.9876,-5.9838,-5.9496,-5.9382,-5.9382,-5.9382,-5.9351,0.0,0.0,-5.9318,-6.133,-6.7779,-6.7219,-6.5213,-6.6218,-6.5492,-6.497,-6.6326,-6.5129,-6.3773,0.0,-6.2368,-6.1605,-6.2804,0.0,-6.2606,-6.2573,-6.3663,-6.4559,-6.4745,-6.3553,-6.3827,-6.6831,-6.4355,-6.3787,-6.6977,-6.5802,-6.5602,-6.7334,-6.5921,-6.4893,-6.4599,-5.8933,-5.6221,-5.7068,-4.9263,0.0,0.0,0.0,0.0,0.0,0.0,0.0,0.0,0.0,0.0,0.0,0.0,0.0,0.0,0.0,0.0,0.0,0.0,0.0,0.0,0.0,0.0,0.0,0.0,0.0,0.0,-4.6766,-4.9019,-5.3741,-5.2744,-5.1726,0.0,0.0,0.0,0.0,0.0,0.0,-5.6795,-5.6907,-5.8461,-6.1838,-6.1532,-6.2706,-6.5551,-6.6005,-6.6495,-6.7094,-6.8237,-6.8954,-6.9245,-7.0906,-7.151,-7.1096,-6.9044,-6.8093,-6.7833,-6.435,-6.1385,-5.9018,-5.8519,-5.5932,-5.2197,-4.9198,-5.0511,-5.4402,-5.8578,-6.0021,-5.9186,-5.4136,-5.2465,-5.2465,-5.2465,0.0,0.0,0.0,0.0,-5.9987,-6.1706,-6.5192,-6.8272,-6.8526,-6.7029,-6.5633,-6.6021,-6.5033,-6.2711,0.0,-5.6666,-5.59,-5.5144,0.0,0.0,0.0,0.0,-6.1573,-6.2503,-6.3356,-6.3673,-6.3016,-6.3238,-6.3743,-6.4655,-6.4307,-6.4271,-6.4737,-6.4339,-6.2011,-5.7371,-5.664,-5.369,-4.7994,0.0,0.0,0.0,0.0,0.0,0.0,0.0,0.0,0.0,0.0,0.0,0.0,0.0,0.0,0.0,0.0,0.0,0.0,0.0,0.0,0.0,0.0,0.0,0.0,0.0,0.0,0.0,-4.2233,-4.4953,-4.8632,-4.757,-4.685,0.0,0.0,0.0,0.0,0.0,0.0,0.0,0.0,0.0,-5.7707,-5.6302,-5.7099,-6.0479,-5.9983,-6.0212,-6.12,-6.2933,-6.4554,-6.596,-6.721,-6.8576,-6.9869,-6.7625,-6.5578,-6.3534,-6.0287,-5.7317,-5.4533,0.0,0.0,0.0,0.0,-4.1505,-4.19,-4.8695,-5.5023,-5.9454,-5.562,0.0,0.0,0.0,0.0,0.0,0.0,0.0,0.0,0.0,0.0,-6.5793,-6.8688,-6.7196,-6.513,-6.5074,-6.3357,-6.0834,0.0,-5.3908,-5.1691,-5.2258,0.0,0.0,0.0,0.0,-5.7809,-5.7958,-6.0806,-6.2616,-6.2174,-6.3617,-6.4597,-6.4522,-6.3928,-6.3584,-6.3657,-6.1745,-5.8894,-5.5098,-5.3749,-5.0422,0.0,0.0,0.0,0.0,0.0,0.0,0.0,0.0,0.0,0.0,0.0,0.0,0.0,0.0,0.0,0.0,0.0,0.0,0.0,0.0,0.0,0.0,0.0,0.0,0.0,0.0,0.0,0.0,0.0,-4.2217,-4.4034,0.0,0.0,0.0,0.0,0.0,0.0,0.0,0.0,0.0,0.0,0.0,0.0,0.0,-5.0631,-5.2794,-5.27,-5.4071,-5.686,-5.903,-6.1561,-6.4268,-6.4268,-6.5901,-6.8558,-6.6164,0.0,-5.911,-5.5069,0.0,0.0,0.0,0.0,0.0,0.0,0.0,0.0,0.0,0.0,0.0,0.0,0.0,0.0,0.0,0.0,0.0,0.0,0.0,0.0,0.0,0.0,-6.068,-6.5575,-6.505,-6.287,0.0,-5.7959,-5.5898,-5.5988,-5.0887,0.0,0.0,0.0,0.0,0.0,0.0,0.0,-5.2789,-5.7287,-6.108,-6.2514,-6.4463,-6.561,-6.5477,-6.416,-6.3289,-6.3199,-5.89,-5.5854,-5.4705,-5.0897,0.0,0.0,0.0,0.0,0.0,0.0,0.0,0.0,0.0,0.0,0.0,0.0,0.0,0.0,0.0,0.0,0.0,0.0,0.0,0.0,0.0,0.0,0.0,0.0,0.0,0.0,0.0,0.0,0.0,0.0,0.0,0.0,0.0,0.0,0.0,0.0,0.0,0.0,0.0,0.0,0.0,0.0,0.0,0.0,0.0,0.0,0.0,0.0,0.0,0.0,-5.9833,-6.0364,-6.0935,-6.0935,-6.1238,-6.1618,-5.8429,-5.6605,-5.5384,-4.8727,0.0,0.0,0.0,0.0,0.0,0.0,0.0,0.0,0.0,0.0,0.0,0.0,0.0,0.0,0.0,0.0,0.0,0.0,0.0,0.0,0.0,0.0,0.0,0.0,-5.6425,-5.6462,-4.3627,0.0,0.0,0.0,0.0,0.0,0.0,0.0,0.0,0.0,0.0,0.0,-5.0511,-5.5457,-5.9347,-6.0873,-6.364,-6.5378,-6.5378,-6.395,-6.2572,-6.1358,-5.7592,-5.3693,0.0,0.0,0.0,0.0,0.0,0.0,0.0,0.0,0.0,0.0,0.0,0.0,0.0,0.0,0.0,0.0,0.0,0.0,0.0,0.0,0.0,0.0,0.0,0.0,0.0,0.0,0.0,0.0,0.0,0.0,0.0,0.0,0.0,0.0,0.0,0.0,0.0,0.0,0.0,0.0,0.0,0.0,0.0,0.0,0.0,0.0,0.0,0.0,0.0,0.0,0.0,0.0,0.0,0.0,0.0,0.0,0.0,0.0,0.0,-5.1869,0.0,0.0,0.0,0.0,0.0,0.0,0.0,0.0,0.0,0.0,0.0,0.0,0.0,0.0,0.0,0.0,0.0,0.0,0.0,0.0,0.0,0.0,0.0,0.0,0.0,0.0,0.0,0.0,0.0,0.0,0.0,0.0,0.0,0.0,0.0,0.0,0.0,0.0,0.0,0.0,-4.619,-5.3995,-5.9375,-5.9228,-6.2869,-6.4977,-6.4046,-6.2328,-6.0308,-5.7972,-5.4258,0.0,0.0,0.0,0.0,0.0,0.0,0.0,0.0,0.0,0.0,0.0,0.0,0.0,0.0,0.0,0.0,0.0,0.0,0.0,0.0,0.0,0.0,0.0,0.0,0.0,0.0,0.0,0.0,0.0,0.0,0.0,0.0,0.0,0.0,0.0,0.0,0.0,0.0,0.0,0.0,0.0,0.0,0.0,0.0,0.0,0.0,0.0,0.0,0.0,0.0,0.0,0.0,0.0,0.0,0.0,0.0,0.0,0.0,0.0,-4.6468,0.0,0.0,0.0,0.0,0.0,0.0,0.0,0.0,0.0,0.0,0.0,0.0,0.0,0.0,0.0,0.0,0.0,0.0,0.0,0.0,0.0,0.0,0.0,0.0,0.0,0.0,0.0,0.0,0.0,0.0,0.0,0.0,0.0,0.0,0.0,0.0,0.0,0.0,0.0,0.0,0.0,-4.2154,-5.222,-5.8857,-5.7375,-6.1766,-6.4009,-6.2062,-6.0354,-5.79,-5.4523,-5.0735,0.0,0.0,0.0,0.0,0.0,0.0,0.0,0.0,0.0,0.0,0.0,0.0,0.0,0.0,0.0,0.0,0.0,0.0,0.0,0.0,0.0,0.0,0.0,0.0,0.0,0.0,0.0,0.0,0.0,0.0,0.0,0.0,0.0,0.0,0.0,0.0,0.0,0.0,0.0,0.0,0.0,0.0,0.0,0.0,0.0,0.0,0.0,0.0,0.0,0.0,0.0,0.0,0.0,0.0,0.0,0.0,0.0,0.0,0.0,0.0,0.0,0.0,0.0,0.0,0.0,0.0,0.0,0.0,0.0,0.0,0.0,0.0,0.0,0.0,0.0,0.0,0.0,0.0,0.0,0.0,0.0,0.0,0.0,0.0,0.0,0.0,0.0,0.0,0.0,0.0,0.0,0.0,0.0,0.0,0.0,0.0,0.0,0.0,0.0,0.0,0.0,-4.023,-4.9611,-5.59,-5.5039,-5.9798,-6.1919,-5.9134,-5.8631,-5.6609,-5.2282,0.0,0.0,0.0,0.0,0.0,0.0,0.0,0.0,0.0,0.0,0.0,0.0,0.0,0.0,0.0,0.0,0.0,0.0,0.0,0.0,0.0,0.0,0.0,0.0,0.0,0.0,0.0,0.0,0.0,0.0,0.0,0.0,0.0,0.0,0.0,0.0,0.0,0.0,0.0,0.0,0.0,0.0,0.0,0.0,0.0,0.0,0.0,0.0,0.0,0.0,0.0,0.0,0.0,0.0,0.0,0.0,0.0,0.0,0.0,0.0,0.0,0.0,0.0,0.0,0.0,0.0,0.0,0.0,0.0,0.0,0.0,0.0,0.0,0.0,0.0,0.0,0.0,0.0,0.0,0.0,0.0,0.0,0.0,0.0,0.0,0.0,0.0,0.0,0.0,0.0,0.0,0.0,0.0,0.0,0.0,0.0,0.0,0.0,0.0,0.0,0.0,0.0,-4.0484,-5.0143,-5.6476,-5.525,-5.949,-6.0886,-5.7072,-5.6359,-5.3258,-4.6638,0.0,0.0,0.0,0.0,0.0,0.0,0.0,0.0,0.0,0.0,0.0,0.0,0.0,0.0,0.0,0.0,0.0,0.0,0.0,0.0,0.0,0.0,0.0,0.0,0.0,0.0,0.0,0.0,0.0,0.0,0.0,0.0,0.0,0.0,0.0,0.0,0.0,0.0,0.0,0.0,0.0,0.0,0.0,0.0,0.0,0.0,0.0,0.0,0.0,0.0,0.0,0.0,0.0,0.0,0.0,0.0,0.0,0.0,0.0,0.0,0.0,0.0,0.0,0.0,0.0,0.0,0.0,0.0,0.0,0.0,0.0,0.0,0.0,0.0,0.0,0.0,0.0,0.0,0.0,0.0,0.0,0.0,0.0,0.0,0.0,0.0,0.0,0.0,0.0,0.0,0.0,0.0,0.0,0.0,0.0,0.0,0.0,0.0,0.0,0.0,0.0,0.0,-3.9974,-4.9612,-5.5916,-5.4567,-5.873,-5.9599,-5.4806,-5.4356,-5.0699,-4.2184,0.0,0.0,0.0,0.0,0.0,0.0,0.0,0.0,0.0,0.0,0.0,0.0,0.0,0.0,0.0,0.0,0.0,0.0,0.0,0.0,0.0,0.0,0.0,0.0,0.0,0.0,0.0,0.0,0.0,0.0,0.0,0.0,0.0,0.0,0.0,0.0,0.0,0.0,0.0,0.0,0.0,0.0,0.0,0.0,0.0,0.0,0.0,0.0,0.0,0.0,0.0,0.0,0.0,0.0,0.0,0.0,0.0,0.0,0.0,0.0,0.0,0.0,0.0,0.0,0.0,0.0,0.0,0.0,0.0,0.0,0.0,0.0,0.0,0.0,0.0,0.0,0.0,0.0,0.0,0.0,0.0,0.0,0.0,0.0,0.0,0.0,0.0,0.0,0.0,0.0,0.0,0.0,0.0,0.0,0.0,0.0,0.0,0.0,0.0,0.0,0.0,0.0,-3.7913,-4.7034,-5.3015,-5.221,-5.6898,-5.7774,-5.2038,-5.2854,-4.9592,0.0,0.0,0.0,0.0,0.0,0.0,0.0,0.0,0.0,0.0,0.0,0.0,0.0,0.0,0.0,0.0,0.0,0.0,0.0,0.0,0.0,0.0,0.0,0.0,0.0,0.0,0.0,0.0,0.0,0.0,0.0,0.0,0.0,0.0,0.0,0.0,0.0,0.0,0.0,0.0,0.0,0.0,0.0,0.0,0.0,0.0,0.0,0.0,0.0,0.0,0.0,0.0,0.0,0.0,0.0,0.0,0.0,0.0,0.0,0.0,0.0,0.0,0.0,0.0,0.0,0.0,0.0,0.0,0.0,0.0,0.0,0.0,0.0,0.0,0.0,0.0,0.0,0.0,0.0,0.0,0.0,0.0,0.0,0.0,0.0,0.0,0.0,0.0,0.0,0.0,0.0,0.0,0.0,0.0,0.0,0.0,0.0,0.0,0.0,0.0,0.0,0.0,0.0,-3.9717,-4.5067,-4.9798,0.0,-5.5616,-5.5307,-5.0483,-5.1114,-4.7612,-3.7825,0.0,0.0,0.0,0.0,0.0,0.0,0.0,0.0,0.0,0.0,0.0,0.0,0.0,0.0,0.0,0.0,0.0,0.0,0.0,0.0,0.0,0.0,0.0,0.0,0.0,0.0,0.0,0.0,0.0,0.0,0.0,0.0,0.0,0.0,0.0,0.0,0.0,0.0,0.0,0.0,0.0,0.0,0.0,0.0,0.0,0.0,0.0,0.0,0.0,0.0,0.0,0.0,0.0,0.0,0.0,0.0,0.0,0.0,0.0,0.0,0.0,0.0,0.0,0.0,0.0,0.0,0.0,0.0,0.0,0.0,0.0,0.0,0.0,0.0,0.0,0.0,0.0,0.0,0.0,0.0,0.0,0.0,0.0,0.0,0.0,0.0,0.0,0.0,0.0,0.0,0.0,0.0,0.0,0.0,0.0,0.0,0.0,0.0,0.0,0.0,0.0,0.0,0.0,-4.3485,-4.7958,0.0,-5.3517,-5.3204,-4.943,-4.8969,-4.5173,-3.6472,0.0,0.0,0.0,0.0,0.0,0.0,0.0,0.0,0.0,0.0,0.0,0.0,0.0,0.0,0.0,0.0,0.0,0.0,0.0,0.0,0.0,0.0,0.0,0.0,0.0,0.0,0.0,0.0,0.0,0.0,0.0,0.0,0.0,0.0,0.0,0.0,0.0,0.0,0.0,0.0,0.0,0.0,0.0,0.0,0.0,0.0,0.0,0.0,0.0,0.0,0.0,0.0,0.0,0.0,0.0,0.0,0.0,0.0,0.0,0.0,0.0,0.0,0.0,0.0,0.0,0.0,0.0,0.0,0.0,0.0,0.0,0.0,0.0,0.0,0.0,0.0,0.0,0.0,0.0,0.0,0.0,0.0,0.0,0.0,0.0,0.0,0.0,0.0,0.0,0.0,0.0,0.0,0.0,0.0,0.0,0.0,0.0,0.0,0.0,0.0,0.0,0.0,0.0,-4.2105,-4.7012,-4.836,-5.0812,-5.1334,-4.8652,-4.6614,-4.2695,-3.6084,-3.351,0.0,0.0,0.0,0.0,0.0,0.0,0.0,0.0,0.0,0.0,0.0,0.0,0.0,0.0,0.0,0.0,0.0,0.0,0.0,0.0,0.0,0.0,0.0,0.0,0.0,0.0,0.0,0.0,0.0,0.0,0.0,0.0,0.0,0.0,0.0,0.0,0.0,0.0,0.0,0.0,0.0,0.0,0.0,0.0,0.0,0.0,0.0,0.0,0.0,0.0,0.0,0.0,0.0,0.0,0.0,0.0,0.0,0.0,0.0,0.0,0.0,0.0,0.0,0.0,0.0,0.0,0.0,0.0,0.0,0.0,0.0,0.0,0.0,0.0,0.0,0.0,0.0,0.0,0.0,0.0,0.0,0.0,0.0,0.0,0.0,0.0,0.0,0.0,0.0,0.0,0.0,0.0,0.0,0.0,0.0,0.0,0.0,0.0,0.0,0.0,0.0,0.0,-4.0044,-4.2795,-4.7256,-4.8822,-4.8789,-4.6986,-4.6201,-4.3065,-3.6707,-3.4937,0.0,0.0,0.0,0.0,0.0,0.0,0.0,0.0,0.0,0.0,0.0,0.0,0.0,0.0,0.0,0.0,0.0,0.0,0.0,0.0,0.0,0.0,0.0,0.0,0.0,0.0,0.0,0.0,0.0,0.0,0.0,0.0,0.0,0.0,0.0,0.0,0.0,0.0,0.0,0.0,0.0,0.0,0.0,0.0,0.0,0.0,0.0,0.0,0.0,0.0,0.0,0.0,0.0,0.0,0.0,0.0,0.0,0.0,0.0,0.0,0.0,0.0,0.0,0.0,0.0,0.0,0.0,0.0,0.0,0.0,0.0,0.0,0.0,0.0,0.0,0.0,0.0,0.0,0.0,0.0,0.0,0.0,0.0,0.0,0.0,0.0,0.0,0.0,0.0,0.0,0.0,0.0,0.0,0.0,0.0,0.0,0.0,0.0,0.0,0.0,0.0,0.0,-3.6209,-3.8149,-4.341,-4.5272,-4.564,-4.4317,-4.3148,-4.0508,-3.5783,-3.4011,0.0,0.0,0.0,0.0,0.0,0.0,0.0,0.0,0.0,0.0,0.0,0.0,0.0,0.0,0.0,0.0,0.0,0.0,0.0,0.0,0.0,0.0,0.0,0.0,0.0,0.0,0.0,0.0,0.0,0.0,0.0,0.0,0.0,0.0,0.0,0.0,0.0,0.0,0.0,0.0,0.0,0.0,0.0,0.0,0.0,0.0,0.0,0.0,0.0,0.0,0.0,0.0,0.0,0.0,0.0,0.0,0.0,0.0,0.0,0.0,0.0,0.0,0.0,0.0,0.0,0.0,0.0,0.0,0.0,0.0,0.0,0.0,0.0,0.0,0.0,0.0,0.0,0.0,0.0,0.0,0.0,0.0,0.0,0.0,0.0,0.0,0.0,0.0,0.0,0.0,0.0,0.0,0.0,0.0,0.0,0.0,0.0,0.0,0.0,0.0,0.0,0.0,0.0,-3.4447,-3.8878,-4.1507,-4.2595,-4.1694,-3.9756,-3.7362,-3.4485,0.0,0.0,0.0,0.0,0.0,0.0,0.0,0.0,0.0,0.0,0.0,0.0,0.0,0.0,0.0,0.0,0.0,0.0,0.0,0.0,0.0,0.0,0.0,0.0,0.0,0.0,0.0,0.0,0.0,0.0,0.0,0.0,0.0,0.0,0.0,0.0,0.0,0.0,0.0,0.0,0.0,0.0,0.0,0.0,0.0,0.0,0.0,0.0,0.0,0.0,0.0,0.0,0.0,0.0,0.0,0.0,0.0,0.0,0.0,0.0,0.0,0.0,0.0,0.0,0.0,0.0,0.0,0.0,0.0,0.0,0.0,0.0,0.0,0.0,0.0,0.0,0.0,0.0,0.0,0.0,0.0,0.0,0.0,0.0,0.0,0.0,0.0,0.0,0.0,0.0,0.0,0.0,0.0,0.0,0.0,0.0,0.0,0.0,0.0,0.0,0.0,0.0,0.0,0.0,0.0,-3.6975,-3.9602,-4.1144,-4.0986,-3.975,-3.774,-3.4912,0.0,0.0,0.0,0.0,0.0,0.0,0.0,0.0,0.0,0.0,0.0,0.0,0.0,0.0]}],[{"header":{"parameterUnit":"kt","parameterCategory":2,"dx":1,"dy":1,"la1":29.285339999999998,"la2":30.599998999999997,"lo1":-89.70041500000002,"lo2":-87.6738589999976,"nx":112,"ny":82,"refTime":"2022-10-02T00:00:00:Z","depth":0,"parameterNumber":2,"parameterNumberName":"V-component_of_WINDS"},"data":[8.242,8.2183,0.0,7.8927,7.9359,0.0,7.6616,0.0,0.0,0.0,0.0,0.0,0.0,0.0,0.0,0.0,0.0,0.0,0.0,0.0,0.0,0.0,0.0,0.0,0.0,0.0,0.0,0.0,0.0,0.0,0.0,0.0,9.0937,9.2891,9.5026,9.6916,9.8483,9.5773,9.4648,9.5019,9.2332,9.0142,8.8393,8.7785,8.689,8.5823,8.5823,8.6015,8.6301,8.6301,8.6301,8.6301,8.6301,8.6301,8.6193,8.5454,8.5154,8.5154,8.5154,8.543,8.5735,8.5308,8.5551,8.5922,8.5837,8.5808,8.5808,8.5808,8.6879,8.807,8.807,8.807,8.807,8.807,8.807,8.807,8.807,8.807,8.807,8.807,8.807,8.807,8.807,8.807,8.807,8.807,8.807,8.807,8.807,8.807,8.807,8.807,8.807,8.807,8.807,8.807,8.807,8.807,8.807,8.807,8.807,8.807,8.807,8.807,8.807,8.807,8.807,8.807,8.807,8.807,8.807,8.815,0.0,0.0,7.806,7.5262,0.0,0.0,0.0,0.0,0.0,0.0,0.0,0.0,0.0,0.0,0.0,0.0,0.0,0.0,0.0,0.0,0.0,0.0,0.0,0.0,0.0,0.0,0.0,0.0,0.0,0.0,0.0,8.9225,9.175,9.426,9.5898,9.7425,9.9028,9.5898,9.4377,9.4457,9.2467,9.0401,8.8406,8.7906,8.7038,8.5954,8.5415,8.5406,8.5721,8.5721,8.5721,8.5721,8.5721,8.5721,8.5604,8.4844,8.4586,8.4586,8.4586,8.4847,8.5136,8.4683,8.4908,8.5252,8.4716,8.4586,8.4586,8.4586,8.5662,8.7063,8.783,8.807,8.807,8.807,8.807,8.807,8.807,8.807,8.807,8.807,8.807,8.807,8.807,8.807,8.807,8.807,8.807,8.807,8.807,8.807,8.807,8.807,8.807,8.807,8.807,8.807,8.807,8.807,8.807,8.807,8.807,8.807,8.807,8.807,8.807,8.807,8.807,8.807,8.807,8.807,8.807,8.807,0.0,0.0,0.0,7.2337,0.0,0.0,0.0,0.0,6.4609,0.0,0.0,0.0,0.0,0.0,0.0,0.0,0.0,0.0,0.0,0.0,0.0,0.0,0.0,0.0,0.0,0.0,0.0,0.0,0.0,0.0,8.6983,9.0815,9.3891,9.5592,9.7076,9.8635,10.02,9.4135,9.2612,9.5592,9.2772,9.1391,9.1322,8.9867,8.8334,8.6801,8.523,8.4552,8.4516,8.4552,8.4552,8.4552,8.4586,8.4552,8.4552,8.4586,8.4586,8.4586,8.4586,8.4586,8.4586,8.4586,8.4586,8.4586,8.4586,8.4586,8.4586,8.4586,8.4586,8.5096,8.7359,8.793,8.7951,8.8049,8.807,8.807,8.807,8.807,8.807,8.807,8.807,8.807,8.807,8.8008,8.7988,8.8049,8.807,8.807,8.807,8.807,8.807,8.807,8.807,8.807,8.807,8.807,8.807,8.807,8.807,8.807,8.807,8.807,8.807,8.807,8.807,8.807,8.807,8.807,8.807,8.807,8.807,8.807,7.3843,0.0,0.0,0.0,0.0,0.0,0.0,0.0,0.0,0.0,0.0,0.0,0.0,0.0,0.0,0.0,0.0,0.0,0.0,0.0,0.0,0.0,0.0,0.0,0.0,0.0,0.0,0.0,0.0,8.9429,8.8152,8.9285,9.1617,9.5391,9.5921,9.687,9.8426,9.5633,9.4688,9.5628,9.3721,9.216,9.1061,8.9503,8.7941,8.6414,8.4817,8.4107,8.4177,8.435,8.4419,8.4419,8.4519,8.4485,8.4419,8.4519,8.4586,8.4586,8.4586,8.4586,8.4586,8.4586,8.4586,8.4586,8.4586,8.4586,8.4586,8.4586,8.4586,8.4716,8.5339,8.5514,8.5914,8.7642,8.807,8.807,8.807,8.807,8.807,8.807,8.807,8.807,8.807,8.6653,8.6083,8.7787,8.807,8.807,8.807,8.807,8.807,8.807,8.807,8.807,8.807,8.807,8.807,8.807,8.807,8.807,8.807,8.807,8.807,8.807,8.807,8.807,8.807,8.807,8.807,8.807,8.807,8.807,0.0,0.0,0.0,0.0,0.0,0.0,6.1244,0.0,5.9864,0.0,0.0,0.0,0.0,0.0,0.0,0.0,0.0,0.0,0.0,0.0,0.0,0.0,0.0,0.0,0.0,0.0,0.0,0.0,8.8312,8.9949,8.864,8.9693,9.1595,9.4228,9.4934,9.571,9.6662,9.5075,9.4339,9.4391,9.3587,9.2742,9.1822,9.0309,8.8787,8.7191,8.5597,8.4569,8.4002,8.4107,8.4212,8.4212,8.428,8.428,8.4212,8.428,8.4279,8.4279,8.4279,8.4279,8.4313,8.4417,8.4519,8.4586,8.4586,8.4586,8.4586,8.4586,8.4586,8.4586,8.4586,8.4586,8.4908,8.6283,8.6565,8.6565,8.6565,8.6565,8.6565,8.6565,8.6565,8.6565,8.6565,8.5454,8.5032,8.6391,8.6565,8.6565,8.6565,8.6565,8.699,8.7951,8.807,8.807,8.807,8.807,8.807,8.807,8.807,8.807,8.807,8.807,8.807,8.807,8.807,8.807,8.807,8.807,8.7554,8.6565,8.6565,8.6565,0.0,0.0,0.0,0.0,5.9329,0.0,0.0,0.0,0.0,0.0,0.0,0.0,0.0,0.0,0.0,0.0,0.0,0.0,0.0,0.0,0.0,0.0,0.0,0.0,0.0,8.4668,8.6898,8.2733,8.815,9.0652,8.8369,9.0673,9.2245,9.2679,9.4051,9.4755,9.4755,9.3418,9.2755,9.2755,9.2953,9.3074,9.3038,9.1571,9.0058,8.8465,8.6942,8.5384,8.3932,8.3932,8.3967,8.3967,8.3967,8.3967,8.3967,8.3967,8.4002,8.4002,8.4002,8.4002,8.4037,8.4247,8.4419,8.4519,8.4483,8.4552,8.4586,8.4586,8.4586,8.4586,8.4586,8.4586,8.4586,8.4586,8.4586,8.4586,8.4586,8.4586,8.4586,8.4586,8.4586,8.4586,8.4586,8.4586,8.4586,8.4586,8.4586,8.4586,8.4586,8.4586,8.5369,8.7427,8.7679,8.7679,8.7679,8.7679,8.7679,8.7679,8.7909,8.807,8.807,8.807,8.807,8.807,8.7787,8.7679,8.7679,8.7679,8.6601,8.4586,8.4586,8.4193,0.0,0.0,0.0,0.0,0.0,5.6174,0.0,0.0,0.0,0.0,0.0,0.0,0.0,0.0,0.0,0.0,0.0,0.0,0.0,0.0,0.0,0.0,0.0,0.0,0.0,8.0102,8.2026,8.1126,8.2324,8.4219,8.6903,8.7564,8.9354,9.2608,9.3037,9.3136,9.3136,9.2896,9.2755,9.2755,9.2796,9.2796,9.2725,9.1181,8.9634,8.8083,8.6533,8.4946,8.3538,8.3753,8.3824,8.3824,8.3824,8.3824,8.386,8.3932,8.4002,8.4002,8.4002,8.4002,8.3967,8.4037,8.4072,8.4142,8.421,8.4381,8.4586,8.4586,8.4586,8.4586,8.4586,8.4586,8.4586,8.4586,8.4586,8.4586,8.4586,8.4586,8.4586,8.4586,8.4586,8.4586,8.4586,8.4586,8.4586,8.4586,8.4586,8.4586,8.4586,8.4586,8.4749,8.5154,8.5216,8.5216,8.5216,8.5216,8.5216,8.5216,8.7014,8.807,8.807,8.807,8.807,8.807,8.6165,8.5216,8.5216,8.5216,8.5001,8.4586,8.4586,8.1841,0.0,0.0,0.0,5.4071,0.0,0.0,0.0,0.0,0.0,0.0,0.0,0.0,0.0,0.0,0.0,0.0,0.0,0.0,0.0,0.0,0.0,0.0,0.0,0.0,7.701,7.8395,7.9507,7.9924,8.1132,8.2703,8.4722,8.6272,8.7619,8.8893,9.0888,9.1947,9.1947,9.2473,9.2755,9.2755,9.2755,9.2755,9.272,9.191,9.0291,8.8003,8.7228,8.5574,8.3428,8.3537,8.3059,8.2298,8.3244,8.3316,8.2841,8.2584,8.2516,8.2375,8.1634,8.1351,8.1351,8.1491,8.1525,8.1631,8.2265,8.1765,8.1477,8.3434,8.4002,8.4002,8.4002,8.4002,8.4072,8.4449,8.4586,8.4586,8.4586,8.4586,8.4586,8.4586,8.2036,7.9877,7.9883,7.9879,7.9879,7.9879,7.9879,7.9879,7.9879,8.259,8.4586,8.4586,8.4586,8.4586,8.4586,8.4586,8.4586,8.4586,8.5662,8.631,8.631,8.631,8.631,8.631,8.5158,8.4586,8.4586,8.1413,7.9879,7.9879,7.9879,7.8202,0.0,0.0,0.0,0.0,0.0,0.0,6.2924,6.5247,0.0,0.0,0.0,0.0,0.0,0.0,0.0,0.0,0.0,0.0,0.0,0.0,0.0,0.0,0.0,0.0,7.771,7.794,7.828,7.9021,8.0858,8.2315,8.3151,8.5727,8.6828,8.6013,8.9163,9.0835,9.0835,9.1655,9.2109,9.2109,9.2109,9.2194,9.2396,9.2229,9.0636,8.8038,8.7808,8.6013,8.3134,8.3319,8.2303,8.077,8.1955,8.1827,8.0867,8.0337,8.0142,8.0002,7.8885,7.8465,7.857,7.8918,7.9056,7.9162,7.9797,7.8559,7.7573,8.0717,8.1632,8.1632,8.1632,8.1632,8.1775,8.2398,8.2567,8.2567,8.2567,8.2567,8.2567,8.2567,7.8475,7.5057,7.5192,7.5241,7.5241,7.5241,7.5241,7.5241,7.5241,7.9629,8.27,8.2532,8.2567,8.2567,8.2567,8.2667,8.3265,8.4479,8.4586,8.4586,8.4586,8.3375,8.2733,8.2733,8.2733,8.2733,8.2733,7.7667,7.5241,7.5241,7.5241,7.5241,0.0,0.0,0.0,0.0,0.0,0.0,6.3093,6.6124,6.8385,0.0,0.0,0.0,0.0,0.0,0.0,0.0,0.0,0.0,0.0,0.0,0.0,0.0,0.0,0.0,7.7808,7.794,7.7989,7.8086,7.8364,8.004,8.3494,8.5207,8.7013,8.9048,8.9532,8.9784,8.9784,8.9926,8.9973,8.9973,8.9973,9.0472,9.1315,9.0426,8.9264,8.7999,8.7096,8.4993,8.2259,8.3062,8.2303,8.054,7.9493,7.8232,7.7027,7.6936,7.6907,7.6991,7.7476,7.7704,7.7815,7.8535,7.8745,7.8604,7.7794,7.6174,7.4727,7.5152,7.5293,7.5293,7.5293,7.5293,7.5258,7.5392,7.5425,7.5425,7.5425,7.5425,7.5425,7.5425,7.483,7.4569,7.5121,7.5241,7.5241,7.5241,7.5241,7.5241,7.5241,7.5847,7.6061,7.549,7.5425,7.5425,7.5425,7.5901,7.863,8.4229,8.4586,8.4586,8.4586,7.9201,7.6275,7.6275,7.6275,7.6275,7.6275,7.5562,7.5241,7.5241,7.5241,7.5241,0.0,0.0,0.0,0.0,0.0,0.0,6.4116,6.6634,0.0,0.0,0.0,0.0,0.0,0.0,0.0,0.0,0.0,0.0,0.0,0.0,0.0,0.0,0.0,0.0,0.0,7.6723,7.7084,7.7907,7.794,7.8663,8.0309,8.2515,8.4643,8.6484,8.7979,8.8683,8.8683,8.932,8.9608,8.9608,8.9608,8.9832,9.0253,8.9832,8.8867,8.7586,8.7157,8.5698,8.3579,8.1422,7.9497,7.778,7.7433,7.6572,7.5545,7.5196,7.5014,7.4951,7.4377,7.4144,7.4219,7.4555,7.4629,7.4523,7.3775,7.2975,7.221,7.1497,7.1302,7.1765,7.377,7.4272,7.4272,7.4272,7.4272,7.4272,7.4272,7.4272,7.4272,7.4272,7.4272,7.4334,7.459,7.4689,7.4689,7.4689,7.4689,7.4689,7.4689,7.4689,7.4685,7.4814,7.4809,7.4653,7.4304,7.4876,7.7694,8.3506,8.0864,7.9129,7.9129,7.6596,7.5241,7.5241,7.5241,7.5241,7.5241,7.5241,7.5241,7.5241,7.5241,7.5241,4.599,0.0,0.0,0.0,0.0,0.0,0.0,0.0,0.0,0.0,0.0,0.0,0.0,0.0,0.0,0.0,0.0,0.0,0.0,0.0,0.0,0.0,0.0,0.0,0.0,0.0,0.0,0.0,7.6907,7.7349,7.7793,8.0157,8.2409,8.4282,8.6409,8.756,8.7664,8.8349,8.8717,8.88,8.88,8.8914,8.9174,8.8474,8.7604,8.6649,8.5974,8.5056,8.3813,8.0296,7.7644,7.5765,7.5699,7.4718,7.3366,7.289,7.2729,7.256,7.1709,7.138,7.1419,7.1651,7.1727,7.1651,7.1258,7.1054,7.0774,6.994,6.9461,6.978,7.2216,7.3565,7.4272,7.4272,7.4272,7.3998,7.3036,7.2864,7.2866,7.2835,7.3626,7.4272,7.4272,7.4272,7.4272,7.4272,7.4272,7.4272,7.4272,7.4272,7.4434,7.4907,7.4968,7.4747,7.4304,7.4685,7.663,8.0611,7.7326,7.5241,7.5241,7.5241,7.5241,7.5241,7.5241,7.5145,7.5085,7.5145,7.4645,7.356,7.4614,7.5085,0.0,0.0,0.0,5.5932,0.0,0.0,6.608,0.0,0.0,0.0,0.0,0.0,0.0,0.0,0.0,0.0,0.0,0.0,0.0,0.0,0.0,0.0,0.0,0.0,0.0,0.0,0.0,0.0,7.4344,7.5843,7.7495,7.8985,8.1184,8.4249,8.551,8.6352,8.6746,8.6407,8.6407,8.68,8.68,8.7238,8.8028,8.5608,8.478,8.5047,8.2701,8.1751,8.182,8.0299,7.8137,7.5655,7.4288,7.1952,6.9375,6.9353,6.932,6.9483,7.0316,7.0604,7.0693,7.1458,7.1727,7.1727,7.1689,7.1336,7.0968,7.0928,7.0108,6.9244,6.9298,7.1765,7.4272,7.4272,7.4272,7.338,7.0056,6.9355,6.9349,6.9381,7.2002,7.4272,7.4272,7.4272,7.4272,7.4272,7.4272,7.4272,7.4272,7.4272,7.4272,7.4304,7.4304,7.4272,7.4272,7.4272,7.4342,7.4518,7.4982,7.5241,7.5241,7.5241,7.5241,7.5241,7.5241,7.5019,7.4641,7.5019,7.3184,6.9471,7.3011,7.4641,4.8891,4.8393,4.8687,5.8825,6.0305,6.0404,6.4673,0.0,6.555,0.0,6.6225,6.6281,6.6975,0.0,0.0,0.0,0.0,0.0,0.0,0.0,0.0,0.0,0.0,0.0,0.0,0.0,0.0,0.0,0.0,0.0,7.4409,7.5827,7.7542,7.9519,8.0904,8.2112,8.3232,8.3092,8.3092,8.3232,8.3425,8.3519,8.3631,8.2994,8.271,8.2629,8.1844,8.0449,7.8615,7.718,7.5631,7.3974,7.2485,7.0774,6.92,6.92,6.92,6.9244,6.9514,6.9642,6.9685,6.9991,7.0075,7.0075,7.0075,6.9907,6.977,6.977,6.9514,6.92,6.92,7.0041,7.0907,7.0907,7.09,7.0922,7.0874,6.9996,6.9211,6.9229,7.1967,7.4272,7.4272,7.4272,7.4272,7.4272,7.4272,7.4272,7.4272,7.4272,7.4272,7.4272,7.4272,7.4272,7.4272,7.4272,7.4272,7.4272,7.4466,7.4594,7.4594,7.4594,7.4594,7.4594,7.2366,7.1964,7.346,7.3357,7.2368,7.0625,7.207,7.2692,4.9383,5.0567,5.2442,5.9516,6.0591,6.0777,6.4091,6.4681,6.4654,6.5303,6.6069,6.6811,6.7507,6.6836,6.6177,0.0,0.0,0.0,0.0,0.0,0.0,0.0,0.0,0.0,0.0,0.0,0.0,0.0,0.0,7.1893,7.1988,7.332,7.506,7.7112,7.8056,7.9405,8.1283,8.1283,8.1336,8.1443,8.1602,8.1602,8.1411,8.108,8.0852,8.0662,7.993,7.8644,7.696,7.6033,7.4946,7.3754,7.2206,7.0862,6.9689,6.921,6.898,6.898,6.898,6.898,6.9013,6.9101,6.9145,6.9145,6.92,6.92,6.92,6.92,6.92,6.92,6.92,6.92,6.92,6.92,6.9212,6.9481,7.0598,6.9984,6.9198,6.9195,7.0923,7.2435,7.2435,7.2435,7.2435,7.2435,7.2435,7.2435,7.2435,7.2435,7.2435,7.2435,7.2435,7.2435,7.2435,7.3565,7.4272,7.4272,7.4272,7.3701,7.2508,7.2435,7.3009,7.4239,7.2329,7.1429,7.1578,7.1731,7.1419,7.0618,7.138,7.1612,4.7905,5.2081,5.6678,5.8414,6.0458,6.249,0.0,0.0,0.0,0.0,6.6343,6.6785,6.816,6.6451,6.4806,6.4806,6.4552,0.0,0.0,0.0,0.0,0.0,0.0,0.0,0.0,0.0,0.0,0.0,6.8952,6.9835,7.0133,7.1427,7.3645,7.6801,7.6899,7.8195,8.0766,8.0798,8.0927,8.1162,8.1215,8.1215,8.1129,7.9795,7.9177,7.906,7.7179,7.6546,7.6784,7.6784,7.6062,7.4914,7.3449,7.205,7.0716,6.9251,6.8731,6.8731,6.8731,6.8666,6.8645,6.8901,6.899,6.9035,6.9145,6.9156,6.9156,6.92,6.92,6.92,6.92,6.92,6.92,6.92,6.92,6.92,6.92,6.9156,6.9184,6.9199,6.92,6.92,6.92,6.92,6.92,6.92,6.92,6.92,6.92,6.92,6.92,6.92,6.92,6.92,6.92,7.2142,7.3971,7.3971,7.3971,7.2544,6.9341,6.92,7.074,7.3904,7.4586,7.3011,6.92,7.0283,7.0283,6.9244,7.0827,7.1302,5.1977,5.425,5.6145,6.1884,6.0051,5.781,6.1322,0.0,6.2138,0.0,6.471,6.5379,6.5526,6.4409,6.3449,6.3449,6.2677,6.2406,6.3343,6.3449,0.0,0.0,0.0,0.0,0.0,0.0,0.0,0.0,6.5733,6.635,6.7277,6.7675,6.956,7.3285,7.3382,7.4738,7.7559,7.7559,7.7611,7.7663,7.7872,7.7904,7.7663,7.7516,7.7302,7.7114,7.6603,7.6442,7.6494,7.6494,7.5808,7.4585,7.3159,7.251,7.2165,7.0734,7.0228,7.0228,7.0228,6.9512,6.8645,6.869,6.869,6.869,6.878,6.878,6.8824,6.9002,6.9046,6.909,6.9156,6.92,6.92,6.92,6.92,6.92,6.92,6.8981,6.8784,6.8892,6.9068,6.92,6.92,6.92,6.92,6.92,6.92,6.92,6.92,6.92,6.92,6.92,6.92,6.92,6.92,6.9991,7.0496,7.0496,7.0496,7.0083,6.9244,6.92,6.9642,7.0455,7.0632,7.0216,6.92,6.9471,6.9471,6.92,6.9642,6.9183,5.2194,5.5275,5.7106,5.9883,5.8647,5.7327,5.959,6.0426,6.1069,6.2523,6.3072,6.326,6.31,6.2623,6.2192,6.2192,6.1669,6.1447,6.2137,6.2192,6.2436,6.3023,6.3047,6.326,6.3786,6.3839,6.4047,6.4532,6.4501,6.4837,6.5452,6.5502,6.7082,7.049,7.0584,7.191,7.4743,7.526,7.5558,7.5558,7.6254,7.6546,7.639,7.6546,7.594,7.4774,7.4774,7.4774,7.4774,7.4774,7.4676,7.4426,7.2949,7.2872,7.3256,7.1199,7.0843,7.1249,7.0648,6.9903,6.9223,6.9361,6.8985,6.8465,6.8555,6.86,6.8678,6.8812,6.8857,6.8869,6.9057,6.9013,6.8969,6.9101,6.9013,6.8805,6.8151,6.8323,6.8645,6.8735,6.888,6.898,6.8969,6.9068,6.92,6.92,6.92,6.92,6.92,6.92,6.92,6.92,6.92,6.92,6.92,6.92,6.92,6.92,6.92,6.92,6.92,6.92,6.92,6.92,6.92,6.92,6.92,6.8543,6.829,6.8257,6.759,6.6909,5.0639,5.5307,5.8081,5.5876,5.6756,5.8235,5.8264,5.9193,6.044,0.0,6.1362,6.0907,6.111,6.1139,6.1139,6.1139,6.1139,6.1139,6.1139,6.1139,6.1139,6.1139,6.1139,6.1558,6.2544,6.2653,6.3053,6.3913,6.4017,6.4038,6.4193,6.4193,6.5407,6.8164,6.8409,6.9729,7.2303,7.3538,7.4132,7.4242,7.5345,7.5887,7.5887,7.5855,7.4665,7.2698,7.2641,7.2641,7.2698,7.2698,7.3294,7.4062,7.2658,7.2868,7.3723,7.1067,7.0973,7.197,7.0719,7.027,7.0269,7.0298,6.9486,6.8465,6.853,6.851,6.851,6.8555,6.8555,6.86,6.8901,6.8812,6.8613,6.864,6.8605,6.8185,6.6962,6.7677,6.8555,6.86,6.869,6.8702,6.86,6.888,6.9112,6.9112,6.9156,6.9156,6.9025,6.9112,6.92,6.92,6.92,6.92,6.92,6.92,6.92,6.92,6.92,6.92,6.92,6.92,6.92,6.92,6.9068,6.897,6.8904,6.7665,6.6942,6.6745,6.5495,6.4838,5.0937,5.3809,5.555,5.6516,5.5635,5.4841,5.589,5.7154,5.8366,5.96,5.9366,5.9279,6.0371,6.0572,6.0572,6.0572,6.0572,6.0572,6.0572,6.0572,6.0572,6.0572,6.0572,6.0686,6.0828,6.0913,6.0941,6.1137,6.1137,6.1526,6.2396,6.245,6.3569,6.611,6.7234,6.8739,7.0577,7.1855,7.2667,7.3041,7.3212,7.3325,7.3325,7.3041,7.2813,7.2698,7.2321,7.241,7.2698,7.2698,7.2813,7.283,7.1391,7.1744,7.2742,7.1107,7.1217,7.2257,7.2005,7.1864,7.1573,7.043,6.985,6.951,6.8332,6.7977,6.8023,6.8206,6.8251,6.8375,6.86,6.8645,6.8352,6.7191,6.7454,6.7958,6.796,6.7953,6.8069,6.8555,6.8465,6.8342,6.831,6.8523,6.8735,6.8735,6.898,6.8936,6.8173,6.8759,6.92,6.92,6.92,6.92,6.92,6.92,6.92,6.92,6.92,6.92,6.92,6.92,6.92,6.92,6.8348,6.7795,6.7435,6.7172,6.6449,6.5298,6.5035,6.4279,5.0442,5.2832,5.4084,5.4273,5.3453,5.3135,5.4961,5.5889,5.6823,5.8547,5.8673,5.8909,6.0228,6.0486,6.0486,6.0486,6.0486,6.0486,6.0486,6.0486,6.0486,6.0486,6.0486,6.0486,6.0486,6.0486,6.0486,6.0486,6.0486,6.0657,6.1164,6.1775,6.2991,6.4825,6.618,6.7507,6.8927,7.0455,7.1324,7.1502,7.2294,7.2698,7.2641,7.0754,6.9963,7.0147,6.9993,7.0116,7.0482,7.0482,7.0965,7.1589,7.0924,7.1512,7.2544,7.111,7.1386,7.2438,7.1668,7.0459,6.9276,6.9288,6.781,6.6129,6.6112,6.6112,6.6003,6.5454,6.5281,6.5502,6.6373,6.6497,6.6575,6.7215,6.6718,6.5971,6.5327,6.5657,6.6209,6.6451,6.6403,6.6354,6.6467,6.6643,6.6595,6.6258,6.6516,6.6707,6.6547,6.7912,6.888,6.888,6.888,6.8535,6.7631,6.7617,6.7617,6.7617,6.8605,6.92,6.92,6.8348,6.7493,6.6569,6.6079,6.5376,6.4534,6.3761,6.3052,6.2407,6.1624,6.0916,5.0006,5.2156,5.3067,5.2244,5.179,5.2235,5.4534,5.4836,5.5193,5.7086,5.7743,5.8255,5.9285,5.9857,6.0143,5.9857,6.0057,6.0228,6.0228,6.0228,6.0228,6.0228,6.0228,6.0228,6.0228,6.0228,6.0228,6.0228,6.0228,6.0343,6.0628,6.1512,6.2626,6.3882,6.52,6.6314,6.735,6.8941,6.9773,6.9806,7.1055,7.1619,7.156,6.9029,6.7843,6.7779,6.7779,6.7972,6.8321,6.8385,6.9087,7.0145,7.0297,7.0935,7.1646,7.0645,7.0967,7.1682,7.056,6.8827,6.7249,6.7964,6.6028,6.3619,6.4337,6.4501,6.4337,6.3292,6.3034,6.3282,6.4381,6.4555,6.4886,6.6926,6.5965,6.4225,6.3111,6.3744,6.4501,6.4501,6.4501,6.4603,6.4806,6.4857,6.4705,6.4245,6.4296,6.4552,6.4908,6.6595,6.7728,6.7728,6.7449,6.6675,6.5371,6.5271,6.5471,6.5885,6.746,6.847,6.8649,6.6705,6.4979,6.3595,6.336,6.2717,6.1687,6.0508,5.9846,5.9575,5.846,5.7914,5.0277,5.1776,5.207,5.29,5.2225,5.1925,5.4177,5.3634,5.303,5.4079,0.0,5.6058,5.6171,5.8037,5.9196,5.8008,5.8828,5.9563,5.9563,5.9563,5.9563,5.9563,5.9563,5.9563,5.9563,5.9563,5.9563,5.9563,5.9563,6.0044,6.1087,6.1284,6.1934,6.3233,6.4539,6.5408,6.5747,6.7043,6.7807,6.8072,6.82,6.8328,6.8264,6.7943,6.7714,6.7512,6.7512,6.7613,6.7908,6.8257,6.8321,6.8136,6.8893,6.9049,6.8864,6.9092,6.9163,6.9164,6.9044,6.8793,6.841,6.7218,6.6603,6.608,6.489,6.4501,6.4501,6.4429,6.4348,6.4368,6.452,6.452,6.4582,6.4776,6.4705,6.447,6.4348,6.444,6.4501,6.4501,6.4501,6.4552,6.4583,6.4552,6.4603,6.4806,6.4347,6.3913,6.3712,6.4409,6.4939,6.4939,6.3637,6.2736,6.2604,6.2549,6.3373,6.5259,6.5558,6.6017,6.6865,6.3931,6.2044,6.1655,6.0741,6.0143,5.9926,5.977,5.9168,5.8103,5.7977,5.7914,4.7663,5.0099,5.1349,5.1722,5.2613,5.3245,5.2578,5.348,5.4585,5.4904,5.5412,5.5806,5.5806,5.6596,0.0,5.75,5.7951,5.8572,5.9364,5.9477,5.9477,5.9477,5.9477,5.9477,5.9477,5.9477,5.9477,5.9477,6.0124,6.0745,6.1192,6.272,6.3792,6.43,6.5513,6.6227,6.6328,6.7061,6.7512,6.7613,6.7779,6.7649,6.726,6.726,6.7223,6.7092,6.7092,6.7157,6.726,6.7678,6.7807,6.7822,6.7423,6.7198,6.6957,6.6275,6.6191,6.6355,6.6355,6.544,6.4286,6.4468,6.3541,6.226,6.245,6.2569,6.239,6.1611,6.1373,6.1531,6.2242,6.2449,6.2401,6.2331,6.2292,6.2292,6.2292,6.2292,6.2376,6.2485,6.2569,6.2569,6.2569,6.2569,6.2539,6.2701,6.2485,6.2514,6.3107,6.3995,6.4378,6.3891,6.3267,6.2707,6.2251,6.279,6.3501,6.4327,6.4958,6.4116,6.152,6.0146,5.9126,5.8368,5.7959,5.7348,5.6516,5.6516,5.6273,5.5805,5.5805,5.5805,4.4899,4.7726,4.959,5.0552,5.2192,5.3158,5.1636,5.276,5.4245,5.4597,5.4688,5.4611,5.4247,5.4504,0.0,5.575,5.6193,5.6858,5.8107,5.8626,5.8863,5.8863,5.9243,5.9477,5.9477,5.9126,5.8863,5.8863,5.9673,6.0256,6.0619,6.3125,6.473,6.5097,6.6275,6.6895,6.6895,6.7157,6.7251,6.7251,6.7483,6.7325,6.6895,6.6895,6.6895,6.6895,6.6895,6.6895,6.6895,6.7186,6.7191,6.69,6.5897,6.5472,6.5324,6.4473,6.4049,6.397,6.4119,6.2792,6.1255,6.2298,6.1339,6.0002,6.0961,6.1252,6.1048,6.0089,5.9883,6.0047,6.0858,6.1018,6.0933,6.0766,6.0714,6.0714,6.0714,6.0714,6.0828,6.1054,6.111,6.111,6.1252,6.1252,6.1252,6.1252,6.1252,6.1502,6.2356,6.313,6.3366,6.2785,6.2731,6.249,6.1976,6.2242,6.2424,6.2424,6.2785,6.1267,5.7389,5.7198,5.6716,5.5625,5.5546,5.5155,5.4292,5.4292,5.434,5.4418,5.4069,5.4069,4.2616,4.4637,4.6484,4.9758,5.0557,5.0849,5.1874,5.1201,5.0757,5.1878,5.2145,5.1807,5.0632,5.1466,0.0,5.1981,5.305,5.4248,5.5288,5.6675,5.7582,5.7582,5.8685,5.9477,5.9477,5.8329,5.7582,5.7582,5.7582,5.8102,5.9243,6.1814,6.3792,6.5069,6.6275,6.6895,6.6895,6.6895,6.6895,6.6895,6.6895,6.6895,6.6895,6.6895,6.6895,6.6895,6.6895,6.6895,6.6895,6.6895,6.6162,6.5076,6.4428,6.4032,6.3812,6.4036,6.3326,6.2293,6.2674,6.1953,6.0884,6.1139,6.1252,6.1223,6.1252,6.1252,6.1252,6.1223,6.1223,6.1223,6.1223,6.1025,6.0799,6.0515,6.0486,6.0486,6.0486,6.0486,6.0515,6.0828,6.0855,6.0941,6.1166,6.1252,6.1252,6.1252,6.1252,6.1252,6.1252,6.1223,6.1223,6.1252,6.1252,6.1252,6.1252,6.0086,5.9301,5.9301,5.8249,5.6997,5.5666,5.5607,5.5047,5.3708,5.365,5.3826,5.402,5.402,5.4195,5.4388,5.3247,5.3326,4.0163,4.2585,4.4882,4.8349,4.8601,4.8301,4.9429,5.004,5.0659,5.1885,5.0773,4.9608,4.9206,5.015,0.0,0.0,5.1803,5.2964,5.4161,5.5341,5.6094,5.6094,5.6403,5.671,5.671,5.6341,5.6353,5.7089,5.7942,5.8928,6.0033,6.1745,6.2823,6.3296,6.456,6.5293,6.5293,6.6311,6.6895,6.683,6.4752,6.3794,6.3794,6.3794,6.3794,6.3809,6.3067,6.3253,6.3996,6.3288,6.3341,6.3651,6.2597,6.2087,6.197,6.1184,6.0822,6.0597,6.0742,6.0687,6.0572,6.0686,6.0686,6.0686,6.0686,6.0686,6.0686,6.0686,6.0828,6.0941,6.0743,6.0629,6.0515,6.0171,6.0056,6.0056,6.0056,6.0056,6.0171,6.0515,6.0572,6.0629,6.0686,6.0686,6.0686,6.0686,6.0686,6.0686,6.0686,6.0686,6.0341,5.9475,5.8804,5.8529,5.869,5.8312,5.805,5.805,5.4549,5.2273,5.1911,5.1883,5.1688,5.127,5.127,5.1297,5.1401,5.1401,5.1401,5.1504,5.1114,5.1114,3.774,4.0332,4.2955,4.6413,4.5732,4.4768,4.6846,4.75,4.8094,4.9746,4.8885,4.7941,4.8445,0.0,4.941,4.901,4.9836,5.0811,5.1565,5.3116,5.4066,5.4066,5.487,5.5384,5.5384,5.4944,5.494,5.5578,5.6721,5.7501,5.7787,5.9911,6.1054,6.1054,6.2012,6.2918,6.374,6.4314,6.4812,6.5186,6.3282,6.2205,6.1852,6.1852,6.1545,6.1096,6.0425,6.0646,6.1352,6.0689,6.0627,6.0897,6.0125,5.9457,5.8934,5.8191,5.842,5.9008,5.9126,5.9622,6.0228,6.0429,6.0486,6.0486,6.0486,6.0486,6.0486,6.0486,6.0572,6.0343,5.8893,5.9039,5.9419,5.9067,5.936,5.9738,5.9738,5.9738,5.9854,6.0171,6.0228,6.0286,6.0429,6.0027,5.9623,5.9623,5.8879,5.8338,5.8338,5.7889,5.7528,5.7129,5.6582,5.6371,5.6697,5.5971,5.5472,5.5472,5.196,4.9905,5.0011,5.0011,5.0064,5.0117,5.0117,5.0117,5.0117,5.0117,5.0117,5.0145,4.9718,4.9772,3.5289,3.7865,4.0513,4.3981,4.2396,4.085,4.4195,4.3965,4.3695,4.6075,4.6389,4.6583,4.7868,4.8089,4.7745,4.6807,4.7477,4.8096,4.8086,0.0,5.1825,5.1711,5.3716,5.5112,5.507,5.3953,5.3255,5.3396,5.4293,5.447,5.3599,5.6823,5.8663,5.8584,5.8863,6.0078,6.2074,6.1255,6.1133,6.1757,6.1757,6.1276,6.0363,6.0363,5.9784,5.8784,5.8705,5.8719,5.8786,5.8707,5.8086,5.72,5.72,5.6449,5.5384,5.5384,5.6218,5.7433,5.7642,5.8539,5.9622,5.9969,6.0085,6.0085,6.0085,6.0085,6.0085,6.0085,6.0085,5.936,5.6218,5.6553,5.7702,5.7433,5.8329,5.9185,5.9185,5.9185,5.9243,5.9477,5.9535,5.9623,5.9913,5.8871,5.7993,5.791,5.6031,5.4616,5.4616,5.3678,5.3381,5.4394,5.4477,5.4671,5.4919,5.3095,5.1835,5.167,5.0041,4.9208,4.9477,4.9477,4.9584,4.9852,4.9852,4.9852,4.9852,4.9852,4.9852,4.9798,4.8908,4.8962,3.3213,3.512,3.7205,4.1609,4.1715,4.1022,4.1964,4.1836,4.1937,4.3427,4.3583,4.385,4.5052,4.6015,0.0,4.6624,4.7105,4.7264,4.6669,4.9637,5.1302,4.9719,5.1376,5.2409,5.1644,5.1261,5.1534,5.2585,5.2947,5.3432,5.4299,5.5959,5.6423,5.5673,5.7616,5.8891,5.9404,6.0377,5.9052,5.5537,5.5847,5.5866,5.5619,5.5926,5.5943,5.5599,5.4822,5.5035,5.5915,5.5134,5.5176,5.5869,5.5869,5.571,5.5384,5.5384,5.5633,5.5909,5.5971,5.6218,5.6464,5.6587,5.6587,5.6587,5.6587,5.6587,5.6587,5.6587,5.6587,5.6376,5.5633,5.5696,5.5971,5.5909,5.6156,5.6341,5.6341,5.6341,5.6403,5.6464,5.6464,5.623,5.5522,5.5094,5.4619,5.3847,5.3238,5.2875,5.2875,5.2635,5.2219,5.1485,5.1573,5.1364,5.0529,5.0205,4.9226,4.7435,4.6921,4.6737,4.6794,4.6794,4.6794,4.6851,4.6882,4.6882,4.6882,4.6882,4.6882,4.6907,4.6958,4.7097,3.252,3.4733,3.6852,3.9377,3.9668,3.9327,3.9534,3.946,3.9667,4.0901,4.0975,4.1565,4.3829,4.4368,4.5148,4.7284,0.0,4.6749,4.5376,4.7435,4.898,0.0,0.0,5.0628,5.1034,5.0628,5.0673,5.1405,5.1979,5.2361,5.2666,5.3611,5.3925,5.3416,5.4307,5.522,5.6185,5.5615,5.4448,5.2849,5.3014,5.3085,5.3038,5.3251,5.3126,5.2642,0.0,5.2181,5.2851,5.2257,5.2537,5.336,5.336,5.3489,5.3593,5.3593,5.3593,5.3657,5.4273,5.4907,5.5384,5.5384,5.5384,5.5384,5.5384,5.5384,5.5384,5.5384,5.4527,5.3593,5.3593,5.4043,5.4527,5.4527,5.4944,5.5384,5.5384,5.505,5.4654,5.4443,5.417,5.3704,5.2984,5.2458,5.1975,5.1402,5.0408,4.9684,4.9684,4.9198,4.8843,4.874,4.8832,4.874,4.8249,4.8307,4.7642,4.5987,4.5583,4.5525,4.5699,4.5699,4.5757,4.5872,4.5872,4.5872,4.5872,4.5872,4.5987,4.6127,4.6382,4.6497,3.2593,3.5242,3.7312,3.7145,3.692,3.689,3.7261,3.7038,3.7173,3.8616,3.8748,3.9523,4.27,4.2972,4.3831,0.0,0.0,4.6304,0.0,0.0,4.6536,4.8014,0.0,4.9472,5.1066,5.0566,5.0206,5.0206,5.104,5.1228,5.0413,5.1369,5.1705,5.1465,5.0724,5.0966,5.2373,4.9725,4.9391,5.1417,5.1486,5.1512,5.154,5.161,5.1202,5.0365,0.0,5.0365,5.0365,5.0365,5.0501,5.0863,5.0887,5.1132,5.1443,5.151,5.151,5.1686,5.2799,5.3915,5.4781,5.4781,5.4781,5.4781,5.4781,5.4781,5.4781,5.4628,5.3035,5.1309,5.1309,5.2043,5.2718,5.2718,5.3441,5.4171,5.4171,5.3477,5.2712,5.2381,5.1923,5.1365,5.086,5.0058,4.9429,4.9313,4.7596,4.6331,4.6392,4.5503,4.5302,4.6453,4.6567,4.6655,4.6882,4.6882,4.6567,4.5699,4.5176,4.4976,4.5375,4.5409,4.5467,4.5732,4.5558,4.5442,4.5442,4.5442,4.55,4.5641,4.5897,4.607,3.3013,3.4859,3.551,3.4643,3.4361,3.4595,3.551,3.5042,3.4923,3.687,3.7268,3.7667,3.908,4.1691,4.3381,0.0,0.0,0.0,4.3867,4.5779,4.6831,4.5488,4.7535,0.0,4.8332,4.8918,4.9477,4.9842,4.9984,5.0168,5.0365,5.1369,5.1106,4.9314,4.9983,4.9404,4.7408,4.6915,4.7202,4.8261,4.862,4.9226,5.0078,5.0444,5.0509,5.0365,0.0,0.0,5.0365,5.0365,5.0365,5.0433,5.0796,5.093,5.1065,5.1376,5.151,5.151,5.1752,5.1927,5.2126,5.2126,5.2126,5.2126,5.2126,5.2126,5.1969,5.1328,5.0815,5.0501,5.0501,5.003,4.953,4.953,4.8959,4.8471,4.8471,4.835,4.8252,4.8165,4.8044,4.7718,4.6757,4.6489,4.6113,4.5492,4.5047,4.4891,4.5103,4.5015,4.4952,4.5185,4.5185,4.5185,4.5243,4.5243,4.5093,4.4766,4.4649,4.4707,4.4976,4.4976,4.5035,4.5035,4.3962,4.3404,4.3404,4.3404,4.2865,4.1858,4.3308,4.3427,3.1945,3.3233,3.3997,3.2926,3.3253,3.3891,3.4139,3.4446,3.478,3.5178,3.6136,3.7099,3.7591,3.9409,4.125,4.2296,4.352,0.0,0.0,0.0,4.5299,4.5549,4.6234,4.7215,0.0,4.8407,4.8662,4.9385,4.8892,4.8654,4.8879,4.8875,4.8426,4.7457,4.7883,4.6997,4.4636,4.4551,4.5042,4.6047,4.6803,4.769,4.861,4.9378,4.9705,4.9705,4.9705,4.9705,4.9705,4.9705,4.9842,5.007,5.0206,5.0433,5.066,5.0839,5.0906,5.0906,5.0906,5.0906,5.0906,5.0906,5.0906,5.0906,5.0906,5.0906,5.0718,4.9739,4.9505,4.9386,4.8812,4.8311,4.7952,4.7952,4.757,4.7236,4.7236,4.6782,4.6313,4.6101,4.5798,4.5311,4.4652,4.4678,4.4691,4.4391,4.4319,4.4319,4.4472,4.4472,4.4472,4.4472,4.4472,4.4472,4.4472,4.3773,4.3008,4.2162,4.2102,4.22,4.2457,4.248,4.2624,4.2768,4.2223,4.1896,4.1896,4.1896,4.1736,4.1329,4.2102,4.2223,3.0826,0.0,3.249,3.1431,3.2074,3.2847,0.0,3.3362,3.4142,3.3928,3.5088,3.6227,3.6506,3.7428,3.8947,4.1652,4.2269,4.2823,4.4153,0.0,0.0,4.4683,4.4479,4.5202,4.768,4.7576,4.766,4.8431,4.7753,4.7309,4.7309,4.6673,4.6158,4.5924,4.5004,4.3938,4.2642,4.2679,4.3334,4.4753,4.5783,4.6725,4.764,4.8735,4.9202,4.9202,4.9202,4.9202,4.9202,4.9202,4.9339,4.9637,4.9705,4.9934,5.0206,5.0298,5.0365,5.0365,5.0365,5.0365,5.0365,5.0365,5.0365,5.0365,5.0365,5.0039,4.95,4.8454,4.8169,4.8044,4.7259,4.6854,4.66,4.66,4.6473,4.6307,4.6307,4.5664,4.4971,4.4702,4.4209,4.3784,4.3522,4.3725,4.3903,4.3963,4.3963,4.4046,4.4082,4.4165,4.4165,4.4165,4.4165,4.3963,4.3641,4.2162,4.0915,3.9962,3.99,4.0025,4.0354,4.0354,4.05,4.0814,4.0814,4.069,4.0442,4.0504,4.0504,4.038,4.0836,4.0937,0.0,3.0974,3.1016,2.9975,2.9959,3.0217,3.0316,3.0529,0.0,3.3552,3.3944,3.4185,3.5283,3.6237,3.7258,3.8622,3.9539,4.082,0.0,4.2033,0.0,0.0,0.0,0.0,4.4184,4.5524,4.6415,4.6485,4.6415,4.6368,4.6368,4.6322,4.583,4.487,4.1398,4.0095,4.1145,4.1206,4.2342,4.4753,4.5783,4.6725,4.764,4.8735,4.9202,0.0,4.9202,4.9202,4.9202,4.9202,4.9202,4.9271,4.9637,4.9774,4.9842,5.023,5.0365,5.0365,5.0365,5.0365,5.0365,5.0365,5.0365,5.0365,5.0365,4.9179,4.7632,4.6714,4.6433,4.641,4.6363,4.5636,4.4909,4.4909,4.4121,4.348,4.348,4.3372,4.3302,4.3302,4.3255,4.3185,4.3185,4.3209,4.3305,4.3522,4.3581,4.3701,4.4106,4.4165,4.4165,4.4165,4.4165,4.3581,4.2284,4.0358,3.9357,3.9524,3.9524,3.965,4.0087,4.0087,4.0087,4.0087,4.0087,3.9671,3.8684,3.9,3.845,3.6929,3.8514,3.862,2.9277,2.9546,2.9417,2.8438,2.897,2.9678,0.0,0.0,3.1187,3.1632,3.2536,3.3061,3.2379,3.3221,3.433,3.5221,3.6976,3.8836,0.0,0.0,0.0,0.0,0.0,0.0,0.0,4.229,4.3033,4.3697,4.3122,4.2767,4.2767,4.2127,4.1365,4.0506,3.9317,3.8958,3.944,3.9671,4.0702,4.241,4.3473,4.495,4.6795,4.7308,4.7936,4.8558,4.8072,4.7839,0.0,4.7839,4.8141,4.8512,4.77,4.7584,4.7818,4.7118,4.6837,4.6837,4.6837,4.7399,4.8189,4.8189,4.8835,4.9637,4.9637,4.741,4.4625,4.3145,4.3308,4.3814,4.32,4.335,4.3648,4.3235,4.2835,4.2414,4.201,4.1949,4.1949,4.1949,4.1949,4.1949,4.1949,4.1949,4.1743,4.1122,4.0977,4.0915,4.0646,4.0624,4.0708,4.096,4.096,4.0317,3.8747,3.7941,3.7256,3.6695,3.6715,3.6824,3.7277,3.7277,3.7341,3.747,3.747,3.7297,3.6929,3.7059,3.68,3.6188,3.68,3.6864,2.8363,2.8472,2.818,2.7739,2.8436,2.9103,2.8744,0.0,3.0647,3.0171,3.1321,3.1971,3.0787,3.1321,3.2238,3.3004,3.4768,3.6639,0.0,0.0,0.0,0.0,0.0,0.0,0.0,0.0,4.0057,4.0757,4.0162,3.9803,3.9803,3.9063,3.8069,3.672,3.6914,3.73,3.7665,3.7962,3.8726,4.0046,4.1374,4.2858,4.4513,4.5255,4.6026,4.6621,4.6124,4.5888,4.5888,4.5888,4.6173,4.655,4.546,4.5345,4.5659,4.4799,4.446,4.446,4.4677,4.5252,4.5943,4.6086,4.6815,4.7471,4.7385,4.4885,4.1831,4.0585,4.0664,4.0916,4.0221,4.0752,4.1391,4.0937,4.0792,4.0668,4.0255,4.0152,4.0152,4.0152,4.0152,4.0152,4.0152,4.0152,3.9859,3.9063,3.9,3.881,3.8346,3.8282,3.843,3.8662,3.8726,3.7898,3.5914,3.5717,3.5409,3.4739,3.4673,3.4806,3.5051,3.507,3.5136,3.5334,3.5334,3.5466,3.5664,3.5051,3.4966,3.5296,3.5164,3.5447,2.7782,2.7823,2.7381,2.8017,2.8378,2.8348,0.0,0.0,0.0,2.9471,3.025,3.0915,3.1039,3.0981,3.1227,3.2273,3.2962,3.418,3.6414,0.0,0.0,0.0,0.0,0.0,0.0,0.0,3.7857,3.7836,3.7836,0.0,3.7836,3.7857,3.6655,3.4093,3.4026,3.4654,3.5894,3.5979,3.659,3.7921,3.9696,4.0611,4.0693,4.2442,4.3288,4.3309,4.3309,4.3309,0.0,4.3329,4.3329,4.3329,4.3329,4.3329,4.3402,4.3766,4.3911,4.3984,4.446,4.4294,4.3984,4.446,4.4294,4.3795,4.3388,4.1459,3.944,3.9374,3.8667,3.7836,3.79,3.79,3.79,3.79,3.79,3.79,3.79,3.79,3.79,3.79,3.79,3.79,3.79,3.79,3.79,3.7836,3.7836,3.7836,3.7857,3.7857,3.7857,3.7836,3.7836,3.6784,3.4208,3.4026,3.4026,3.4026,3.4026,3.4026,3.4026,3.4026,3.4026,3.4026,3.3959,3.4274,3.4938,3.3101,3.2796,3.3764,3.3382,3.4152,2.823,2.8177,2.7963,2.7567,2.7879,2.8193,0.0,0.0,0.0,2.9221,2.9295,2.9089,2.86,2.8754,2.9139,2.9653,3.0884,3.2536,3.4527,0.0,0.0,0.0,0.0,0.0,0.0,0.0,3.4862,3.5145,3.5164,3.5164,3.5164,3.4617,3.4019,3.3204,3.3454,3.3771,3.4152,3.4437,3.5211,3.6545,3.7128,3.8197,3.9809,3.9805,4.019,4.0891,4.0939,4.1022,0.0,4.1607,4.2122,4.247,4.14,4.1326,4.1583,4.0578,4.0222,4.0297,4.0448,4.1102,4.188,4.2048,4.2389,4.2049,3.8652,3.7063,3.634,3.5747,3.5402,3.5409,3.6285,3.7216,3.7793,3.73,3.7256,3.7127,3.6655,3.6525,3.6525,3.6525,3.6525,3.6525,3.6525,3.6525,3.6265,3.5567,3.5436,3.5304,3.4777,3.4777,3.4862,3.5145,3.42,3.3533,3.3588,3.3588,3.374,3.4026,3.4026,3.4026,3.4026,3.2966,3.2391,3.2391,3.1357,3.1085,3.1578,3.1017,3.1017,3.1476,3.134,3.1629,2.7855,2.8001,2.7868,2.7426,2.7532,2.7741,2.7523,0.0,0.0,2.8659,2.8583,2.8306,2.7781,2.8241,2.8719,2.886,3.0269,0.0,0.0,0.0,0.0,0.0,0.0,0.0,0.0,0.0,0.0,3.3539,3.3539,3.3539,3.3539,3.3136,3.2867,3.2867,3.3051,3.3186,3.3186,3.3405,3.3922,3.4749,3.507,3.5938,3.7278,3.7104,3.7409,3.7979,3.8056,3.8276,0.0,3.9089,3.9692,4.0259,3.941,3.9259,3.9524,3.8745,3.8476,3.8458,3.8611,3.9183,3.9789,3.9691,3.9101,3.796,3.5098,3.4209,3.4158,3.3685,3.3539,3.374,3.455,3.5304,3.5809,3.5389,3.5324,3.5192,3.4815,3.4749,3.4749,3.4749,3.4749,3.4598,3.4333,3.4532,3.4333,3.3132,3.315,3.3168,3.2764,3.2494,3.2629,3.3472,3.2173,3.1613,3.2274,3.2341,3.2274,3.2003,3.2156,3.202,3.1578,3.0812,3.0384,3.0384,2.956,2.9284,2.9645,2.9092,2.8953,2.923,2.923,2.923,2.6886,2.7222,2.7225,2.7163,2.7145,2.7078,2.7138,0.0,0.0,2.8043,2.8195,2.8195,2.8195,0.0,0.0,0.0,0.0,3.1614,0.0,0.0,0.0,0.0,0.0,0.0,0.0,0.0,0.0,0.0,3.2867,3.2867,3.2867,3.2867,3.2867,3.2867,3.2867,3.2867,3.2867,3.2867,3.2867,3.2867,3.3562,3.3901,3.3849,3.4525,3.4862,3.479,3.495,3.541,0.0,3.6207,3.6668,3.7288,3.7288,3.7288,3.7288,3.7709,3.7786,3.7863,3.8156,3.8043,3.7629,3.7286,3.5165,3.2869,3.28,3.2783,3.2867,3.2867,3.2867,3.2867,3.2867,3.2867,3.2867,3.2867,3.2867,3.28,3.2647,3.2732,3.2732,3.2647,3.2665,3.2444,3.1698,3.2173,3.2241,3.0914,3.1204,3.1562,3.1562,3.1067,3.1119,3.2224,3.1051,3.025,3.0335,3.0318,2.9907,2.8859,2.9145,2.89,2.788,2.8104,2.8174,2.8174,2.8034,2.8189,2.8552,2.7225,2.6748,2.7014,2.7014,2.7014,2.5802,2.5804,2.5488,2.5304,2.5622,2.6101,2.6498,2.6902,0.0,0.0,2.8357,2.8357,2.8357,0.0,2.8951,0.0,0.0,0.0,0.0,0.0,0.0,0.0,0.0,0.0,0.0,0.0,0.0,0.0,3.2867,3.2867,3.2867,3.2867,3.2867,3.2867,3.2867,3.2867,3.2867,3.2867,3.2867,3.2867,3.3027,3.2759,3.223,3.2386,3.218,3.1746,3.2877,3.3412,3.3722,3.4811,3.5385,3.552,3.552,3.552,3.552,3.5598,3.5693,3.5591,3.5151,3.4947,3.4828,3.4211,3.3483,3.2766,3.2111,3.2381,3.2867,3.2867,3.2867,3.2867,3.2867,3.2867,3.2867,3.2867,3.2867,3.2512,3.1408,3.1545,3.1766,3.1272,3.1187,3.1136,3.0914,3.105,3.105,3.0777,3.0845,3.093,3.093,3.0777,3.0126,2.856,2.7356,2.6796,2.7309,2.7377,2.7377,2.7444,2.7882,2.8243,2.8243,2.728,2.6718,2.6718,2.5447,2.5034,2.5475,2.5119,2.5204,2.5559,2.5559,2.5559,2.476,2.488,2.4617,2.4163,2.4633,2.5229,2.5201,0.0,0.0,0.0,0.0,2.839,2.8379,0.0,0.0,0.0,0.0,0.0,0.0,0.0,0.0,0.0,0.0,0.0,0.0,0.0,0.0,0.0,3.3206,3.3059,3.23,3.2575,3.2782,3.2782,3.2782,3.261,3.23,3.1729,3.156,3.1817,3.1255,3.105,3.1204,3.064,3.0159,2.9916,3.008,3.049,3.1169,3.2595,3.3475,3.409,3.4736,3.4988,3.4988,3.4988,3.4756,3.4468,3.4161,3.3794,3.3253,3.1433,3.1044,3.1209,3.0773,3.1204,3.1817,3.1817,3.1817,3.1817,3.1817,3.1817,3.1817,3.1817,3.1817,3.1613,3.0845,3.0999,3.1136,3.0777,3.0708,3.0571,3.0228,3.0434,3.0297,2.9038,2.9124,2.9108,2.8622,2.76,2.6334,2.4934,2.4231,2.4069,2.4521,2.456,2.4687,2.4861,2.5308,2.5478,2.5405,2.4879,2.4678,2.4821,2.3834,2.3631,2.4205,2.4062,2.362,2.3125,2.3125,2.2633,2.3431,2.3727,2.3564,2.3028,2.3527,2.4086,2.3746,2.4282,0.0,0.0,0.0,2.8039,2.8163,2.921,0.0,3.0236,0.0,0.0,0.0,0.0,3.192,0.0,0.0,0.0,0.0,0.0,0.0,0.0,0.0,3.2681,3.1277,3.1815,3.214,3.2027,3.1953,3.1734,3.1206,3.0254,2.997,3.038,2.9259,2.9196,3.0046,2.8947,2.8413,2.8274,2.7369,0.0,2.8848,3.026,3.1578,3.2729,3.4028,3.45,3.4579,3.4448,3.4021,3.3539,3.3292,3.2889,3.2018,2.9285,2.8931,2.9555,2.9555,3.009,3.0708,3.0708,3.0708,3.0708,3.0708,3.0571,3.0434,3.0434,3.0143,3.0005,3.0074,2.9936,2.9746,2.9746,2.9746,2.9523,2.8915,2.9177,2.8815,2.6663,2.6663,2.6592,2.573,2.3567,2.2008,2.1616,2.1482,2.1488,2.1756,2.1784,2.1894,2.2193,2.2608,2.2691,2.2298,2.2539,2.29,2.3188,2.29,2.29,2.3331,2.2943,2.1947,2.044,2.0348,1.9532,2.136,2.1235,2.1223,2.115,2.1579,2.2102,2.2627,2.2855,2.3135,2.3855,0.0,2.6556,2.7092,0.0,2.9662,3.2607,0.0,3.2811,3.4044,3.3767,3.2979,3.1826,3.1317,3.0982,3.0982,3.0982,3.0982,3.0982,3.0685,3.011,2.9195,2.9836,3.0017,2.9314,2.9284,2.9239,2.9165,2.9015,2.8971,2.9031,2.8421,2.785,2.7358,2.6823,2.6254,2.5587,2.6014,2.6563,2.7266,2.9198,3.0244,3.0985,3.2282,3.276,3.2698,3.2169,3.1888,3.1639,3.0543,3.009,2.9799,2.8722,2.8931,2.9555,2.9555,3.009,3.0708,3.0708,3.0708,3.0708,3.0708,2.9936,2.9177,2.9177,2.798,2.7,2.7585,2.6718,2.5843,2.5843,2.5843,2.5772,2.5701,2.5163,2.4696,2.4353,2.3782,2.334,2.3196,2.114,1.9523,1.9183,1.8693,1.8533,1.884,1.886,1.9407,2.0752,2.1349,2.1918,2.2659,2.2755,2.2755,2.2828,2.2755,2.2094,2.09,2.0632,1.9677,1.811,1.778,1.7486,2.0382,2.0195,1.9941,1.9949,2.0518,2.1128,2.1149,2.1518,2.2117,2.2846,2.4893,0.0,0.0,0.0,0.0,0.0,0.0,0.0,3.0232,3.0909,3.114,0.0,3.0009,0.0,3.0139,2.9575,2.9306,0.0,2.8974,2.8453,2.8109,2.8761,2.9051,2.8705,2.8613,2.8613,2.8613,2.7626,2.7284,2.7577,2.6695,2.6409,2.6695,2.559,2.4883,2.4545,0.0,2.4271,2.49,2.6779,2.7856,2.845,2.9446,2.9858,2.9786,2.9227,2.8764,2.8447,2.8512,2.7865,2.7011,2.6651,2.6762,2.7029,2.7029,2.731,2.7576,2.7576,2.7576,2.7576,2.7576,2.6845,2.6126,2.6126,2.5207,2.4353,2.4682,2.4211,2.3808,2.3808,2.3808,2.3808,2.3808,2.3496,2.3065,2.2358,2.2009,2.1201,1.9662,1.8595,1.7787,1.7429,1.6919,1.6761,1.7039,1.6899,1.7586,1.9634,1.9955,2.0708,2.1997,2.1236,2.0872,2.109,1.9986,1.9265,1.8908,1.8577,1.7526,1.581,1.5682,1.501,1.9572,1.9367,1.9125,1.886,1.9463,2.0093,1.9889,2.0351,2.1005,2.1721,2.4013,2.5621,0.0,0.0,0.0,2.6832,2.6938,0.0,2.7414,2.8445,0.0,2.8707,0.0,2.8294,2.8707,2.8086,0.0,0.0,2.7215,2.6844,2.6844,2.733,2.7579,2.7579,2.7579,2.7579,2.7579,2.6246,2.5748,2.6113,2.514,2.5077,2.5879,2.4485,2.3857,2.3781,2.2899,2.2824,2.3472,2.5176,2.6081,2.6505,2.7415,2.7684,2.7557,2.6955,2.6449,2.6039,2.6048,2.5199,2.4062,2.4406,2.4478,2.4478,2.4478,2.4478,2.4478,2.4478,2.4478,2.4478,2.4478,2.3808,2.3137,2.3137,2.249,2.1841,2.1841,2.1841,2.1841,2.1841,2.1841,2.1841,2.1841,2.1708,2.1274,2.0362,2.007,1.9182,1.7205,1.6918,1.6689,1.6233,1.5914,1.5834,1.5951,1.5334,1.5857,1.8057,1.7895,1.8379,1.9903,1.89,1.8458,1.8752,1.7322,1.6524,1.6489,1.6073,1.4974,1.3219,1.3138,1.2309,1.879,1.8692,1.8826,1.7805,1.7968,1.8574,1.9146,1.934,1.9493,2.0066,2.1557,2.2964,0.0,0.0,2.6085,2.8536,2.8477,2.8362,2.8945,2.8608,2.7787,0.0,0.0,0.0,0.0,0.0,0.0,2.4943,0.0,2.4814,2.4814,2.4838,2.4862,2.4862,2.4862,2.4862,2.4862,2.4743,2.4803,2.4767,2.4202,2.3978,2.4035,2.3449,2.3213,2.3136,2.3136,2.335,2.3978,2.5338,2.5841,2.6025,2.7321,2.7503,2.7018,2.6326,2.6093,2.5603,2.2456,2.1259,2.1369,2.2502,2.2837,2.2837,2.2837,2.2837,2.2837,2.2837,2.2837,2.2837,2.2837,2.2009,2.1163,2.1163,2.0216,1.9423,1.9423,1.9423,1.9423,1.9423,1.9423,1.9423,1.9423,1.8846,1.8267,1.8267,1.7593,1.7066,1.6918,1.6918,1.6624,1.5883,1.5749,1.5714,1.5559,1.406,1.3942,1.5769,1.4613,1.4445,1.5643,1.5802,1.5928,1.5928,1.5646,1.4729,1.3284,1.2777,1.1649,1.0161,0.9777,0.9531,1.8545,1.816,1.7971,1.7616,1.7356,1.7423,1.8514,1.8692,1.8761,1.9414,2.1481,2.2973,2.237,2.3563,2.4588,2.48,2.4902,2.5116,2.5401,2.5853,2.6148,2.5946,2.5194,2.4973,0.0,0.0,0.0,2.2988,2.2938,2.2938,2.2938,2.2938,2.2938,2.2938,2.2938,2.2938,2.2938,2.2938,2.2938,2.2927,2.2763,2.2687,2.2665,2.2115,2.1898,2.1898,2.1898,2.1996,2.2229,2.2783,2.2945,2.2969,2.2848,2.2707,2.2485,2.1896,2.1637,2.1466,2.0282,1.9862,1.9935,2.0351,2.0497,2.0497,2.0497,2.0497,2.0497,2.0497,2.0497,2.0497,2.0497,1.9778,1.914,1.914,1.8394,1.7731,1.7731,1.7731,1.7731,1.7731,1.7731,1.7731,1.7731,1.751,1.7288,1.7288,1.4717,1.3276,1.4588,1.4643,1.4355,1.3781,1.3742,1.3252,1.2001,1.1163,1.1239,1.2669,1.2343,1.2607,1.3789,1.3046,1.2606,1.2478,1.1814,1.1083,1.0244,1.0592,1.0341,0.952,0.9366,0.9325,1.85,0.0,1.7358,1.7195,1.666,1.6524,1.776,1.8038,1.8184,1.902,2.0527,2.1567,2.1019,2.1767,2.2136,2.1446,2.1907,2.2311,2.2188,2.304,2.3752,2.3995,2.3459,0.0,0.0,0.0,0.0,2.1913,2.1934,2.1934,2.1934,2.1934,2.1934,2.1934,2.1934,2.1934,2.1934,2.1934,2.1934,2.1934,2.1934,2.1934,2.1913,2.1621,2.1475,2.1475,2.1329,2.134,2.1455,2.1243,2.1198,2.1045,2.0347,1.9938,1.9695,1.9391,1.8909,1.8468,1.8468,1.8468,1.8468,1.8468,1.8468,1.8468,1.8468,1.8468,1.8468,1.8468,1.8468,1.8468,1.8468,1.811,1.7667,1.7667,1.7297,1.6918,1.6918,1.6918,1.6918,1.6918,1.6918,1.6918,1.6918,1.6391,1.5894,1.5846,1.308,1.1366,1.2395,1.2428,1.218,1.1754,1.1734,1.1168,0.9815,0.8969,0.8892,0.9905,0.9623,0.9905,1.0922,1.0113,0.959,0.9503,0.8796,0.8309,0.8017,0.8479,0.8562,0.8284,0.8284,0.8089,0.0,0.0,1.7164,1.666,1.6041,1.5888,1.7034,1.7345,1.7625,1.8757,1.8517,1.8384,1.9404,1.9048,1.8782,1.9182,1.984,2.0212,1.9862,2.0476,2.0812,2.0427,2.0864,2.1144,0.0,2.1267,2.1455,2.1892,2.1924,2.1924,2.1924,2.1924,2.1924,2.1924,2.1924,2.1924,2.1924,2.1924,2.1924,2.1924,2.1924,2.1924,2.1924,2.1924,2.1924,2.1903,2.1475,2.1527,2.1861,2.1034,2.0657,2.0469,2.0068,1.9609,1.914,1.9171,1.8277,1.6937,1.6937,1.6927,1.6918,1.6918,1.6918,1.6918,1.6918,1.6918,1.6918,1.6918,1.6909,1.6844,1.6918,1.6909,1.6844,1.6844,1.6844,1.6835,1.6761,1.677,1.6761,1.6761,1.6761,1.6761,1.6761,1.5178,1.3872,1.3754,1.2541,1.1349,1.043,1.0323,1.0248,0.9824,0.976,0.9626,0.9208,0.7635,0.6985,0.7593,0.6479,0.6085,0.672,0.6957,0.7121,0.7117,0.678,0.6536,0.6528,0.6288,0.614,0.614,0.614,0.555,1.7083,0.0,0.0,1.7258,1.6723,1.6576,1.7853,1.808,1.8097,1.8437,1.8625,1.8708,1.8553,1.8369,1.8379,1.8761,1.8977,1.9208,1.9402,1.9623,1.9792,2.0103,2.026,2.0056,1.9416,1.9401,1.9655,2.0066,2.0179,2.0179,2.0179,2.0179,2.0179,2.0179,2.0179,2.0179,2.0179,2.0179,2.0179,2.0179,2.0179,2.0179,2.0179,2.0179,2.0179,2.0179,1.998,2.0073,2.0056,1.9521,1.904,1.8726,1.8308,1.7956,1.765,1.8185,1.7915,1.7368,1.7368,1.7166,1.6918,1.6918,1.6918,1.6918,1.6918,1.6918,1.6918,1.6918,1.6317,1.5871,1.6696,1.6317,1.5649,1.5649,1.5194,1.4516,1.3621,1.2934,1.2546,1.2546,1.2546,1.2546,1.2546,1.2,1.1616,1.1531,0.9072,0.6805,0.5691,0.6862,0.7458,0.6596,0.6707,0.6257,0.4944,0.4643,0.4663,0.4962,0.4889,0.5002,0.5231,0.5342,0.5321,0.5228,0.5612,0.5323,0.4488,0.4911,0.4697,0.3976,0.3976,0.3585,1.6504,0.0,0.0,0.0,1.6323,1.6133,1.7122,1.7251,1.7378,1.7841,1.7998,1.7932,1.7714,1.7478,1.7285,0.0,1.7887,1.8171,1.8261,1.8703,1.906,1.9196,1.9087,1.8781,1.8425,1.8563,1.8911,1.94,1.9428,1.9428,1.9428,1.9428,1.9428,1.9428,1.8826,1.8826,1.9428,1.8224,1.7969,1.8563,1.7969,1.7629,1.7714,1.8308,1.8563,1.8563,1.8917,1.9271,1.9382,1.8728,1.8362,1.8262,1.7868,1.7635,1.746,1.7686,1.7658,1.7439,1.7341,1.712,1.6918,1.6918,1.6918,1.6918,1.6918,1.6652,1.646,1.646,1.5346,1.4376,1.5036,1.4332,1.339,1.339,1.3016,1.2485,1.1742,1.1205,1.0898,1.0898,1.0809,1.0806,1.0806,1.0011,0.9021,0.7885,0.5884,0.432,0.3605,0.4564,0.5112,0.4524,0.4581,0.4236,0.3211,0.3369,0.3532,0.3549,0.382,0.4048,0.406,0.4273,0.4105,0.3559,0.4004,0.3649,0.2543,0.2936,0.2673,0.1826,0.1826,0.0721,1.6258,0.0,0.0,1.5872,1.5495,1.5232,0.0,0.0,1.6166,1.7148,1.6856,1.6524,1.692,1.6438,1.5959,1.584,1.661,1.7173,1.6863,1.7804,1.8338,1.7892,1.7544,1.7535,1.7926,1.8255,1.8746,1.9231,1.9258,1.9174,1.8995,1.8995,1.8826,1.8656,1.7451,1.7451,1.8826,1.6251,1.574,1.7026,1.574,1.5142,1.5227,1.6515,1.7111,1.7349,1.8127,1.8846,1.9372,1.8562,1.8371,1.8627,1.8262,1.7894,1.7407,1.7073,1.6897,1.6851,1.6649,1.6536,1.6539,1.6696,1.677,1.677,1.677,1.6133,1.5489,1.5461,1.397,1.2418,1.2598,1.1624,1.0673,1.0673,1.0598,1.0529,1.0373,1.0303,1.0222,1.0222,1.0118,0.9966,0.9966,0.8413,0.6284,0.3874,0.3381,0.3304,0.3228,0.3214,0.3232,0.3224,0.3216,0.3117,0.3041,0.3171,0.3115,0.2841,0.2969,0.3016,0.2876,0.3206,0.2928,0.1974,0.2054,0.1636,0.0525,0.0525,0.0197,-0.0527,-0.0526,-0.252,0.0,0.0,0.0,0.0,0.0,0.0,0.0,0.0,1.6587,1.6292,1.6076,1.5929,1.6023,1.5398,1.5128,1.5939,1.6103,1.6172,1.6386,1.6927,1.702,1.6277,1.6432,1.6682,1.7072,1.7363,1.7742,1.8308,1.8335,1.7646,1.6081,1.5996,1.5305,1.3838,1.3495,1.3838,1.4871,1.4358,1.4536,1.5569,1.5313,1.5142,1.5142,1.5484,1.6166,1.7281,1.7469,1.8248,1.9409,1.9252,1.8966,1.8655,1.8582,1.6481,1.3497,1.3439,1.3133,1.2975,1.427,1.4458,1.4308,1.5591,1.5972,1.5972,1.5972,1.489,1.3713,1.3842,1.1873,0.9916,1.0996,1.0344,0.9485,0.9485,0.8957,0.8282,0.7234,0.6471,0.6013,0.6013,0.5763,0.5515,0.5515,0.4817,0.4068,0.3435,0.3343,0.3184,0.2886,0.2827,0.2759,0.2534,0.2532,0.2526,0.2513,0.2735,0.2386,0.1326,0.155,0.12,0.007,0.0069,0.0,-0.0136,-0.0264,-0.0922,-0.2157,-0.2157,-0.2727,-0.3759,-0.3617,-0.4886,0.0,0.0,0.0,0.0,0.0,0.0,0.0,0.0,0.0,0.0,0.0,1.5526,0.0,0.0,1.4918,1.5274,1.5412,1.5559,1.5693,1.609,1.6116,1.5489,1.6165,1.6662,1.6859,1.738,1.7781,1.8071,1.8088,1.7654,1.6701,1.6608,1.5747,1.3845,1.3165,1.2901,1.3159,1.179,1.1704,1.2822,1.214,1.1796,1.1796,1.2478,1.3251,1.3937,1.4615,1.5298,1.5988,1.5988,1.5804,1.5569,1.5569,1.4217,1.2337,1.2128,1.1837,1.1638,1.2287,1.2355,1.2267,1.3091,1.3322,1.3322,1.3322,1.2428,1.1491,1.1567,0.9746,0.8007,0.8693,0.7906,0.6999,0.6999,0.6544,0.594,0.5262,0.4655,0.4274,0.4274,0.4081,0.3896,0.3896,0.2021,0.0447,0.0368,0.0367,0.0512,0.094,0.1022,0.0948,0.071,0.0573,0.0287,-0.0142,-0.0283,-0.0427,-0.0864,-0.0721,-0.0931,-0.1626,-0.1534,-0.1731,-0.2217,-0.2024,-0.2611,-0.4009,-0.3819,-0.4357,-0.5443,-0.5854,-0.6817,0.0,0.0,0.0,0.0,0.0,0.0,0.0,0.0,0.0,0.0,0.0,0.0,0.0,0.0,0.0,1.4486,1.4766,1.5061,1.4954,1.5194,1.5242,1.5088,1.5879,1.6448,1.6527,1.6878,1.7125,1.7199,1.686,1.6545,1.6182,1.6189,1.532,1.3423,1.2312,1.1624,1.1354,0.9211,0.8787,1.0076,0.0,0.0,0.8358,0.9562,1.0244,1.0589,1.1618,1.2209,1.2466,1.2466,1.2466,1.2374,1.1472,1.0996,1.0799,1.0325,1.0176,1.0184,1.0133,1.011,1.0072,1.0453,1.0523,1.0448,1.0448,0.9759,0.0,0.8967,0.7646,0.6177,0.6208,0.5409,0.4652,0.4652,0.4424,0.4193,0.4193,0.3893,0.3668,0.3668,0.3308,0.2964,0.2964,-0.0226,-0.2661,-0.227,-0.2505,-0.2415,-0.1401,-0.1202,-0.1277,-0.1443,-0.168,-0.2125,-0.2872,-0.3424,-0.3372,-0.2638,-0.314,-0.3756,-0.4263,-0.4119,-0.4393,-0.5152,-0.4765,-0.4912,-0.5576,-0.5317,-0.5738,-0.6704,-0.8299,-0.9356,0.0,0.0,0.0,0.0,0.0,0.0,0.0,0.0,0.0,0.0,0.0,0.0,0.0,0.0,0.0,0.0,1.4399,1.4596,1.4361,1.3964,1.389,1.4569,1.4674,1.4883,1.5295,1.4358,1.3777,1.3962,1.2564,1.1064,0.9553,0.0,0.0,0.0,0.0,0.6885,0.7577,0.7316,0.7663,0.8614,0.844,0.8358,0.8358,0.8527,0.9302,1.0503,1.0675,1.136,1.2466,1.2466,1.2466,1.202,0.7836,0.6007,0.5639,0.5103,0.5312,0.5914,0.6907,0.0,0.0,0.8811,0.9103,0.8797,0.8797,0.7613,0.626,0.6398,0.5228,0.3922,0.4008,0.3965,0.3819,0.3819,0.3819,0.3742,0.3742,0.3742,0.3668,0.3668,0.2206,0.091,0.091,-0.1594,-0.2944,-0.1257,-0.2474,-0.3468,-0.3093,-0.3222,-0.3339,-0.3394,0.0,0.0,-0.3545,-0.457,-0.4518,-0.2788,-0.5445,-0.8114,-1.0513,-1.0591,-1.056,-1.062,-1.0514,-0.9428,-0.7273,-0.7251,-0.753,-0.8246,-1.2513,-1.3852,0.0,0.0,0.0,0.0,0.0,0.0,0.0,0.0,0.0,0.0,0.0,0.0,0.0,0.0,0.0,0.0,1.3485,1.3387,1.2528,1.2799,1.2798,1.1954,1.256,1.2643,1.1626,1.1466,1.1337,1.1195,1.0501,0.9823,0.9107,0.9057,0.829,0.6714,0.6708,0.6624,0.6195,0.6195,0.6366,0.6801,0.6801,0.6801,0.6801,0.6801,0.7146,0.766,0.766,0.8007,0.8519,0.8519,0.8519,0.0,0.0,0.0,0.0,0.0,0.4109,0.4339,0.4798,0.4997,0.5033,0.5715,0.5864,0.5712,0.5557,0.4992,0.4442,0.4637,0.4168,0.3696,0.3882,0.3891,0.3891,0.3742,0.3515,0.3361,0.3361,0.3208,0.2979,0.2979,0.1296,0.0,-0.2562,-0.4664,-0.581,-0.4962,-0.5574,-0.584,-0.5208,-0.5181,-0.5362,-0.5585,-0.5728,-0.6012,-0.6361,-0.7112,0.0,0.0,0.0,-0.8655,-0.9786,-0.986,0.0,0.0,0.0,0.0,0.0,0.0,0.0,0.0,-1.3684,-1.3809,0.0,0.0,0.0,0.0,0.0,0.0,0.0,0.0,0.0,0.0,0.0,0.0,0.0,0.0,0.0,0.0,0.0,1.2085,1.0579,1.1146,1.1046,0.9375,1.0496,1.0685,0.8783,0.8844,0.8796,0.8611,0.8144,0.7967,0.7935,0.8035,0.7567,0.6522,0.6563,0.6163,0.5231,0.5175,0.519,0.5192,0.5222,0.5237,0.5237,0.5411,0.5411,0.5411,0.5554,0.5624,0.5535,0.5417,0.5404,0.5298,0.4357,0.3967,0.3877,0.3868,0.364,0.3361,0.3515,0.3513,0.3361,0.3361,0.3361,0.3361,0.3132,0.3055,0.3132,0.3284,0.3361,0.3437,0.3586,0.356,0.3238,0.2719,0.2267,0.1813,0.1435,0.1133,0.0906,0.0906,-0.0758,-0.2857,-0.4787,-0.6993,-0.8279,-0.7796,-0.8265,0.0,-0.7689,-0.7556,-0.765,-0.8001,-0.8106,-0.8346,-0.8975,-0.9651,-0.9648,-0.8743,-0.9325,-0.9483,-0.9034,-0.9627,-0.9951,-0.9852,-1.0611,-1.0955,0.0,0.0,0.0,0.0,0.0,0.0,0.0,0.0,0.0,0.0,0.0,0.0,0.0,0.0,0.0,0.0,0.0,0.0,0.0,0.0,0.0,0.0,0.0,0.0,0.8886,0.8779,0.8502,0.7407,0.875,0.9262,0.7978,0.6724,0.602,0.6096,0.4747,0.3937,0.4022,0.4195,0.4249,0.4167,0.4174,0.4176,0.4094,0.4099,0.4144,0.4144,0.4233,0.4361,0.4361,0.4712,0.4886,0.4881,0.5293,0.5416,0.5408,0.4876,0.4669,0.4657,0.407,0.3639,0.3397,0.3627,0.321,0.2674,0.3132,0.2979,0.2596,0.2596,0.2596,0.2596,0.252,0.252,0.252,0.2596,0.2596,0.2596,0.2596,0.2089,0.1313,0.022,-0.0588,-0.1396,-0.2793,-0.3086,-0.3086,-0.3086,-0.4938,-0.5996,-0.4551,-0.758,-0.9632,-0.7857,-0.942,0.0,-1.0595,-1.0414,-1.0435,-1.0766,-1.0344,-1.0244,-1.0742,-1.1623,-1.156,-1.0173,-1.1577,-1.1801,-1.0123,-1.236,-1.3732,-1.3987,-1.4867,-1.4154,-1.182,0.0,0.0,0.0,0.0,0.0,0.0,0.0,0.0,0.0,0.0,0.0,0.0,0.0,0.0,0.0,0.0,0.0,0.0,0.0,0.0,0.0,0.0,0.0,0.0,0.0,0.818,0.4669,0.6352,0.6634,0.3672,0.3464,0.3408,0.3223,0.2847,0.2703,0.2727,0.2837,0.3054,0.3435,0.3512,0.3759,0.4086,0.4117,0.4051,0.4051,0.4164,0.4179,0.4179,0.4262,0.4348,0.4343,0.4479,0.4546,0.4544,0.4346,0.398,0.3433,0.3027,0.2783,0.2695,0.2745,0.2699,0.252,0.275,0.2674,0.252,0.252,0.252,0.252,0.252,0.252,0.252,0.252,0.252,0.252,0.252,0.2348,0.1654,-0.0602,-0.1954,-0.3004,-0.3456,-0.3531,-0.3531,-0.3531,-0.6937,-0.985,-0.9934,-0.9993,-1.032,-1.1161,-1.0851,-1.0829,-1.158,-1.202,-1.2383,-1.2991,-1.3246,-1.3317,-1.334,-1.3751,-1.3932,-1.362,-1.4289,-1.4137,-1.2891,-1.3932,-1.3982,-1.2656,-1.3626,-1.3738,-1.3037,0.0,0.0,0.0,0.0,0.0,0.0,0.0,0.0,0.0,0.0,0.0,0.0,0.0,0.0,0.0,0.0,0.0,0.0,0.0,0.0,0.0,0.0,0.0,0.0,0.0,0.0,0.2473,0.3939,0.0,0.1222,0.1347,0.1473,0.1339,0.153,0.1669,0.1769,0.197,0.2312,0.2649,0.2825,0.3125,0.3468,0.3497,0.353,0.3568,0.3507,0.3526,0.3625,0.3872,0.386,0.3839,0.3969,0.4038,0.3949,0.3618,0.2726,0.1594,0.1436,0.1143,0.0854,0.0984,0.1653,0.2449,0.2405,0.2391,0.2391,0.2391,0.2391,0.2391,0.2391,0.2391,0.2391,0.2391,0.2391,0.241,0.2498,0.1205,-0.0595,-0.2465,-0.387,-0.5048,-0.5762,-0.625,-0.6429,-0.6064,-0.8696,-1.1357,-1.2527,-1.2115,-1.2188,-1.384,-1.3422,-1.3157,-1.3866,-1.4165,-1.4663,-1.5466,-1.5642,-1.5774,-1.5828,-1.5918,-1.5973,-1.6126,-1.6097,-1.5784,-1.5063,-1.469,-1.4088,-1.3223,-1.3347,-1.3869,0.0,0.0,0.0,0.0,0.0,0.0,0.0,0.0,0.0,0.0,0.0,0.0,0.0,0.0,0.0,0.0,0.0,0.0,0.0,0.0,0.0,0.0,0.0,0.0,0.0,0.0,0.0,0.0969,0.1837,0.0,0.0,0.0,0.0,0.0539,0.0676,0.0832,0.1079,0.1489,0.1665,0.168,0.2074,0.2288,0.2277,0.2407,0.2471,0.2466,0.2506,0.2542,0.2741,0.3327,0.3469,0.3252,0.3654,0.3775,0.3755,0.2625,0.0987,-0.077,-0.0614,-0.1287,-0.23,-0.189,-0.0067,0.2226,0.206,0.2026,0.2024,0.2013,0.2009,0.2009,0.2009,0.1813,0.0,0.0,0.1618,0.1673,0.1923,-0.154,-0.5132,-0.543,-0.6306,-0.7618,-0.9543,-1.0826,-1.1317,0.0,-1.0297,-1.0932,-1.2564,0.0,-1.4886,-1.5819,-1.691,-1.7525,-1.7273,-1.7029,-1.7177,-1.8142,-1.7696,-1.7615,-1.8182,-1.8017,-1.7885,-1.7728,-1.7279,-1.6858,-1.6631,-1.5036,-1.4605,-1.5558,-1.4417,0.0,0.0,0.0,0.0,0.0,0.0,0.0,0.0,0.0,0.0,0.0,0.0,0.0,0.0,0.0,0.0,0.0,0.0,0.0,0.0,0.0,0.0,0.0,0.0,0.0,0.0,0.3373,0.3267,0.1407,0.1727,0.1467,0.0,0.0,0.0,0.0,0.0,0.0,0.0434,0.0621,0.0829,0.1012,0.1141,0.13,0.143,0.1512,0.1669,0.1977,0.1861,0.2031,0.2418,0.2708,0.281,0.2716,0.2713,0.275,0.2591,0.0421,-0.0804,-0.1481,-0.2683,-0.4955,-0.751,-0.7024,-0.3698,0.0593,0.0575,0.0524,0.0517,0.0531,0.0572,0.0572,0.0572,0.0,0.0,0.0,0.0,-0.5644,-0.5602,-0.6996,-0.8458,-0.8566,-0.8899,-0.9297,-0.9793,-1.0228,-1.0776,0.0,-1.3278,-1.4782,-1.5812,0.0,0.0,0.0,0.0,-1.6931,-1.8514,-1.8842,-1.9239,-2.0323,-2.0623,-2.0788,-2.093,-2.0895,-2.0883,-2.08,-2.0673,-1.985,-1.8158,-1.8199,-1.7574,-1.6175,0.0,0.0,0.0,0.0,0.0,0.0,0.0,0.0,0.0,0.0,0.0,0.0,0.0,0.0,0.0,0.0,0.0,0.0,0.0,0.0,0.0,0.0,0.0,0.0,0.0,0.0,0.0,0.226,0.1815,0.0477,0.0363,0.0,0.0,0.0,0.0,0.0,0.0,0.0,0.0,0.0,0.0,0.0315,-0.0368,-0.0436,0.0198,-0.0523,-0.046,0.0334,0.1305,0.1831,0.1799,0.1907,0.1945,0.1906,0.1992,0.186,0.1594,-0.0592,-0.2377,-0.3873,0.0,0.0,0.0,0.0,-0.611,-0.2746,-0.2978,-0.1741,0.0,0.0,0.0,0.0,0.0,0.0,0.0,0.0,0.0,0.0,0.0,0.0,-0.9247,-0.9653,-0.9893,-1.0097,-1.0452,-1.0602,-1.0932,0.0,-1.3378,-1.5312,-1.7549,0.0,0.0,0.0,0.0,-1.9623,-2.024,-2.0715,-2.1408,-2.2323,-2.2684,-2.2875,-2.3086,-2.2717,-2.2438,-2.223,-2.1487,-2.0783,-2.0122,-1.9829,-1.9292,0.0,0.0,0.0,0.0,0.0,0.0,0.0,0.0,0.0,0.0,0.0,0.0,0.0,0.0,0.0,0.0,0.0,0.0,0.0,0.0,0.0,0.0,0.0,0.0,0.0,0.0,0.0,0.0,0.0,0.0184,-0.0721,0.0,0.0,0.0,0.0,0.0,0.0,0.0,0.0,0.0,0.0,0.0,0.0,0.0,-0.2321,-0.1325,-0.2762,-0.2715,-0.1179,0.0902,0.1545,0.0982,0.0982,0.1006,0.1047,0.1155,0.0,0.058,-0.1442,0.0,0.0,0.0,0.0,0.0,0.0,0.0,0.0,0.0,0.0,0.0,0.0,0.0,0.0,0.0,0.0,0.0,0.0,0.0,0.0,0.0,0.0,-0.8798,-0.9435,-0.9867,-1.0521,0.0,-1.2187,-1.2201,-1.1964,-1.2629,0.0,0.0,0.0,0.0,0.0,0.0,0.0,-2.1866,-2.2278,-2.2989,-2.3919,-2.4022,-2.4205,-2.4562,-2.3749,-2.3035,-2.2613,-2.122,-2.0814,-2.1687,-2.037,0.0,0.0,0.0,0.0,0.0,0.0,0.0,0.0,0.0,0.0,0.0,0.0,0.0,0.0,0.0,0.0,0.0,0.0,0.0,0.0,0.0,0.0,0.0,0.0,0.0,0.0,0.0,0.0,0.0,0.0,0.0,0.0,0.0,0.0,0.0,0.0,0.0,0.0,0.0,0.0,0.0,0.0,0.0,0.0,0.0,0.0,0.0,0.0,0.0,0.0,0.0392,0.0329,0.0199,0.0199,0.02,0.0202,-0.0191,-0.0494,-0.0906,-0.4531,0.0,0.0,0.0,0.0,0.0,0.0,0.0,0.0,0.0,0.0,0.0,0.0,0.0,0.0,0.0,0.0,0.0,0.0,0.0,0.0,0.0,0.0,0.0,0.0,-0.9696,-1.1552,-1.5557,0.0,0.0,0.0,0.0,0.0,0.0,0.0,0.0,0.0,0.0,0.0,-2.1506,-2.2055,-2.2633,-2.3215,-2.427,-2.4933,-2.4933,-2.4308,-2.3551,-2.2788,-2.2541,-2.1762,0.0,0.0,0.0,0.0,0.0,0.0,0.0,0.0,0.0,0.0,0.0,0.0,0.0,0.0,0.0,0.0,0.0,0.0,0.0,0.0,0.0,0.0,0.0,0.0,0.0,0.0,0.0,0.0,0.0,0.0,0.0,0.0,0.0,0.0,0.0,0.0,0.0,0.0,0.0,0.0,0.0,0.0,0.0,0.0,0.0,0.0,0.0,0.0,0.0,0.0,0.0,0.0,0.0,0.0,0.0,0.0,0.0,0.0,0.0,-0.2662,0.0,0.0,0.0,0.0,0.0,0.0,0.0,0.0,0.0,0.0,0.0,0.0,0.0,0.0,0.0,0.0,0.0,0.0,0.0,0.0,0.0,0.0,0.0,0.0,0.0,0.0,0.0,0.0,0.0,0.0,0.0,0.0,0.0,0.0,0.0,0.0,0.0,0.0,0.0,0.0,-2.105,-2.2228,-2.309,-2.3256,-2.437,-2.5024,-2.4906,-2.4709,-2.4137,-2.3129,-2.3171,0.0,0.0,0.0,0.0,0.0,0.0,0.0,0.0,0.0,0.0,0.0,0.0,0.0,0.0,0.0,0.0,0.0,0.0,0.0,0.0,0.0,0.0,0.0,0.0,0.0,0.0,0.0,0.0,0.0,0.0,0.0,0.0,0.0,0.0,0.0,0.0,0.0,0.0,0.0,0.0,0.0,0.0,0.0,0.0,0.0,0.0,0.0,0.0,0.0,0.0,0.0,0.0,0.0,0.0,0.0,0.0,0.0,0.0,0.0,-0.4628,0.0,0.0,0.0,0.0,0.0,0.0,0.0,0.0,0.0,0.0,0.0,0.0,0.0,0.0,0.0,0.0,0.0,0.0,0.0,0.0,0.0,0.0,0.0,0.0,0.0,0.0,0.0,0.0,0.0,0.0,0.0,0.0,0.0,0.0,0.0,0.0,0.0,0.0,0.0,0.0,0.0,-2.0617,-2.2909,-2.4379,-2.3692,-2.5191,-2.6024,-2.5469,-2.5619,-2.5176,-2.3707,-2.3793,0.0,0.0,0.0,0.0,0.0,0.0,0.0,0.0,0.0,0.0,0.0,0.0,0.0,0.0,0.0,0.0,0.0,0.0,0.0,0.0,0.0,0.0,0.0,0.0,0.0,0.0,0.0,0.0,0.0,0.0,0.0,0.0,0.0,0.0,0.0,0.0,0.0,0.0,0.0,0.0,0.0,0.0,0.0,0.0,0.0,0.0,0.0,0.0,0.0,0.0,0.0,0.0,0.0,0.0,0.0,0.0,0.0,0.0,0.0,0.0,0.0,0.0,0.0,0.0,0.0,0.0,0.0,0.0,0.0,0.0,0.0,0.0,0.0,0.0,0.0,0.0,0.0,0.0,0.0,0.0,0.0,0.0,0.0,0.0,0.0,0.0,0.0,0.0,0.0,0.0,0.0,0.0,0.0,0.0,0.0,0.0,0.0,0.0,0.0,0.0,0.0,-2.0223,-2.4466,-2.6813,-2.4793,-2.7805,-2.9451,-2.7968,-2.7966,-2.7001,-2.4519,0.0,0.0,0.0,0.0,0.0,0.0,0.0,0.0,0.0,0.0,0.0,0.0,0.0,0.0,0.0,0.0,0.0,0.0,0.0,0.0,0.0,0.0,0.0,0.0,0.0,0.0,0.0,0.0,0.0,0.0,0.0,0.0,0.0,0.0,0.0,0.0,0.0,0.0,0.0,0.0,0.0,0.0,0.0,0.0,0.0,0.0,0.0,0.0,0.0,0.0,0.0,0.0,0.0,0.0,0.0,0.0,0.0,0.0,0.0,0.0,0.0,0.0,0.0,0.0,0.0,0.0,0.0,0.0,0.0,0.0,0.0,0.0,0.0,0.0,0.0,0.0,0.0,0.0,0.0,0.0,0.0,0.0,0.0,0.0,0.0,0.0,0.0,0.0,0.0,0.0,0.0,0.0,0.0,0.0,0.0,0.0,0.0,0.0,0.0,0.0,0.0,0.0,-2.2268,-2.6103,-2.8312,-2.7022,-2.9499,-3.0357,-2.8222,-2.8794,-2.8094,-2.5257,0.0,0.0,0.0,0.0,0.0,0.0,0.0,0.0,0.0,0.0,0.0,0.0,0.0,0.0,0.0,0.0,0.0,0.0,0.0,0.0,0.0,0.0,0.0,0.0,0.0,0.0,0.0,0.0,0.0,0.0,0.0,0.0,0.0,0.0,0.0,0.0,0.0,0.0,0.0,0.0,0.0,0.0,0.0,0.0,0.0,0.0,0.0,0.0,0.0,0.0,0.0,0.0,0.0,0.0,0.0,0.0,0.0,0.0,0.0,0.0,0.0,0.0,0.0,0.0,0.0,0.0,0.0,0.0,0.0,0.0,0.0,0.0,0.0,0.0,0.0,0.0,0.0,0.0,0.0,0.0,0.0,0.0,0.0,0.0,0.0,0.0,0.0,0.0,0.0,0.0,0.0,0.0,0.0,0.0,0.0,0.0,0.0,0.0,0.0,0.0,0.0,0.0,-2.3547,-2.7571,-2.9888,-2.8785,-3.1227,-3.1856,-2.9064,-2.9898,-2.9197,-2.5913,0.0,0.0,0.0,0.0,0.0,0.0,0.0,0.0,0.0,0.0,0.0,0.0,0.0,0.0,0.0,0.0,0.0,0.0,0.0,0.0,0.0,0.0,0.0,0.0,0.0,0.0,0.0,0.0,0.0,0.0,0.0,0.0,0.0,0.0,0.0,0.0,0.0,0.0,0.0,0.0,0.0,0.0,0.0,0.0,0.0,0.0,0.0,0.0,0.0,0.0,0.0,0.0,0.0,0.0,0.0,0.0,0.0,0.0,0.0,0.0,0.0,0.0,0.0,0.0,0.0,0.0,0.0,0.0,0.0,0.0,0.0,0.0,0.0,0.0,0.0,0.0,0.0,0.0,0.0,0.0,0.0,0.0,0.0,0.0,0.0,0.0,0.0,0.0,0.0,0.0,0.0,0.0,0.0,0.0,0.0,0.0,0.0,0.0,0.0,0.0,0.0,0.0,-2.329,-2.8752,-3.1776,-2.9614,-3.3265,-3.4543,-3.119,-3.1601,-3.039,0.0,0.0,0.0,0.0,0.0,0.0,0.0,0.0,0.0,0.0,0.0,0.0,0.0,0.0,0.0,0.0,0.0,0.0,0.0,0.0,0.0,0.0,0.0,0.0,0.0,0.0,0.0,0.0,0.0,0.0,0.0,0.0,0.0,0.0,0.0,0.0,0.0,0.0,0.0,0.0,0.0,0.0,0.0,0.0,0.0,0.0,0.0,0.0,0.0,0.0,0.0,0.0,0.0,0.0,0.0,0.0,0.0,0.0,0.0,0.0,0.0,0.0,0.0,0.0,0.0,0.0,0.0,0.0,0.0,0.0,0.0,0.0,0.0,0.0,0.0,0.0,0.0,0.0,0.0,0.0,0.0,0.0,0.0,0.0,0.0,0.0,0.0,0.0,0.0,0.0,0.0,0.0,0.0,0.0,0.0,0.0,0.0,0.0,0.0,0.0,0.0,0.0,0.0,-2.6663,-3.0613,-3.351,0.0,-3.5859,-3.5917,-3.3098,-3.2328,-3.0406,-2.6732,0.0,0.0,0.0,0.0,0.0,0.0,0.0,0.0,0.0,0.0,0.0,0.0,0.0,0.0,0.0,0.0,0.0,0.0,0.0,0.0,0.0,0.0,0.0,0.0,0.0,0.0,0.0,0.0,0.0,0.0,0.0,0.0,0.0,0.0,0.0,0.0,0.0,0.0,0.0,0.0,0.0,0.0,0.0,0.0,0.0,0.0,0.0,0.0,0.0,0.0,0.0,0.0,0.0,0.0,0.0,0.0,0.0,0.0,0.0,0.0,0.0,0.0,0.0,0.0,0.0,0.0,0.0,0.0,0.0,0.0,0.0,0.0,0.0,0.0,0.0,0.0,0.0,0.0,0.0,0.0,0.0,0.0,0.0,0.0,0.0,0.0,0.0,0.0,0.0,0.0,0.0,0.0,0.0,0.0,0.0,0.0,0.0,0.0,0.0,0.0,0.0,0.0,0.0,-3.1089,-3.3972,0.0,-3.6953,-3.6737,-3.4451,-3.2566,-3.0183,-2.7111,0.0,0.0,0.0,0.0,0.0,0.0,0.0,0.0,0.0,0.0,0.0,0.0,0.0,0.0,0.0,0.0,0.0,0.0,0.0,0.0,0.0,0.0,0.0,0.0,0.0,0.0,0.0,0.0,0.0,0.0,0.0,0.0,0.0,0.0,0.0,0.0,0.0,0.0,0.0,0.0,0.0,0.0,0.0,0.0,0.0,0.0,0.0,0.0,0.0,0.0,0.0,0.0,0.0,0.0,0.0,0.0,0.0,0.0,0.0,0.0,0.0,0.0,0.0,0.0,0.0,0.0,0.0,0.0,0.0,0.0,0.0,0.0,0.0,0.0,0.0,0.0,0.0,0.0,0.0,0.0,0.0,0.0,0.0,0.0,0.0,0.0,0.0,0.0,0.0,0.0,0.0,0.0,0.0,0.0,0.0,0.0,0.0,0.0,0.0,0.0,0.0,0.0,0.0,-3.0731,-3.3533,-3.4975,-3.6832,-3.7211,-3.5348,-3.2715,-3.0104,-2.7751,-2.5366,0.0,0.0,0.0,0.0,0.0,0.0,0.0,0.0,0.0,0.0,0.0,0.0,0.0,0.0,0.0,0.0,0.0,0.0,0.0,0.0,0.0,0.0,0.0,0.0,0.0,0.0,0.0,0.0,0.0,0.0,0.0,0.0,0.0,0.0,0.0,0.0,0.0,0.0,0.0,0.0,0.0,0.0,0.0,0.0,0.0,0.0,0.0,0.0,0.0,0.0,0.0,0.0,0.0,0.0,0.0,0.0,0.0,0.0,0.0,0.0,0.0,0.0,0.0,0.0,0.0,0.0,0.0,0.0,0.0,0.0,0.0,0.0,0.0,0.0,0.0,0.0,0.0,0.0,0.0,0.0,0.0,0.0,0.0,0.0,0.0,0.0,0.0,0.0,0.0,0.0,0.0,0.0,0.0,0.0,0.0,0.0,0.0,0.0,0.0,0.0,0.0,0.0,-3.2355,-3.4809,-3.6016,-3.7717,-3.8376,-3.7291,-3.4894,-3.2305,-2.9658,-2.8103,0.0,0.0,0.0,0.0,0.0,0.0,0.0,0.0,0.0,0.0,0.0,0.0,0.0,0.0,0.0,0.0,0.0,0.0,0.0,0.0,0.0,0.0,0.0,0.0,0.0,0.0,0.0,0.0,0.0,0.0,0.0,0.0,0.0,0.0,0.0,0.0,0.0,0.0,0.0,0.0,0.0,0.0,0.0,0.0,0.0,0.0,0.0,0.0,0.0,0.0,0.0,0.0,0.0,0.0,0.0,0.0,0.0,0.0,0.0,0.0,0.0,0.0,0.0,0.0,0.0,0.0,0.0,0.0,0.0,0.0,0.0,0.0,0.0,0.0,0.0,0.0,0.0,0.0,0.0,0.0,0.0,0.0,0.0,0.0,0.0,0.0,0.0,0.0,0.0,0.0,0.0,0.0,0.0,0.0,0.0,0.0,0.0,0.0,0.0,0.0,0.0,0.0,-3.0383,-3.2439,-3.5075,-3.7237,-3.8043,-3.7022,-3.4553,-3.2078,-2.9827,-2.8984,0.0,0.0,0.0,0.0,0.0,0.0,0.0,0.0,0.0,0.0,0.0,0.0,0.0,0.0,0.0,0.0,0.0,0.0,0.0,0.0,0.0,0.0,0.0,0.0,0.0,0.0,0.0,0.0,0.0,0.0,0.0,0.0,0.0,0.0,0.0,0.0,0.0,0.0,0.0,0.0,0.0,0.0,0.0,0.0,0.0,0.0,0.0,0.0,0.0,0.0,0.0,0.0,0.0,0.0,0.0,0.0,0.0,0.0,0.0,0.0,0.0,0.0,0.0,0.0,0.0,0.0,0.0,0.0,0.0,0.0,0.0,0.0,0.0,0.0,0.0,0.0,0.0,0.0,0.0,0.0,0.0,0.0,0.0,0.0,0.0,0.0,0.0,0.0,0.0,0.0,0.0,0.0,0.0,0.0,0.0,0.0,0.0,0.0,0.0,0.0,0.0,0.0,0.0,-2.9291,-3.3573,-3.6161,-3.7109,-3.6005,-3.3656,-3.1489,-2.9714,0.0,0.0,0.0,0.0,0.0,0.0,0.0,0.0,0.0,0.0,0.0,0.0,0.0,0.0,0.0,0.0,0.0,0.0,0.0,0.0,0.0,0.0,0.0,0.0,0.0,0.0,0.0,0.0,0.0,0.0,0.0,0.0,0.0,0.0,0.0,0.0,0.0,0.0,0.0,0.0,0.0,0.0,0.0,0.0,0.0,0.0,0.0,0.0,0.0,0.0,0.0,0.0,0.0,0.0,0.0,0.0,0.0,0.0,0.0,0.0,0.0,0.0,0.0,0.0,0.0,0.0,0.0,0.0,0.0,0.0,0.0,0.0,0.0,0.0,0.0,0.0,0.0,0.0,0.0,0.0,0.0,0.0,0.0,0.0,0.0,0.0,0.0,0.0,0.0,0.0,0.0,0.0,0.0,0.0,0.0,0.0,0.0,0.0,0.0,0.0,0.0,0.0,0.0,0.0,0.0,-3.3659,-3.5736,-3.6803,-3.6581,-3.54,-3.3832,-3.1921,0.0,0.0,0.0,0.0,0.0,0.0,0.0,0.0,0.0,0.0,0.0,0.0,0.0,0.0]}]]]